<?xml version="1.0" encoding="UTF-8" standalone="no" ?>
<gpx xmlns="http://www.topografix.com/GPX/1/1" xmlns:xsi="http://www.w3.org/2001/XMLSchema-instance" xsi:schemaLocation="http://www.topografix.com/GPX/1/1 http://www.topografix.com/GPX/1/1/gpx.xsd" version="1.1" creator="VisuGPX - https://www.visugpx.com">
  <metadata>
    <name>Randonnée Pitres</name>
    <desc><![CDATA[Départ aux écluses de Poses, on longe l\'étang des 2 amants puis on se dirige vers Lery pour entrer dans la forêt de bord.
Retour par le pont ferroviaire du Vaudreuil et l\'Andelle]]></desc>
  </metadata>
  <trk>
    <name><![CDATA[20120710-Pitres]]></name>
    <trkseg>
      <trkpt lat="49.31273" lon="1.23814">
        <ele>14</ele>
        <time>2012-07-10T11:53:40Z</time>
      </trkpt>
      <trkpt lat="49.3127" lon="1.23827">
        <ele>13.1</ele>
        <time>2012-07-10T11:56:31Z</time>
      </trkpt>
      <trkpt lat="49.31269" lon="1.23828">
        <ele>13.3</ele>
        <time>2012-07-10T11:56:32Z</time>
      </trkpt>
      <trkpt lat="49.31264" lon="1.23804">
        <ele>14.1</ele>
        <time>2012-07-10T11:57:25Z</time>
      </trkpt>
      <trkpt lat="49.31262" lon="1.23793">
        <ele>13.1</ele>
        <time>2012-07-10T11:57:31Z</time>
      </trkpt>
      <trkpt lat="49.31259" lon="1.23806">
        <ele>13.1</ele>
        <time>2012-07-10T11:57:47Z</time>
      </trkpt>
      <trkpt lat="49.31259" lon="1.23807">
        <ele>13.3</ele>
        <time>2012-07-10T11:57:48Z</time>
      </trkpt>
      <trkpt lat="49.31258" lon="1.23832">
        <ele>14.1</ele>
        <time>2012-07-10T11:58:04Z</time>
      </trkpt>
      <trkpt lat="49.3125" lon="1.23834">
        <ele>15.6</ele>
        <time>2012-07-10T11:58:21Z</time>
      </trkpt>
      <trkpt lat="49.31242" lon="1.23827">
        <ele>14.3</ele>
        <time>2012-07-10T11:58:29Z</time>
      </trkpt>
      <trkpt lat="49.31235" lon="1.23821">
        <ele>13.6</ele>
        <time>2012-07-10T11:58:36Z</time>
      </trkpt>
      <trkpt lat="49.31228" lon="1.23815">
        <ele>13.6</ele>
        <time>2012-07-10T11:58:43Z</time>
      </trkpt>
      <trkpt lat="49.31221" lon="1.23809">
        <ele>13.8</ele>
        <time>2012-07-10T11:58:49Z</time>
      </trkpt>
      <trkpt lat="49.3122" lon="1.23808">
        <ele>13.8</ele>
        <time>2012-07-10T11:58:50Z</time>
      </trkpt>
      <trkpt lat="49.31206" lon="1.23798">
        <ele>12.1</ele>
        <time>2012-07-10T11:59:03Z</time>
      </trkpt>
      <trkpt lat="49.31198" lon="1.23791">
        <ele>12.3</ele>
        <time>2012-07-10T11:59:10Z</time>
      </trkpt>
      <trkpt lat="49.3119" lon="1.23785">
        <ele>12.1</ele>
        <time>2012-07-10T11:59:18Z</time>
      </trkpt>
      <trkpt lat="49.31183" lon="1.23779">
        <ele>11.3</ele>
        <time>2012-07-10T11:59:25Z</time>
      </trkpt>
      <trkpt lat="49.31175" lon="1.23773">
        <ele>11.1</ele>
        <time>2012-07-10T11:59:31Z</time>
      </trkpt>
      <trkpt lat="49.31168" lon="1.23766">
        <ele>10.8</ele>
        <time>2012-07-10T11:59:38Z</time>
      </trkpt>
      <trkpt lat="49.3116" lon="1.23759">
        <ele>11.1</ele>
        <time>2012-07-10T11:59:45Z</time>
      </trkpt>
      <trkpt lat="49.31154" lon="1.23752">
        <ele>11.1</ele>
        <time>2012-07-10T11:59:51Z</time>
      </trkpt>
      <trkpt lat="49.31153" lon="1.23751">
        <ele>11.3</ele>
        <time>2012-07-10T11:59:52Z</time>
      </trkpt>
      <trkpt lat="49.31138" lon="1.23741">
        <ele>11.1</ele>
        <time>2012-07-10T12:00:06Z</time>
      </trkpt>
      <trkpt lat="49.31131" lon="1.23735">
        <ele>11.3</ele>
        <time>2012-07-10T12:00:14Z</time>
      </trkpt>
      <trkpt lat="49.31124" lon="1.23729">
        <ele>11.5</ele>
        <time>2012-07-10T12:00:21Z</time>
      </trkpt>
      <trkpt lat="49.31116" lon="1.23723">
        <ele>11.6</ele>
        <time>2012-07-10T12:00:28Z</time>
      </trkpt>
      <trkpt lat="49.31109" lon="1.23718">
        <ele>12.1</ele>
        <time>2012-07-10T12:00:34Z</time>
      </trkpt>
      <trkpt lat="49.31101" lon="1.23711">
        <ele>12.3</ele>
        <time>2012-07-10T12:00:40Z</time>
      </trkpt>
      <trkpt lat="49.31094" lon="1.23706">
        <ele>12.6</ele>
        <time>2012-07-10T12:00:46Z</time>
      </trkpt>
      <trkpt lat="49.31086" lon="1.237">
        <ele>12.6</ele>
        <time>2012-07-10T12:00:57Z</time>
      </trkpt>
      <trkpt lat="49.31085" lon="1.23699">
        <ele>12.5</ele>
        <time>2012-07-10T12:00:58Z</time>
      </trkpt>
      <trkpt lat="49.31072" lon="1.23686">
        <ele>11.3</ele>
        <time>2012-07-10T12:01:17Z</time>
      </trkpt>
      <trkpt lat="49.31065" lon="1.23681">
        <ele>11.1</ele>
        <time>2012-07-10T12:01:22Z</time>
      </trkpt>
      <trkpt lat="49.31057" lon="1.23677">
        <ele>11.5</ele>
        <time>2012-07-10T12:01:28Z</time>
      </trkpt>
      <trkpt lat="49.31049" lon="1.23672">
        <ele>10.8</ele>
        <time>2012-07-10T12:01:35Z</time>
      </trkpt>
      <trkpt lat="49.31042" lon="1.23666">
        <ele>10.6</ele>
        <time>2012-07-10T12:01:41Z</time>
      </trkpt>
      <trkpt lat="49.31034" lon="1.23659">
        <ele>10</ele>
        <time>2012-07-10T12:01:47Z</time>
      </trkpt>
      <trkpt lat="49.31027" lon="1.23653">
        <ele>9.5</ele>
        <time>2012-07-10T12:01:53Z</time>
      </trkpt>
      <trkpt lat="49.3102" lon="1.23648">
        <ele>8.6</ele>
        <time>2012-07-10T12:01:59Z</time>
      </trkpt>
      <trkpt lat="49.31018" lon="1.23647">
        <ele>8.5</ele>
        <time>2012-07-10T12:02:00Z</time>
      </trkpt>
      <trkpt lat="49.31006" lon="1.23635">
        <ele>9.6</ele>
        <time>2012-07-10T12:02:12Z</time>
      </trkpt>
      <trkpt lat="49.30998" lon="1.2363">
        <ele>10.1</ele>
        <time>2012-07-10T12:02:19Z</time>
      </trkpt>
      <trkpt lat="49.3099" lon="1.23625">
        <ele>9.8</ele>
        <time>2012-07-10T12:02:28Z</time>
      </trkpt>
      <trkpt lat="49.30983" lon="1.23617">
        <ele>9.8</ele>
        <time>2012-07-10T12:02:36Z</time>
      </trkpt>
      <trkpt lat="49.30976" lon="1.2361">
        <ele>9.8</ele>
        <time>2012-07-10T12:02:41Z</time>
      </trkpt>
      <trkpt lat="49.30968" lon="1.23604">
        <ele>9.6</ele>
        <time>2012-07-10T12:02:47Z</time>
      </trkpt>
      <trkpt lat="49.30961" lon="1.23598">
        <ele>10.1</ele>
        <time>2012-07-10T12:02:53Z</time>
      </trkpt>
      <trkpt lat="49.30954" lon="1.23593">
        <ele>10.1</ele>
        <time>2012-07-10T12:02:59Z</time>
      </trkpt>
      <trkpt lat="49.30947" lon="1.23587">
        <ele>9.6</ele>
        <time>2012-07-10T12:03:05Z</time>
      </trkpt>
      <trkpt lat="49.30946" lon="1.23586">
        <ele>9.6</ele>
        <time>2012-07-10T12:03:06Z</time>
      </trkpt>
      <trkpt lat="49.30933" lon="1.23575">
        <ele>9</ele>
        <time>2012-07-10T12:03:17Z</time>
      </trkpt>
      <trkpt lat="49.30925" lon="1.23569">
        <ele>9</ele>
        <time>2012-07-10T12:03:23Z</time>
      </trkpt>
      <trkpt lat="49.30918" lon="1.23565">
        <ele>8.1</ele>
        <time>2012-07-10T12:03:29Z</time>
      </trkpt>
      <trkpt lat="49.3091" lon="1.23559">
        <ele>8.3</ele>
        <time>2012-07-10T12:03:37Z</time>
      </trkpt>
      <trkpt lat="49.30903" lon="1.23551">
        <ele>8.6</ele>
        <time>2012-07-10T12:03:44Z</time>
      </trkpt>
      <trkpt lat="49.30896" lon="1.23544">
        <ele>9.3</ele>
        <time>2012-07-10T12:03:51Z</time>
      </trkpt>
      <trkpt lat="49.3089" lon="1.23535">
        <ele>9.8</ele>
        <time>2012-07-10T12:03:59Z</time>
      </trkpt>
      <trkpt lat="49.30883" lon="1.23528">
        <ele>9.5</ele>
        <time>2012-07-10T12:04:07Z</time>
      </trkpt>
      <trkpt lat="49.30882" lon="1.23527">
        <ele>9.3</ele>
        <time>2012-07-10T12:04:08Z</time>
      </trkpt>
      <trkpt lat="49.30869" lon="1.23512">
        <ele>7.8</ele>
        <time>2012-07-10T12:04:22Z</time>
      </trkpt>
      <trkpt lat="49.30864" lon="1.23502">
        <ele>6.5</ele>
        <time>2012-07-10T12:04:28Z</time>
      </trkpt>
      <trkpt lat="49.30862" lon="1.23489">
        <ele>4.9</ele>
        <time>2012-07-10T12:04:35Z</time>
      </trkpt>
      <trkpt lat="49.30863" lon="1.23476">
        <ele>3.7</ele>
        <time>2012-07-10T12:04:41Z</time>
      </trkpt>
      <trkpt lat="49.30868" lon="1.23466">
        <ele>3.5</ele>
        <time>2012-07-10T12:04:47Z</time>
      </trkpt>
      <trkpt lat="49.30875" lon="1.23458">
        <ele>3.2</ele>
        <time>2012-07-10T12:04:54Z</time>
      </trkpt>
      <trkpt lat="49.30881" lon="1.23451">
        <ele>2.7</ele>
        <time>2012-07-10T12:05:03Z</time>
      </trkpt>
      <trkpt lat="49.30887" lon="1.23443">
        <ele>2.2</ele>
        <time>2012-07-10T12:05:09Z</time>
      </trkpt>
      <trkpt lat="49.30888" lon="1.23441">
        <ele>2</ele>
        <time>2012-07-10T12:05:10Z</time>
      </trkpt>
      <trkpt lat="49.309" lon="1.23424">
        <ele>2.5</ele>
        <time>2012-07-10T12:05:22Z</time>
      </trkpt>
      <trkpt lat="49.30907" lon="1.23417">
        <ele>2.9</ele>
        <time>2012-07-10T12:05:29Z</time>
      </trkpt>
      <trkpt lat="49.30914" lon="1.2341">
        <ele>2.7</ele>
        <time>2012-07-10T12:05:36Z</time>
      </trkpt>
      <trkpt lat="49.30921" lon="1.23405">
        <ele>2.5</ele>
        <time>2012-07-10T12:05:42Z</time>
      </trkpt>
      <trkpt lat="49.30928" lon="1.23399">
        <ele>2.4</ele>
        <time>2012-07-10T12:05:48Z</time>
      </trkpt>
      <trkpt lat="49.30936" lon="1.23393">
        <ele>2.7</ele>
        <time>2012-07-10T12:05:55Z</time>
      </trkpt>
      <trkpt lat="49.30943" lon="1.23385">
        <ele>3.4</ele>
        <time>2012-07-10T12:06:02Z</time>
      </trkpt>
      <trkpt lat="49.3095" lon="1.23377">
        <ele>4.6</ele>
        <time>2012-07-10T12:06:09Z</time>
      </trkpt>
      <trkpt lat="49.30957" lon="1.23372">
        <ele>5.4</ele>
        <time>2012-07-10T12:06:15Z</time>
      </trkpt>
      <trkpt lat="49.30958" lon="1.23371">
        <ele>5.5</ele>
        <time>2012-07-10T12:06:16Z</time>
      </trkpt>
      <trkpt lat="49.30972" lon="1.23361">
        <ele>5.4</ele>
        <time>2012-07-10T12:06:27Z</time>
      </trkpt>
      <trkpt lat="49.30978" lon="1.23354">
        <ele>5.9</ele>
        <time>2012-07-10T12:06:33Z</time>
      </trkpt>
      <trkpt lat="49.30983" lon="1.23345">
        <ele>6.3</ele>
        <time>2012-07-10T12:06:39Z</time>
      </trkpt>
      <trkpt lat="49.30986" lon="1.23333">
        <ele>6.9</ele>
        <time>2012-07-10T12:06:45Z</time>
      </trkpt>
      <trkpt lat="49.30988" lon="1.2332">
        <ele>7.1</ele>
        <time>2012-07-10T12:06:52Z</time>
      </trkpt>
      <trkpt lat="49.30988" lon="1.23306">
        <ele>8</ele>
        <time>2012-07-10T12:06:59Z</time>
      </trkpt>
      <trkpt lat="49.30991" lon="1.23293">
        <ele>6.9</ele>
        <time>2012-07-10T12:07:06Z</time>
      </trkpt>
      <trkpt lat="49.30993" lon="1.23282">
        <ele>7.8</ele>
        <time>2012-07-10T12:07:12Z</time>
      </trkpt>
      <trkpt lat="49.30995" lon="1.2327">
        <ele>7.8</ele>
        <time>2012-07-10T12:07:18Z</time>
      </trkpt>
      <trkpt lat="49.30996" lon="1.23268">
        <ele>8</ele>
        <time>2012-07-10T12:07:19Z</time>
      </trkpt>
      <trkpt lat="49.30999" lon="1.23244">
        <ele>8.1</ele>
        <time>2012-07-10T12:07:32Z</time>
      </trkpt>
      <trkpt lat="49.31001" lon="1.23232">
        <ele>8.3</ele>
        <time>2012-07-10T12:07:38Z</time>
      </trkpt>
      <trkpt lat="49.31002" lon="1.23219">
        <ele>7.6</ele>
        <time>2012-07-10T12:07:44Z</time>
      </trkpt>
      <trkpt lat="49.31004" lon="1.23206">
        <ele>7.5</ele>
        <time>2012-07-10T12:07:50Z</time>
      </trkpt>
      <trkpt lat="49.31005" lon="1.23193">
        <ele>8.3</ele>
        <time>2012-07-10T12:07:57Z</time>
      </trkpt>
      <trkpt lat="49.31006" lon="1.23179">
        <ele>8.3</ele>
        <time>2012-07-10T12:08:04Z</time>
      </trkpt>
      <trkpt lat="49.31008" lon="1.23167">
        <ele>9.6</ele>
        <time>2012-07-10T12:08:11Z</time>
      </trkpt>
      <trkpt lat="49.31009" lon="1.23154">
        <ele>9.6</ele>
        <time>2012-07-10T12:08:18Z</time>
      </trkpt>
      <trkpt lat="49.31012" lon="1.23142">
        <ele>9.8</ele>
        <time>2012-07-10T12:08:25Z</time>
      </trkpt>
      <trkpt lat="49.31012" lon="1.2314">
        <ele>10</ele>
        <time>2012-07-10T12:08:26Z</time>
      </trkpt>
      <trkpt lat="49.31014" lon="1.23115">
        <ele>11.1</ele>
        <time>2012-07-10T12:08:39Z</time>
      </trkpt>
      <trkpt lat="49.31017" lon="1.23103">
        <ele>11.1</ele>
        <time>2012-07-10T12:08:45Z</time>
      </trkpt>
      <trkpt lat="49.31019" lon="1.23091">
        <ele>11</ele>
        <time>2012-07-10T12:08:51Z</time>
      </trkpt>
      <trkpt lat="49.31021" lon="1.23079">
        <ele>10.5</ele>
        <time>2012-07-10T12:08:57Z</time>
      </trkpt>
      <trkpt lat="49.31022" lon="1.23066">
        <ele>9.6</ele>
        <time>2012-07-10T12:09:03Z</time>
      </trkpt>
      <trkpt lat="49.31024" lon="1.23053">
        <ele>9.3</ele>
        <time>2012-07-10T12:09:20Z</time>
      </trkpt>
      <trkpt lat="49.31026" lon="1.2304">
        <ele>8.3</ele>
        <time>2012-07-10T12:09:26Z</time>
      </trkpt>
      <trkpt lat="49.31027" lon="1.23027">
        <ele>7.3</ele>
        <time>2012-07-10T12:09:34Z</time>
      </trkpt>
      <trkpt lat="49.31027" lon="1.23025">
        <ele>7</ele>
        <time>2012-07-10T12:09:35Z</time>
      </trkpt>
      <trkpt lat="49.31028" lon="1.23">
        <ele>6</ele>
        <time>2012-07-10T12:09:49Z</time>
      </trkpt>
      <trkpt lat="49.31029" lon="1.22989">
        <ele>5.4</ele>
        <time>2012-07-10T12:09:55Z</time>
      </trkpt>
      <trkpt lat="49.31028" lon="1.22976">
        <ele>5.6</ele>
        <time>2012-07-10T12:10:02Z</time>
      </trkpt>
      <trkpt lat="49.31028" lon="1.22964">
        <ele>6.4</ele>
        <time>2012-07-10T12:10:10Z</time>
      </trkpt>
      <trkpt lat="49.31028" lon="1.22952">
        <ele>6.6</ele>
        <time>2012-07-10T12:10:17Z</time>
      </trkpt>
      <trkpt lat="49.31029" lon="1.22941">
        <ele>7</ele>
        <time>2012-07-10T12:10:25Z</time>
      </trkpt>
      <trkpt lat="49.3103" lon="1.22927">
        <ele>6.8</ele>
        <time>2012-07-10T12:10:31Z</time>
      </trkpt>
      <trkpt lat="49.3103" lon="1.22914">
        <ele>6</ele>
        <time>2012-07-10T12:10:37Z</time>
      </trkpt>
      <trkpt lat="49.3103" lon="1.22913">
        <ele>6.5</ele>
        <time>2012-07-10T12:10:38Z</time>
      </trkpt>
      <trkpt lat="49.31029" lon="1.22888">
        <ele>6</ele>
        <time>2012-07-10T12:10:50Z</time>
      </trkpt>
      <trkpt lat="49.31031" lon="1.22876">
        <ele>6.8</ele>
        <time>2012-07-10T12:10:55Z</time>
      </trkpt>
      <trkpt lat="49.31032" lon="1.22863">
        <ele>6</ele>
        <time>2012-07-10T12:11:01Z</time>
      </trkpt>
      <trkpt lat="49.31032" lon="1.2285">
        <ele>5.9</ele>
        <time>2012-07-10T12:11:07Z</time>
      </trkpt>
      <trkpt lat="49.31031" lon="1.22836">
        <ele>6</ele>
        <time>2012-07-10T12:11:14Z</time>
      </trkpt>
      <trkpt lat="49.31027" lon="1.22825">
        <ele>7.6</ele>
        <time>2012-07-10T12:11:24Z</time>
      </trkpt>
      <trkpt lat="49.31019" lon="1.22824">
        <ele>9.3</ele>
        <time>2012-07-10T12:11:31Z</time>
      </trkpt>
      <trkpt lat="49.31011" lon="1.22824">
        <ele>10.8</ele>
        <time>2012-07-10T12:11:39Z</time>
      </trkpt>
      <trkpt lat="49.3101" lon="1.22824">
        <ele>10.8</ele>
        <time>2012-07-10T12:11:40Z</time>
      </trkpt>
      <trkpt lat="49.30994" lon="1.22826">
        <ele>13.3</ele>
        <time>2012-07-10T12:11:56Z</time>
      </trkpt>
      <trkpt lat="49.30986" lon="1.22825">
        <ele>13.3</ele>
        <time>2012-07-10T12:12:01Z</time>
      </trkpt>
      <trkpt lat="49.30977" lon="1.22827">
        <ele>12.8</ele>
        <time>2012-07-10T12:12:07Z</time>
      </trkpt>
      <trkpt lat="49.30968" lon="1.22827">
        <ele>12.1</ele>
        <time>2012-07-10T12:12:13Z</time>
      </trkpt>
      <trkpt lat="49.30961" lon="1.22827">
        <ele>12</ele>
        <time>2012-07-10T12:12:18Z</time>
      </trkpt>
      <trkpt lat="49.30952" lon="1.22828">
        <ele>11.6</ele>
        <time>2012-07-10T12:12:24Z</time>
      </trkpt>
      <trkpt lat="49.30944" lon="1.22829">
        <ele>11.6</ele>
        <time>2012-07-10T12:12:29Z</time>
      </trkpt>
      <trkpt lat="49.30935" lon="1.22831">
        <ele>11</ele>
        <time>2012-07-10T12:12:36Z</time>
      </trkpt>
      <trkpt lat="49.30928" lon="1.22823">
        <ele>9</ele>
        <time>2012-07-10T12:12:44Z</time>
      </trkpt>
      <trkpt lat="49.30927" lon="1.22822">
        <ele>8.8</ele>
        <time>2012-07-10T12:12:45Z</time>
      </trkpt>
      <trkpt lat="49.3092" lon="1.22801">
        <ele>7</ele>
        <time>2012-07-10T12:12:57Z</time>
      </trkpt>
      <trkpt lat="49.30917" lon="1.22788">
        <ele>5.9</ele>
        <time>2012-07-10T12:13:03Z</time>
      </trkpt>
      <trkpt lat="49.30912" lon="1.22777">
        <ele>5.5</ele>
        <time>2012-07-10T12:13:10Z</time>
      </trkpt>
      <trkpt lat="49.30908" lon="1.22766">
        <ele>5</ele>
        <time>2012-07-10T12:13:16Z</time>
      </trkpt>
      <trkpt lat="49.30904" lon="1.22756">
        <ele>3.9</ele>
        <time>2012-07-10T12:13:22Z</time>
      </trkpt>
      <trkpt lat="49.30898" lon="1.22747">
        <ele>3.9</ele>
        <time>2012-07-10T12:13:37Z</time>
      </trkpt>
      <trkpt lat="49.30893" lon="1.22738">
        <ele>4</ele>
        <time>2012-07-10T12:13:43Z</time>
      </trkpt>
      <trkpt lat="49.30887" lon="1.22729">
        <ele>3.2</ele>
        <time>2012-07-10T12:13:49Z</time>
      </trkpt>
      <trkpt lat="49.30886" lon="1.22727">
        <ele>3.2</ele>
        <time>2012-07-10T12:13:50Z</time>
      </trkpt>
      <trkpt lat="49.30875" lon="1.2271">
        <ele>1.3</ele>
        <time>2012-07-10T12:14:02Z</time>
      </trkpt>
      <trkpt lat="49.30868" lon="1.22703">
        <ele>1.2</ele>
        <time>2012-07-10T12:14:09Z</time>
      </trkpt>
      <trkpt lat="49.30861" lon="1.22696">
        <ele>1.6</ele>
        <time>2012-07-10T12:14:16Z</time>
      </trkpt>
      <trkpt lat="49.30854" lon="1.2269">
        <ele>1.5</ele>
        <time>2012-07-10T12:14:22Z</time>
      </trkpt>
      <trkpt lat="49.30847" lon="1.22683">
        <ele>1</ele>
        <time>2012-07-10T12:14:28Z</time>
      </trkpt>
      <trkpt lat="49.3084" lon="1.22678">
        <ele>0.8</ele>
        <time>2012-07-10T12:14:34Z</time>
      </trkpt>
      <trkpt lat="49.30833" lon="1.22671">
        <ele>0.6</ele>
        <time>2012-07-10T12:14:42Z</time>
      </trkpt>
      <trkpt lat="49.30825" lon="1.22665">
        <ele>1</ele>
        <time>2012-07-10T12:14:49Z</time>
      </trkpt>
      <trkpt lat="49.30817" lon="1.22658">
        <ele>2</ele>
        <time>2012-07-10T12:15:07Z</time>
      </trkpt>
      <trkpt lat="49.30816" lon="1.22657">
        <ele>2</ele>
        <time>2012-07-10T12:15:08Z</time>
      </trkpt>
      <trkpt lat="49.30803" lon="1.22644">
        <ele>1.7</ele>
        <time>2012-07-10T12:15:20Z</time>
      </trkpt>
      <trkpt lat="49.30796" lon="1.22637">
        <ele>2</ele>
        <time>2012-07-10T12:15:26Z</time>
      </trkpt>
      <trkpt lat="49.3079" lon="1.22629">
        <ele>2</ele>
        <time>2012-07-10T12:15:32Z</time>
      </trkpt>
      <trkpt lat="49.30783" lon="1.22621">
        <ele>3</ele>
        <time>2012-07-10T12:15:38Z</time>
      </trkpt>
      <trkpt lat="49.30777" lon="1.22612">
        <ele>3.2</ele>
        <time>2012-07-10T12:15:44Z</time>
      </trkpt>
      <trkpt lat="49.30771" lon="1.22603">
        <ele>2.9</ele>
        <time>2012-07-10T12:15:50Z</time>
      </trkpt>
      <trkpt lat="49.30764" lon="1.22594">
        <ele>2.5</ele>
        <time>2012-07-10T12:15:56Z</time>
      </trkpt>
      <trkpt lat="49.30758" lon="1.22585">
        <ele>2</ele>
        <time>2012-07-10T12:16:02Z</time>
      </trkpt>
      <trkpt lat="49.30751" lon="1.22577">
        <ele>2.2</ele>
        <time>2012-07-10T12:16:08Z</time>
      </trkpt>
      <trkpt lat="49.3075" lon="1.22576">
        <ele>2</ele>
        <time>2012-07-10T12:16:09Z</time>
      </trkpt>
      <trkpt lat="49.30738" lon="1.22563">
        <ele>1.1</ele>
        <time>2012-07-10T12:16:20Z</time>
      </trkpt>
      <trkpt lat="49.3073" lon="1.22558">
        <ele>0.5</ele>
        <time>2012-07-10T12:16:26Z</time>
      </trkpt>
      <trkpt lat="49.30722" lon="1.22553">
        <ele>0.4</ele>
        <time>2012-07-10T12:16:38Z</time>
      </trkpt>
      <trkpt lat="49.30717" lon="1.22542">
        <ele>0.6</ele>
        <time>2012-07-10T12:16:44Z</time>
      </trkpt>
      <trkpt lat="49.30713" lon="1.22532">
        <ele>1.1</ele>
        <time>2012-07-10T12:16:50Z</time>
      </trkpt>
      <trkpt lat="49.30707" lon="1.22523">
        <ele>1.3</ele>
        <time>2012-07-10T12:16:56Z</time>
      </trkpt>
      <trkpt lat="49.30701" lon="1.22514">
        <ele>0.8</ele>
        <time>2012-07-10T12:17:02Z</time>
      </trkpt>
      <trkpt lat="49.30694" lon="1.22508">
        <ele>0.8</ele>
        <time>2012-07-10T12:17:08Z</time>
      </trkpt>
      <trkpt lat="49.30692" lon="1.22495">
        <ele>0.1</ele>
        <time>2012-07-10T12:17:14Z</time>
      </trkpt>
      <trkpt lat="49.30692" lon="1.22493">
        <ele>0.2</ele>
        <time>2012-07-10T12:17:15Z</time>
      </trkpt>
      <trkpt lat="49.3069" lon="1.2247">
        <ele>-0.6</ele>
        <time>2012-07-10T12:17:26Z</time>
      </trkpt>
      <trkpt lat="49.30689" lon="1.22458">
        <ele>-0.6</ele>
        <time>2012-07-10T12:17:32Z</time>
      </trkpt>
      <trkpt lat="49.30687" lon="1.22445">
        <ele>-0.2</ele>
        <time>2012-07-10T12:17:39Z</time>
      </trkpt>
      <trkpt lat="49.30684" lon="1.22433">
        <ele>-0.3</ele>
        <time>2012-07-10T12:17:46Z</time>
      </trkpt>
      <trkpt lat="49.30684" lon="1.22421">
        <ele>-0.4</ele>
        <time>2012-07-10T12:17:52Z</time>
      </trkpt>
      <trkpt lat="49.30685" lon="1.22407">
        <ele>7.8</ele>
        <time>2012-07-10T12:18:00Z</time>
      </trkpt>
      <trkpt lat="49.30683" lon="1.22394">
        <ele>7.9</ele>
        <time>2012-07-10T12:18:08Z</time>
      </trkpt>
      <trkpt lat="49.30679" lon="1.22382">
        <ele>-0.5</ele>
        <time>2012-07-10T12:18:15Z</time>
      </trkpt>
      <trkpt lat="49.30678" lon="1.2238">
        <ele>-0.3</ele>
        <time>2012-07-10T12:18:16Z</time>
      </trkpt>
      <trkpt lat="49.30674" lon="1.22358">
        <ele>-0.8</ele>
        <time>2012-07-10T12:18:29Z</time>
      </trkpt>
      <trkpt lat="49.30672" lon="1.22345">
        <ele>-0.8</ele>
        <time>2012-07-10T12:18:36Z</time>
      </trkpt>
      <trkpt lat="49.30671" lon="1.22332">
        <ele>-0.8</ele>
        <time>2012-07-10T12:18:43Z</time>
      </trkpt>
      <trkpt lat="49.3067" lon="1.22319">
        <ele>-1.2</ele>
        <time>2012-07-10T12:18:50Z</time>
      </trkpt>
      <trkpt lat="49.30669" lon="1.22307">
        <ele>-1.5</ele>
        <time>2012-07-10T12:18:56Z</time>
      </trkpt>
      <trkpt lat="49.30667" lon="1.22294">
        <ele>-1.8</ele>
        <time>2012-07-10T12:19:03Z</time>
      </trkpt>
      <trkpt lat="49.30665" lon="1.22282">
        <ele>-1.2</ele>
        <time>2012-07-10T12:19:10Z</time>
      </trkpt>
      <trkpt lat="49.30664" lon="1.2227">
        <ele>-1.3</ele>
        <time>2012-07-10T12:19:16Z</time>
      </trkpt>
      <trkpt lat="49.30663" lon="1.22258">
        <ele>-1.6</ele>
        <time>2012-07-10T12:19:22Z</time>
      </trkpt>
      <trkpt lat="49.30663" lon="1.22256">
        <ele>-1.7</ele>
        <time>2012-07-10T12:19:23Z</time>
      </trkpt>
      <trkpt lat="49.30661" lon="1.22231">
        <ele>-1.2</ele>
        <time>2012-07-10T12:19:36Z</time>
      </trkpt>
      <trkpt lat="49.30659" lon="1.2222">
        <ele>-1.1</ele>
        <time>2012-07-10T12:19:42Z</time>
      </trkpt>
      <trkpt lat="49.30658" lon="1.22207">
        <ele>-1.3</ele>
        <time>2012-07-10T12:19:48Z</time>
      </trkpt>
      <trkpt lat="49.30656" lon="1.22196">
        <ele>-1.2</ele>
        <time>2012-07-10T12:19:54Z</time>
      </trkpt>
      <trkpt lat="49.30654" lon="1.22184">
        <ele>-0.8</ele>
        <time>2012-07-10T12:20:00Z</time>
      </trkpt>
      <trkpt lat="49.30654" lon="1.22171">
        <ele>-0.6</ele>
        <time>2012-07-10T12:20:06Z</time>
      </trkpt>
      <trkpt lat="49.30653" lon="1.22159">
        <ele>-1.5</ele>
        <time>2012-07-10T12:20:12Z</time>
      </trkpt>
      <trkpt lat="49.30653" lon="1.22145">
        <ele>-1.7</ele>
        <time>2012-07-10T12:20:19Z</time>
      </trkpt>
      <trkpt lat="49.30653" lon="1.22132">
        <ele>-0.6</ele>
        <time>2012-07-10T12:20:26Z</time>
      </trkpt>
      <trkpt lat="49.30653" lon="1.2213">
        <ele>-0.8</ele>
        <time>2012-07-10T12:20:27Z</time>
      </trkpt>
      <trkpt lat="49.30651" lon="1.22105">
        <ele>-1</ele>
        <time>2012-07-10T12:20:40Z</time>
      </trkpt>
      <trkpt lat="49.30649" lon="1.22093">
        <ele>-0.6</ele>
        <time>2012-07-10T12:20:46Z</time>
      </trkpt>
      <trkpt lat="49.30648" lon="1.22081">
        <ele>-0.6</ele>
        <time>2012-07-10T12:20:52Z</time>
      </trkpt>
      <trkpt lat="49.30646" lon="1.2207">
        <ele>-0.6</ele>
        <time>2012-07-10T12:20:58Z</time>
      </trkpt>
      <trkpt lat="49.30645" lon="1.22057">
        <ele>-0.3</ele>
        <time>2012-07-10T12:21:04Z</time>
      </trkpt>
      <trkpt lat="49.30645" lon="1.22045">
        <ele>-0.1</ele>
        <time>2012-07-10T12:21:10Z</time>
      </trkpt>
      <trkpt lat="49.30643" lon="1.22033">
        <ele>-0.3</ele>
        <time>2012-07-10T12:21:16Z</time>
      </trkpt>
      <trkpt lat="49.30642" lon="1.22022">
        <ele>-0.3</ele>
        <time>2012-07-10T12:21:22Z</time>
      </trkpt>
      <trkpt lat="49.3064" lon="1.2201">
        <ele>0.4</ele>
        <time>2012-07-10T12:21:28Z</time>
      </trkpt>
      <trkpt lat="49.3064" lon="1.22008">
        <ele>0.6</ele>
        <time>2012-07-10T12:21:29Z</time>
      </trkpt>
      <trkpt lat="49.30638" lon="1.21985">
        <ele>-0.2</ele>
        <time>2012-07-10T12:21:41Z</time>
      </trkpt>
      <trkpt lat="49.30638" lon="1.21972">
        <ele>-0.4</ele>
        <time>2012-07-10T12:21:47Z</time>
      </trkpt>
      <trkpt lat="49.30638" lon="1.2196">
        <ele>8.3</ele>
        <time>2012-07-10T12:21:53Z</time>
      </trkpt>
      <trkpt lat="49.30635" lon="1.21949">
        <ele>-0.3</ele>
        <time>2012-07-10T12:22:00Z</time>
      </trkpt>
      <trkpt lat="49.3063" lon="1.21938">
        <ele>-0.3</ele>
        <time>2012-07-10T12:22:07Z</time>
      </trkpt>
      <trkpt lat="49.30624" lon="1.21931">
        <ele>0.3</ele>
        <time>2012-07-10T12:22:14Z</time>
      </trkpt>
      <trkpt lat="49.3062" lon="1.2192">
        <ele>0.6</ele>
        <time>2012-07-10T12:22:20Z</time>
      </trkpt>
      <trkpt lat="49.30619" lon="1.21906">
        <ele>0.3</ele>
        <time>2012-07-10T12:22:27Z</time>
      </trkpt>
      <trkpt lat="49.30619" lon="1.21893">
        <ele>0.3</ele>
        <time>2012-07-10T12:22:34Z</time>
      </trkpt>
      <trkpt lat="49.30619" lon="1.21891">
        <ele>0.4</ele>
        <time>2012-07-10T12:22:35Z</time>
      </trkpt>
      <trkpt lat="49.30623" lon="1.21869">
        <ele>1.2</ele>
        <time>2012-07-10T12:22:46Z</time>
      </trkpt>
      <trkpt lat="49.30626" lon="1.21858">
        <ele>1.6</ele>
        <time>2012-07-10T12:22:52Z</time>
      </trkpt>
      <trkpt lat="49.30629" lon="1.21846">
        <ele>1.2</ele>
        <time>2012-07-10T12:22:58Z</time>
      </trkpt>
      <trkpt lat="49.30631" lon="1.21834">
        <ele>1.7</ele>
        <time>2012-07-10T12:23:04Z</time>
      </trkpt>
      <trkpt lat="49.30633" lon="1.21821">
        <ele>1.5</ele>
        <time>2012-07-10T12:23:10Z</time>
      </trkpt>
      <trkpt lat="49.30632" lon="1.21808">
        <ele>1.8</ele>
        <time>2012-07-10T12:23:17Z</time>
      </trkpt>
      <trkpt lat="49.30627" lon="1.21798">
        <ele>2.5</ele>
        <time>2012-07-10T12:23:24Z</time>
      </trkpt>
      <trkpt lat="49.3062" lon="1.21793">
        <ele>2.4</ele>
        <time>2012-07-10T12:23:30Z</time>
      </trkpt>
      <trkpt lat="49.30612" lon="1.21788">
        <ele>2.4</ele>
        <time>2012-07-10T12:23:38Z</time>
      </trkpt>
      <trkpt lat="49.30611" lon="1.21788">
        <ele>2.4</ele>
        <time>2012-07-10T12:23:39Z</time>
      </trkpt>
      <trkpt lat="49.30595" lon="1.21784">
        <ele>3</ele>
        <time>2012-07-10T12:23:51Z</time>
      </trkpt>
      <trkpt lat="49.30587" lon="1.21785">
        <ele>2.5</ele>
        <time>2012-07-10T12:23:58Z</time>
      </trkpt>
      <trkpt lat="49.30578" lon="1.21786">
        <ele>2</ele>
        <time>2012-07-10T12:24:05Z</time>
      </trkpt>
      <trkpt lat="49.3057" lon="1.21788">
        <ele>2.7</ele>
        <time>2012-07-10T12:24:12Z</time>
      </trkpt>
      <trkpt lat="49.30561" lon="1.2179">
        <ele>2.7</ele>
        <time>2012-07-10T12:24:18Z</time>
      </trkpt>
      <trkpt lat="49.30553" lon="1.21793">
        <ele>2.2</ele>
        <time>2012-07-10T12:24:24Z</time>
      </trkpt>
      <trkpt lat="49.30545" lon="1.21796">
        <ele>1.5</ele>
        <time>2012-07-10T12:24:30Z</time>
      </trkpt>
      <trkpt lat="49.30536" lon="1.21799">
        <ele>2</ele>
        <time>2012-07-10T12:24:37Z</time>
      </trkpt>
      <trkpt lat="49.30528" lon="1.21802">
        <ele>1.1</ele>
        <time>2012-07-10T12:24:43Z</time>
      </trkpt>
      <trkpt lat="49.30527" lon="1.21802">
        <ele>1.2</ele>
        <time>2012-07-10T12:24:44Z</time>
      </trkpt>
      <trkpt lat="49.30511" lon="1.21807">
        <ele>2</ele>
        <time>2012-07-10T12:24:56Z</time>
      </trkpt>
      <trkpt lat="49.30502" lon="1.2181">
        <ele>1.1</ele>
        <time>2012-07-10T12:25:03Z</time>
      </trkpt>
      <trkpt lat="49.30495" lon="1.21811">
        <ele>0.8</ele>
        <time>2012-07-10T12:25:09Z</time>
      </trkpt>
      <trkpt lat="49.30487" lon="1.21812">
        <ele>0.8</ele>
        <time>2012-07-10T12:25:15Z</time>
      </trkpt>
      <trkpt lat="49.30479" lon="1.21812">
        <ele>-0.4</ele>
        <time>2012-07-10T12:25:22Z</time>
      </trkpt>
      <trkpt lat="49.30471" lon="1.2181">
        <ele>-0.4</ele>
        <time>2012-07-10T12:25:28Z</time>
      </trkpt>
      <trkpt lat="49.30463" lon="1.21806">
        <ele>-1</ele>
        <time>2012-07-10T12:25:34Z</time>
      </trkpt>
      <trkpt lat="49.30455" lon="1.21802">
        <ele>0.2</ele>
        <time>2012-07-10T12:27:25Z</time>
      </trkpt>
      <trkpt lat="49.30454" lon="1.21801">
        <ele>0.2</ele>
        <time>2012-07-10T12:27:26Z</time>
      </trkpt>
      <trkpt lat="49.30447" lon="1.21793">
        <ele>2.2</ele>
        <time>2012-07-10T12:28:54Z</time>
      </trkpt>
      <trkpt lat="49.30437" lon="1.21773">
        <ele>3.2</ele>
        <time>2012-07-10T12:29:09Z</time>
      </trkpt>
      <trkpt lat="49.30433" lon="1.21763">
        <ele>2.5</ele>
        <time>2012-07-10T12:29:16Z</time>
      </trkpt>
      <trkpt lat="49.30427" lon="1.21753">
        <ele>2.5</ele>
        <time>2012-07-10T12:29:23Z</time>
      </trkpt>
      <trkpt lat="49.30422" lon="1.21742">
        <ele>2.4</ele>
        <time>2012-07-10T12:29:31Z</time>
      </trkpt>
      <trkpt lat="49.30418" lon="1.21731">
        <ele>2.7</ele>
        <time>2012-07-10T12:29:40Z</time>
      </trkpt>
      <trkpt lat="49.30413" lon="1.2172">
        <ele>3</ele>
        <time>2012-07-10T12:29:48Z</time>
      </trkpt>
      <trkpt lat="49.30407" lon="1.2171">
        <ele>3.9</ele>
        <time>2012-07-10T12:29:56Z</time>
      </trkpt>
      <trkpt lat="49.30407" lon="1.21708">
        <ele>3.5</ele>
        <time>2012-07-10T12:29:57Z</time>
      </trkpt>
      <trkpt lat="49.30397" lon="1.21689">
        <ele>3.7</ele>
        <time>2012-07-10T12:30:11Z</time>
      </trkpt>
      <trkpt lat="49.30391" lon="1.2168">
        <ele>4.1</ele>
        <time>2012-07-10T12:30:18Z</time>
      </trkpt>
      <trkpt lat="49.30386" lon="1.21671">
        <ele>3.9</ele>
        <time>2012-07-10T12:30:25Z</time>
      </trkpt>
      <trkpt lat="49.3038" lon="1.21662">
        <ele>3.9</ele>
        <time>2012-07-10T12:30:32Z</time>
      </trkpt>
      <trkpt lat="49.30375" lon="1.21654">
        <ele>4</ele>
        <time>2012-07-10T12:30:39Z</time>
      </trkpt>
      <trkpt lat="49.30369" lon="1.21644">
        <ele>4.3</ele>
        <time>2012-07-10T12:30:46Z</time>
      </trkpt>
      <trkpt lat="49.30363" lon="1.21635">
        <ele>5</ele>
        <time>2012-07-10T12:30:53Z</time>
      </trkpt>
      <trkpt lat="49.30357" lon="1.21626">
        <ele>4.9</ele>
        <time>2012-07-10T12:31:00Z</time>
      </trkpt>
      <trkpt lat="49.30356" lon="1.21624">
        <ele>4.6</ele>
        <time>2012-07-10T12:31:01Z</time>
      </trkpt>
      <trkpt lat="49.30346" lon="1.21606">
        <ele>4</ele>
        <time>2012-07-10T12:31:14Z</time>
      </trkpt>
      <trkpt lat="49.30341" lon="1.21596">
        <ele>5</ele>
        <time>2012-07-10T12:31:21Z</time>
      </trkpt>
      <trkpt lat="49.30333" lon="1.2159">
        <ele>5.5</ele>
        <time>2012-07-10T12:31:32Z</time>
      </trkpt>
      <trkpt lat="49.30324" lon="1.21591">
        <ele>6.1</ele>
        <time>2012-07-10T12:31:41Z</time>
      </trkpt>
      <trkpt lat="49.30316" lon="1.21586">
        <ele>5.5</ele>
        <time>2012-07-10T12:31:48Z</time>
      </trkpt>
      <trkpt lat="49.30312" lon="1.21576">
        <ele>4.6</ele>
        <time>2012-07-10T12:31:54Z</time>
      </trkpt>
      <trkpt lat="49.3031" lon="1.21563">
        <ele>4</ele>
        <time>2012-07-10T12:32:01Z</time>
      </trkpt>
      <trkpt lat="49.30312" lon="1.21551">
        <ele>2.2</ele>
        <time>2012-07-10T12:32:08Z</time>
      </trkpt>
      <trkpt lat="49.30311" lon="1.21549">
        <ele>2</ele>
        <time>2012-07-10T12:32:09Z</time>
      </trkpt>
      <trkpt lat="49.30305" lon="1.21528">
        <ele>2</ele>
        <time>2012-07-10T12:32:21Z</time>
      </trkpt>
      <trkpt lat="49.30301" lon="1.21516">
        <ele>1.5</ele>
        <time>2012-07-10T12:32:28Z</time>
      </trkpt>
      <trkpt lat="49.30296" lon="1.21506">
        <ele>1.2</ele>
        <time>2012-07-10T12:32:35Z</time>
      </trkpt>
      <trkpt lat="49.30291" lon="1.21497">
        <ele>1.2</ele>
        <time>2012-07-10T12:32:42Z</time>
      </trkpt>
      <trkpt lat="49.30284" lon="1.21489">
        <ele>0.6</ele>
        <time>2012-07-10T12:32:49Z</time>
      </trkpt>
      <trkpt lat="49.30278" lon="1.21481">
        <ele>0.3</ele>
        <time>2012-07-10T12:32:56Z</time>
      </trkpt>
      <trkpt lat="49.30271" lon="1.21474">
        <ele>1.2</ele>
        <time>2012-07-10T12:33:04Z</time>
      </trkpt>
      <trkpt lat="49.30264" lon="1.21468">
        <ele>2.2</ele>
        <time>2012-07-10T12:33:12Z</time>
      </trkpt>
      <trkpt lat="49.30262" lon="1.21467">
        <ele>2.2</ele>
        <time>2012-07-10T12:33:13Z</time>
      </trkpt>
      <trkpt lat="49.30248" lon="1.21462">
        <ele>3.5</ele>
        <time>2012-07-10T12:33:26Z</time>
      </trkpt>
      <trkpt lat="49.3024" lon="1.21463">
        <ele>3.7</ele>
        <time>2012-07-10T12:33:34Z</time>
      </trkpt>
      <trkpt lat="49.30232" lon="1.21466">
        <ele>5.3</ele>
        <time>2012-07-10T12:33:42Z</time>
      </trkpt>
      <trkpt lat="49.30223" lon="1.21467">
        <ele>5</ele>
        <time>2012-07-10T12:33:49Z</time>
      </trkpt>
      <trkpt lat="49.30215" lon="1.21466">
        <ele>5</ele>
        <time>2012-07-10T12:33:55Z</time>
      </trkpt>
      <trkpt lat="49.30207" lon="1.21464">
        <ele>5.6</ele>
        <time>2012-07-10T12:34:04Z</time>
      </trkpt>
      <trkpt lat="49.30199" lon="1.21463">
        <ele>6</ele>
        <time>2012-07-10T12:34:10Z</time>
      </trkpt>
      <trkpt lat="49.30191" lon="1.21466">
        <ele>5.9</ele>
        <time>2012-07-10T12:34:18Z</time>
      </trkpt>
      <trkpt lat="49.3019" lon="1.21467">
        <ele>5.5</ele>
        <time>2012-07-10T12:34:19Z</time>
      </trkpt>
      <trkpt lat="49.30174" lon="1.21467">
        <ele>5.9</ele>
        <time>2012-07-10T12:34:34Z</time>
      </trkpt>
      <trkpt lat="49.30166" lon="1.21464">
        <ele>6.4</ele>
        <time>2012-07-10T12:34:41Z</time>
      </trkpt>
      <trkpt lat="49.30158" lon="1.21459">
        <ele>4.4</ele>
        <time>2012-07-10T12:34:48Z</time>
      </trkpt>
      <trkpt lat="49.30151" lon="1.21454">
        <ele>4</ele>
        <time>2012-07-10T12:34:54Z</time>
      </trkpt>
      <trkpt lat="49.30144" lon="1.21449">
        <ele>4.6</ele>
        <time>2012-07-10T12:35:00Z</time>
      </trkpt>
      <trkpt lat="49.30136" lon="1.21443">
        <ele>5.4</ele>
        <time>2012-07-10T12:35:07Z</time>
      </trkpt>
      <trkpt lat="49.30129" lon="1.21436">
        <ele>5.5</ele>
        <time>2012-07-10T12:35:14Z</time>
      </trkpt>
      <trkpt lat="49.30122" lon="1.21431">
        <ele>4.9</ele>
        <time>2012-07-10T12:35:22Z</time>
      </trkpt>
      <trkpt lat="49.3012" lon="1.21431">
        <ele>5</ele>
        <time>2012-07-10T12:35:23Z</time>
      </trkpt>
      <trkpt lat="49.30107" lon="1.21424">
        <ele>4.1</ele>
        <time>2012-07-10T12:35:36Z</time>
      </trkpt>
      <trkpt lat="49.30099" lon="1.21423">
        <ele>4.8</ele>
        <time>2012-07-10T12:35:43Z</time>
      </trkpt>
      <trkpt lat="49.30091" lon="1.21421">
        <ele>4.5</ele>
        <time>2012-07-10T12:35:55Z</time>
      </trkpt>
      <trkpt lat="49.30082" lon="1.21423">
        <ele>4</ele>
        <time>2012-07-10T12:36:02Z</time>
      </trkpt>
      <trkpt lat="49.30074" lon="1.21427">
        <ele>3.9</ele>
        <time>2012-07-10T12:36:08Z</time>
      </trkpt>
      <trkpt lat="49.30066" lon="1.21428">
        <ele>4</ele>
        <time>2012-07-10T12:36:13Z</time>
      </trkpt>
      <trkpt lat="49.30059" lon="1.21429">
        <ele>4.4</ele>
        <time>2012-07-10T12:36:18Z</time>
      </trkpt>
      <trkpt lat="49.3005" lon="1.21429">
        <ele>4</ele>
        <time>2012-07-10T12:36:25Z</time>
      </trkpt>
      <trkpt lat="49.30049" lon="1.21429">
        <ele>4</ele>
        <time>2012-07-10T12:36:26Z</time>
      </trkpt>
      <trkpt lat="49.30033" lon="1.21428">
        <ele>5.5</ele>
        <time>2012-07-10T12:36:37Z</time>
      </trkpt>
      <trkpt lat="49.30025" lon="1.21426">
        <ele>5</ele>
        <time>2012-07-10T12:36:43Z</time>
      </trkpt>
      <trkpt lat="49.30017" lon="1.21422">
        <ele>5.3</ele>
        <time>2012-07-10T12:36:50Z</time>
      </trkpt>
      <trkpt lat="49.30008" lon="1.21419">
        <ele>5</ele>
        <time>2012-07-10T12:36:57Z</time>
      </trkpt>
      <trkpt lat="49.30001" lon="1.21416">
        <ele>4.6</ele>
        <time>2012-07-10T12:37:03Z</time>
      </trkpt>
      <trkpt lat="49.29994" lon="1.21407">
        <ele>4.3</ele>
        <time>2012-07-10T12:37:11Z</time>
      </trkpt>
      <trkpt lat="49.2999" lon="1.21395">
        <ele>3.2</ele>
        <time>2012-07-10T12:37:22Z</time>
      </trkpt>
      <trkpt lat="49.29992" lon="1.21383">
        <ele>1.3</ele>
        <time>2012-07-10T12:37:31Z</time>
      </trkpt>
      <trkpt lat="49.29993" lon="1.21381">
        <ele>1.5</ele>
        <time>2012-07-10T12:37:32Z</time>
      </trkpt>
      <trkpt lat="49.29996" lon="1.21357">
        <ele>0.5</ele>
        <time>2012-07-10T12:37:44Z</time>
      </trkpt>
      <trkpt lat="49.30003" lon="1.21347">
        <ele>0.6</ele>
        <time>2012-07-10T12:37:52Z</time>
      </trkpt>
      <trkpt lat="49.3001" lon="1.2134">
        <ele>0.1</ele>
        <time>2012-07-10T12:38:00Z</time>
      </trkpt>
      <trkpt lat="49.30018" lon="1.21335">
        <ele>-0.1</ele>
        <time>2012-07-10T12:38:09Z</time>
      </trkpt>
      <trkpt lat="49.30025" lon="1.21328">
        <ele>0.3</ele>
        <time>2012-07-10T12:38:19Z</time>
      </trkpt>
      <trkpt lat="49.30033" lon="1.21324">
        <ele>0.8</ele>
        <time>2012-07-10T12:38:32Z</time>
      </trkpt>
      <trkpt lat="49.3004" lon="1.21318">
        <ele>1.2</ele>
        <time>2012-07-10T12:38:40Z</time>
      </trkpt>
      <trkpt lat="49.30041" lon="1.21317">
        <ele>1.5</ele>
        <time>2012-07-10T12:38:41Z</time>
      </trkpt>
      <trkpt lat="49.30054" lon="1.21304">
        <ele>2.7</ele>
        <time>2012-07-10T12:38:54Z</time>
      </trkpt>
      <trkpt lat="49.30062" lon="1.21299">
        <ele>3.7</ele>
        <time>2012-07-10T12:39:01Z</time>
      </trkpt>
      <trkpt lat="49.30069" lon="1.21293">
        <ele>5.3</ele>
        <time>2012-07-10T12:39:09Z</time>
      </trkpt>
      <trkpt lat="49.30076" lon="1.21286">
        <ele>5.3</ele>
        <time>2012-07-10T12:39:16Z</time>
      </trkpt>
      <trkpt lat="49.30084" lon="1.2128">
        <ele>5.9</ele>
        <time>2012-07-10T12:39:23Z</time>
      </trkpt>
      <trkpt lat="49.30091" lon="1.21273">
        <ele>7.4</ele>
        <time>2012-07-10T12:39:32Z</time>
      </trkpt>
      <trkpt lat="49.30098" lon="1.21266">
        <ele>8.3</ele>
        <time>2012-07-10T12:39:39Z</time>
      </trkpt>
      <trkpt lat="49.30105" lon="1.21258">
        <ele>9.1</ele>
        <time>2012-07-10T12:39:48Z</time>
      </trkpt>
      <trkpt lat="49.30106" lon="1.21257">
        <ele>9.3</ele>
        <time>2012-07-10T12:39:49Z</time>
      </trkpt>
      <trkpt lat="49.30117" lon="1.21239">
        <ele>9.8</ele>
        <time>2012-07-10T12:40:04Z</time>
      </trkpt>
      <trkpt lat="49.30123" lon="1.2123">
        <ele>8.8</ele>
        <time>2012-07-10T12:40:12Z</time>
      </trkpt>
      <trkpt lat="49.3013" lon="1.21223">
        <ele>9.1</ele>
        <time>2012-07-10T12:40:19Z</time>
      </trkpt>
      <trkpt lat="49.30137" lon="1.21216">
        <ele>8.1</ele>
        <time>2012-07-10T12:40:26Z</time>
      </trkpt>
      <trkpt lat="49.30143" lon="1.21208">
        <ele>8.3</ele>
        <time>2012-07-10T12:40:33Z</time>
      </trkpt>
      <trkpt lat="49.30149" lon="1.21198">
        <ele>8.3</ele>
        <time>2012-07-10T12:40:41Z</time>
      </trkpt>
      <trkpt lat="49.30155" lon="1.21189">
        <ele>7</ele>
        <time>2012-07-10T12:40:48Z</time>
      </trkpt>
      <trkpt lat="49.30161" lon="1.2118">
        <ele>7</ele>
        <time>2012-07-10T12:40:55Z</time>
      </trkpt>
      <trkpt lat="49.30162" lon="1.21179">
        <ele>7</ele>
        <time>2012-07-10T12:40:56Z</time>
      </trkpt>
      <trkpt lat="49.30171" lon="1.21158">
        <ele>5.5</ele>
        <time>2012-07-10T12:41:12Z</time>
      </trkpt>
      <trkpt lat="49.30175" lon="1.21147">
        <ele>3.7</ele>
        <time>2012-07-10T12:41:19Z</time>
      </trkpt>
      <trkpt lat="49.3018" lon="1.21135">
        <ele>2.7</ele>
        <time>2012-07-10T12:41:26Z</time>
      </trkpt>
      <trkpt lat="49.30186" lon="1.21126">
        <ele>2.2</ele>
        <time>2012-07-10T12:41:32Z</time>
      </trkpt>
      <trkpt lat="49.30193" lon="1.21119">
        <ele>1.7</ele>
        <time>2012-07-10T12:41:39Z</time>
      </trkpt>
      <trkpt lat="49.30202" lon="1.21119">
        <ele>2.4</ele>
        <time>2012-07-10T12:41:47Z</time>
      </trkpt>
      <trkpt lat="49.3021" lon="1.2112">
        <ele>3.2</ele>
        <time>2012-07-10T12:41:55Z</time>
      </trkpt>
      <trkpt lat="49.30217" lon="1.21113">
        <ele>2.9</ele>
        <time>2012-07-10T12:42:02Z</time>
      </trkpt>
      <trkpt lat="49.30218" lon="1.21111">
        <ele>3</ele>
        <time>2012-07-10T12:42:03Z</time>
      </trkpt>
      <trkpt lat="49.30231" lon="1.21098">
        <ele>3.5</ele>
        <time>2012-07-10T12:42:16Z</time>
      </trkpt>
      <trkpt lat="49.30237" lon="1.21088">
        <ele>3.2</ele>
        <time>2012-07-10T12:42:23Z</time>
      </trkpt>
      <trkpt lat="49.30243" lon="1.21079">
        <ele>3.9</ele>
        <time>2012-07-10T12:42:30Z</time>
      </trkpt>
      <trkpt lat="49.30249" lon="1.21069">
        <ele>3.5</ele>
        <time>2012-07-10T12:42:37Z</time>
      </trkpt>
      <trkpt lat="49.30253" lon="1.21057">
        <ele>3.5</ele>
        <time>2012-07-10T12:42:44Z</time>
      </trkpt>
      <trkpt lat="49.30256" lon="1.21044">
        <ele>3</ele>
        <time>2012-07-10T12:42:52Z</time>
      </trkpt>
      <trkpt lat="49.30258" lon="1.21031">
        <ele>2.5</ele>
        <time>2012-07-10T12:42:59Z</time>
      </trkpt>
      <trkpt lat="49.3026" lon="1.21019">
        <ele>2.4</ele>
        <time>2012-07-10T12:43:06Z</time>
      </trkpt>
      <trkpt lat="49.3026" lon="1.21017">
        <ele>2.4</ele>
        <time>2012-07-10T12:43:07Z</time>
      </trkpt>
      <trkpt lat="49.30261" lon="1.20993">
        <ele>1.6</ele>
        <time>2012-07-10T12:43:21Z</time>
      </trkpt>
      <trkpt lat="49.30262" lon="1.2098">
        <ele>1.2</ele>
        <time>2012-07-10T12:43:30Z</time>
      </trkpt>
      <trkpt lat="49.30268" lon="1.20969">
        <ele>0.6</ele>
        <time>2012-07-10T12:43:40Z</time>
      </trkpt>
      <trkpt lat="49.30273" lon="1.20961">
        <ele>0.6</ele>
        <time>2012-07-10T12:43:47Z</time>
      </trkpt>
      <trkpt lat="49.30275" lon="1.20947">
        <ele>-0.3</ele>
        <time>2012-07-10T12:43:58Z</time>
      </trkpt>
      <trkpt lat="49.30267" lon="1.2095">
        <ele>1.1</ele>
        <time>2012-07-10T12:47:29Z</time>
      </trkpt>
      <trkpt lat="49.30266" lon="1.20951">
        <ele>0.6</ele>
        <time>2012-07-10T12:47:30Z</time>
      </trkpt>
      <trkpt lat="49.30257" lon="1.20931">
        <ele>-1.3</ele>
        <time>2012-07-10T12:47:59Z</time>
      </trkpt>
      <trkpt lat="49.30253" lon="1.2092">
        <ele>-1.3</ele>
        <time>2012-07-10T12:48:05Z</time>
      </trkpt>
      <trkpt lat="49.30248" lon="1.20909">
        <ele>-2.5</ele>
        <time>2012-07-10T12:48:12Z</time>
      </trkpt>
      <trkpt lat="49.30243" lon="1.20899">
        <ele>-3.2</ele>
        <time>2012-07-10T12:48:20Z</time>
      </trkpt>
      <trkpt lat="49.30235" lon="1.20898">
        <ele>-2.7</ele>
        <time>2012-07-10T12:48:28Z</time>
      </trkpt>
      <trkpt lat="49.30227" lon="1.20894">
        <ele>-2.7</ele>
        <time>2012-07-10T12:48:39Z</time>
      </trkpt>
      <trkpt lat="49.30226" lon="1.20893">
        <ele>-2.5</ele>
        <time>2012-07-10T12:48:40Z</time>
      </trkpt>
      <trkpt lat="49.30226" lon="1.20868">
        <ele>-1.8</ele>
        <time>2012-07-10T12:48:54Z</time>
      </trkpt>
      <trkpt lat="49.30224" lon="1.20855">
        <ele>-2</ele>
        <time>2012-07-10T12:49:01Z</time>
      </trkpt>
      <trkpt lat="49.30218" lon="1.20845">
        <ele>-2.7</ele>
        <time>2012-07-10T12:49:08Z</time>
      </trkpt>
      <trkpt lat="49.30211" lon="1.20839">
        <ele>-1.7</ele>
        <time>2012-07-10T12:49:14Z</time>
      </trkpt>
      <trkpt lat="49.30203" lon="1.20835">
        <ele>-1.2</ele>
        <time>2012-07-10T12:49:27Z</time>
      </trkpt>
      <trkpt lat="49.30195" lon="1.20832">
        <ele>-0.8</ele>
        <time>2012-07-10T12:49:35Z</time>
      </trkpt>
      <trkpt lat="49.30189" lon="1.20824">
        <ele>-1.2</ele>
        <time>2012-07-10T12:49:42Z</time>
      </trkpt>
      <trkpt lat="49.30188" lon="1.20823">
        <ele>-0.8</ele>
        <time>2012-07-10T12:49:43Z</time>
      </trkpt>
      <trkpt lat="49.30184" lon="1.20799">
        <ele>-1.3</ele>
        <time>2012-07-10T12:49:57Z</time>
      </trkpt>
      <trkpt lat="49.30177" lon="1.20794">
        <ele>-1</ele>
        <time>2012-07-10T12:50:05Z</time>
      </trkpt>
      <trkpt lat="49.30168" lon="1.20794">
        <ele>-1.2</ele>
        <time>2012-07-10T12:50:16Z</time>
      </trkpt>
      <trkpt lat="49.3016" lon="1.20795">
        <ele>-0.1</ele>
        <time>2012-07-10T12:50:23Z</time>
      </trkpt>
      <trkpt lat="49.30152" lon="1.20798">
        <ele>-0.4</ele>
        <time>2012-07-10T12:50:31Z</time>
      </trkpt>
      <trkpt lat="49.30144" lon="1.20802">
        <ele>-0.8</ele>
        <time>2012-07-10T12:50:38Z</time>
      </trkpt>
      <trkpt lat="49.30136" lon="1.20809">
        <ele>-1.7</ele>
        <time>2012-07-10T12:50:46Z</time>
      </trkpt>
      <trkpt lat="49.30136" lon="1.2081">
        <ele>-1.7</ele>
        <time>2012-07-10T12:50:47Z</time>
      </trkpt>
      <trkpt lat="49.30124" lon="1.20826">
        <ele>-2</ele>
        <time>2012-07-10T12:51:01Z</time>
      </trkpt>
      <trkpt lat="49.30117" lon="1.20835">
        <ele>-3</ele>
        <time>2012-07-10T12:51:09Z</time>
      </trkpt>
      <trkpt lat="49.30112" lon="1.20846">
        <ele>-3</ele>
        <time>2012-07-10T12:51:16Z</time>
      </trkpt>
      <trkpt lat="49.30107" lon="1.20855">
        <ele>-2.9</ele>
        <time>2012-07-10T12:51:23Z</time>
      </trkpt>
      <trkpt lat="49.30103" lon="1.20866">
        <ele>-2.2</ele>
        <time>2012-07-10T12:51:30Z</time>
      </trkpt>
      <trkpt lat="49.30096" lon="1.20875">
        <ele>-2.2</ele>
        <time>2012-07-10T12:51:38Z</time>
      </trkpt>
      <trkpt lat="49.3009" lon="1.20884">
        <ele>-1.6</ele>
        <time>2012-07-10T12:51:46Z</time>
      </trkpt>
      <trkpt lat="49.30082" lon="1.20888">
        <ele>-1</ele>
        <time>2012-07-10T12:51:54Z</time>
      </trkpt>
      <trkpt lat="49.30081" lon="1.20888">
        <ele>-0.8</ele>
        <time>2012-07-10T12:51:55Z</time>
      </trkpt>
      <trkpt lat="49.30064" lon="1.20889">
        <ele>-0.6</ele>
        <time>2012-07-10T12:52:12Z</time>
      </trkpt>
      <trkpt lat="49.30057" lon="1.20891">
        <ele>-1.1</ele>
        <time>2012-07-10T12:52:18Z</time>
      </trkpt>
      <trkpt lat="49.30048" lon="1.20893">
        <ele>-0.8</ele>
        <time>2012-07-10T12:52:25Z</time>
      </trkpt>
      <trkpt lat="49.3004" lon="1.20895">
        <ele>-1.2</ele>
        <time>2012-07-10T12:52:33Z</time>
      </trkpt>
      <trkpt lat="49.30031" lon="1.20897">
        <ele>-0.5</ele>
        <time>2012-07-10T12:52:45Z</time>
      </trkpt>
      <trkpt lat="49.30023" lon="1.209">
        <ele>0.2</ele>
        <time>2012-07-10T12:52:52Z</time>
      </trkpt>
      <trkpt lat="49.30015" lon="1.20904">
        <ele>0.6</ele>
        <time>2012-07-10T12:52:58Z</time>
      </trkpt>
      <trkpt lat="49.30013" lon="1.20905">
        <ele>0.5</ele>
        <time>2012-07-10T12:52:59Z</time>
      </trkpt>
      <trkpt lat="49.29999" lon="1.20913">
        <ele>1.1</ele>
        <time>2012-07-10T12:53:12Z</time>
      </trkpt>
      <trkpt lat="49.29991" lon="1.20917">
        <ele>2.5</ele>
        <time>2012-07-10T12:53:23Z</time>
      </trkpt>
      <trkpt lat="49.29982" lon="1.2092">
        <ele>2.7</ele>
        <time>2012-07-10T12:53:33Z</time>
      </trkpt>
      <trkpt lat="49.29974" lon="1.20921">
        <ele>2.7</ele>
        <time>2012-07-10T12:53:40Z</time>
      </trkpt>
      <trkpt lat="49.29966" lon="1.20924">
        <ele>2.2</ele>
        <time>2012-07-10T12:53:47Z</time>
      </trkpt>
      <trkpt lat="49.29959" lon="1.20929">
        <ele>2.2</ele>
        <time>2012-07-10T12:53:53Z</time>
      </trkpt>
      <trkpt lat="49.29951" lon="1.20932">
        <ele>2.2</ele>
        <time>2012-07-10T12:54:01Z</time>
      </trkpt>
      <trkpt lat="49.2995" lon="1.20933">
        <ele>2.5</ele>
        <time>2012-07-10T12:54:02Z</time>
      </trkpt>
      <trkpt lat="49.29935" lon="1.2094">
        <ele>2.7</ele>
        <time>2012-07-10T12:54:15Z</time>
      </trkpt>
      <trkpt lat="49.29927" lon="1.20945">
        <ele>3.2</ele>
        <time>2012-07-10T12:54:20Z</time>
      </trkpt>
      <trkpt lat="49.29919" lon="1.20951">
        <ele>3.4</ele>
        <time>2012-07-10T12:54:28Z</time>
      </trkpt>
      <trkpt lat="49.29911" lon="1.20954">
        <ele>3.2</ele>
        <time>2012-07-10T12:54:35Z</time>
      </trkpt>
      <trkpt lat="49.29903" lon="1.20959">
        <ele>3.5</ele>
        <time>2012-07-10T12:54:41Z</time>
      </trkpt>
      <trkpt lat="49.29896" lon="1.20963">
        <ele>3.7</ele>
        <time>2012-07-10T12:54:46Z</time>
      </trkpt>
      <trkpt lat="49.29888" lon="1.20969">
        <ele>3.7</ele>
        <time>2012-07-10T12:54:52Z</time>
      </trkpt>
      <trkpt lat="49.29881" lon="1.20975">
        <ele>3.4</ele>
        <time>2012-07-10T12:54:58Z</time>
      </trkpt>
      <trkpt lat="49.29874" lon="1.20982">
        <ele>3</ele>
        <time>2012-07-10T12:55:05Z</time>
      </trkpt>
      <trkpt lat="49.29872" lon="1.20983">
        <ele>3</ele>
        <time>2012-07-10T12:55:06Z</time>
      </trkpt>
      <trkpt lat="49.29857" lon="1.20989">
        <ele>3.7</ele>
        <time>2012-07-10T12:55:22Z</time>
      </trkpt>
      <trkpt lat="49.29849" lon="1.20991">
        <ele>3.2</ele>
        <time>2012-07-10T12:55:27Z</time>
      </trkpt>
      <trkpt lat="49.29842" lon="1.20997">
        <ele>2.5</ele>
        <time>2012-07-10T12:55:33Z</time>
      </trkpt>
      <trkpt lat="49.29835" lon="1.21002">
        <ele>2.7</ele>
        <time>2012-07-10T12:55:39Z</time>
      </trkpt>
      <trkpt lat="49.29828" lon="1.21008">
        <ele>2.4</ele>
        <time>2012-07-10T12:55:45Z</time>
      </trkpt>
      <trkpt lat="49.2982" lon="1.21013">
        <ele>2.2</ele>
        <time>2012-07-10T12:55:51Z</time>
      </trkpt>
      <trkpt lat="49.29813" lon="1.21019">
        <ele>3.2</ele>
        <time>2012-07-10T12:55:59Z</time>
      </trkpt>
      <trkpt lat="49.29805" lon="1.21026">
        <ele>3.5</ele>
        <time>2012-07-10T12:56:06Z</time>
      </trkpt>
      <trkpt lat="49.29797" lon="1.21034">
        <ele>3.4</ele>
        <time>2012-07-10T12:56:13Z</time>
      </trkpt>
      <trkpt lat="49.29796" lon="1.21034">
        <ele>3</ele>
        <time>2012-07-10T12:56:14Z</time>
      </trkpt>
      <trkpt lat="49.29782" lon="1.21042">
        <ele>4.5</ele>
        <time>2012-07-10T12:56:27Z</time>
      </trkpt>
      <trkpt lat="49.29775" lon="1.21048">
        <ele>4.5</ele>
        <time>2012-07-10T12:56:44Z</time>
      </trkpt>
      <trkpt lat="49.29768" lon="1.21056">
        <ele>4.6</ele>
        <time>2012-07-10T12:56:53Z</time>
      </trkpt>
      <trkpt lat="49.29759" lon="1.21058">
        <ele>5</ele>
        <time>2012-07-10T12:57:05Z</time>
      </trkpt>
      <trkpt lat="49.29752" lon="1.2106">
        <ele>4.1</ele>
        <time>2012-07-10T12:57:10Z</time>
      </trkpt>
      <trkpt lat="49.29744" lon="1.21061">
        <ele>3</ele>
        <time>2012-07-10T12:57:16Z</time>
      </trkpt>
      <trkpt lat="49.29742" lon="1.21062">
        <ele>2.9</ele>
        <time>2012-07-10T12:57:17Z</time>
      </trkpt>
      <trkpt lat="49.29727" lon="1.21062">
        <ele>2.2</ele>
        <time>2012-07-10T12:57:29Z</time>
      </trkpt>
      <trkpt lat="49.29719" lon="1.21062">
        <ele>2.2</ele>
        <time>2012-07-10T12:57:37Z</time>
      </trkpt>
      <trkpt lat="49.29711" lon="1.21058">
        <ele>2.5</ele>
        <time>2012-07-10T12:57:44Z</time>
      </trkpt>
      <trkpt lat="49.29703" lon="1.21056">
        <ele>3.4</ele>
        <time>2012-07-10T12:57:50Z</time>
      </trkpt>
      <trkpt lat="49.29695" lon="1.21058">
        <ele>3</ele>
        <time>2012-07-10T12:57:58Z</time>
      </trkpt>
      <trkpt lat="49.29687" lon="1.21053">
        <ele>4</ele>
        <time>2012-07-10T12:58:10Z</time>
      </trkpt>
      <trkpt lat="49.29682" lon="1.21042">
        <ele>4.8</ele>
        <time>2012-07-10T12:58:21Z</time>
      </trkpt>
      <trkpt lat="49.29681" lon="1.2104">
        <ele>5</ele>
        <time>2012-07-10T12:58:22Z</time>
      </trkpt>
      <trkpt lat="49.29669" lon="1.21025">
        <ele>7</ele>
        <time>2012-07-10T12:58:39Z</time>
      </trkpt>
      <trkpt lat="49.29662" lon="1.2102">
        <ele>7.4</ele>
        <time>2012-07-10T12:58:48Z</time>
      </trkpt>
      <trkpt lat="49.29655" lon="1.21015">
        <ele>7.1</ele>
        <time>2012-07-10T12:58:54Z</time>
      </trkpt>
      <trkpt lat="49.29647" lon="1.21014">
        <ele>7</ele>
        <time>2012-07-10T12:59:00Z</time>
      </trkpt>
      <trkpt lat="49.29638" lon="1.21015">
        <ele>5.5</ele>
        <time>2012-07-10T12:59:06Z</time>
      </trkpt>
      <trkpt lat="49.2963" lon="1.21018">
        <ele>4.9</ele>
        <time>2012-07-10T12:59:13Z</time>
      </trkpt>
      <trkpt lat="49.29622" lon="1.21021">
        <ele>5.5</ele>
        <time>2012-07-10T12:59:19Z</time>
      </trkpt>
      <trkpt lat="49.29614" lon="1.21027">
        <ele>4.4</ele>
        <time>2012-07-10T12:59:26Z</time>
      </trkpt>
      <trkpt lat="49.29613" lon="1.21028">
        <ele>4.1</ele>
        <time>2012-07-10T12:59:27Z</time>
      </trkpt>
      <trkpt lat="49.29599" lon="1.21039">
        <ele>5.5</ele>
        <time>2012-07-10T12:59:50Z</time>
      </trkpt>
      <trkpt lat="49.29592" lon="1.21046">
        <ele>6.5</ele>
        <time>2012-07-10T12:59:58Z</time>
      </trkpt>
      <trkpt lat="49.29585" lon="1.21054">
        <ele>6.9</ele>
        <time>2012-07-10T13:00:06Z</time>
      </trkpt>
      <trkpt lat="49.29579" lon="1.21063">
        <ele>8.3</ele>
        <time>2012-07-10T13:00:13Z</time>
      </trkpt>
      <trkpt lat="49.29574" lon="1.21073">
        <ele>9.8</ele>
        <time>2012-07-10T13:00:22Z</time>
      </trkpt>
      <trkpt lat="49.2957" lon="1.21083">
        <ele>10.8</ele>
        <time>2012-07-10T13:00:28Z</time>
      </trkpt>
      <trkpt lat="49.29569" lon="1.21085">
        <ele>11.1</ele>
        <time>2012-07-10T13:00:29Z</time>
      </trkpt>
      <trkpt lat="49.29559" lon="1.21101">
        <ele>10.8</ele>
        <time>2012-07-10T13:00:40Z</time>
      </trkpt>
      <trkpt lat="49.29553" lon="1.21111">
        <ele>11.6</ele>
        <time>2012-07-10T13:00:48Z</time>
      </trkpt>
      <trkpt lat="49.29547" lon="1.21119">
        <ele>11.6</ele>
        <time>2012-07-10T13:00:59Z</time>
      </trkpt>
      <trkpt lat="49.29541" lon="1.21126">
        <ele>11.3</ele>
        <time>2012-07-10T13:01:06Z</time>
      </trkpt>
      <trkpt lat="49.29534" lon="1.21133">
        <ele>11.3</ele>
        <time>2012-07-10T13:01:12Z</time>
      </trkpt>
      <trkpt lat="49.29527" lon="1.21142">
        <ele>10.1</ele>
        <time>2012-07-10T13:01:19Z</time>
      </trkpt>
      <trkpt lat="49.2952" lon="1.2115">
        <ele>8.8</ele>
        <time>2012-07-10T13:01:25Z</time>
      </trkpt>
      <trkpt lat="49.29513" lon="1.21156">
        <ele>7.3</ele>
        <time>2012-07-10T13:01:32Z</time>
      </trkpt>
      <trkpt lat="49.29512" lon="1.21156">
        <ele>6.6</ele>
        <time>2012-07-10T13:01:33Z</time>
      </trkpt>
      <trkpt lat="49.29499" lon="1.21168">
        <ele>5.4</ele>
        <time>2012-07-10T13:01:48Z</time>
      </trkpt>
      <trkpt lat="49.29491" lon="1.21173">
        <ele>5.8</ele>
        <time>2012-07-10T13:01:53Z</time>
      </trkpt>
      <trkpt lat="49.29484" lon="1.21178">
        <ele>5.5</ele>
        <time>2012-07-10T13:02:00Z</time>
      </trkpt>
      <trkpt lat="49.29478" lon="1.21185">
        <ele>6.4</ele>
        <time>2012-07-10T13:02:06Z</time>
      </trkpt>
      <trkpt lat="49.29471" lon="1.21191">
        <ele>7.6</ele>
        <time>2012-07-10T13:02:12Z</time>
      </trkpt>
      <trkpt lat="49.29464" lon="1.21199">
        <ele>8.1</ele>
        <time>2012-07-10T13:02:18Z</time>
      </trkpt>
      <trkpt lat="49.29457" lon="1.21207">
        <ele>8.5</ele>
        <time>2012-07-10T13:02:24Z</time>
      </trkpt>
      <trkpt lat="49.29449" lon="1.21213">
        <ele>8.1</ele>
        <time>2012-07-10T13:02:30Z</time>
      </trkpt>
      <trkpt lat="49.29441" lon="1.21218">
        <ele>8.3</ele>
        <time>2012-07-10T13:02:36Z</time>
      </trkpt>
      <trkpt lat="49.2944" lon="1.21219">
        <ele>8.6</ele>
        <time>2012-07-10T13:02:37Z</time>
      </trkpt>
      <trkpt lat="49.29427" lon="1.2123">
        <ele>8.6</ele>
        <time>2012-07-10T13:02:49Z</time>
      </trkpt>
      <trkpt lat="49.29418" lon="1.21234">
        <ele>9.3</ele>
        <time>2012-07-10T13:02:59Z</time>
      </trkpt>
      <trkpt lat="49.29411" lon="1.21239">
        <ele>8.6</ele>
        <time>2012-07-10T13:03:05Z</time>
      </trkpt>
      <trkpt lat="49.29403" lon="1.21244">
        <ele>7.5</ele>
        <time>2012-07-10T13:03:11Z</time>
      </trkpt>
      <trkpt lat="49.29395" lon="1.21249">
        <ele>6.9</ele>
        <time>2012-07-10T13:03:17Z</time>
      </trkpt>
      <trkpt lat="49.29388" lon="1.21256">
        <ele>6.4</ele>
        <time>2012-07-10T13:03:23Z</time>
      </trkpt>
      <trkpt lat="49.2938" lon="1.21262">
        <ele>5.5</ele>
        <time>2012-07-10T13:03:30Z</time>
      </trkpt>
      <trkpt lat="49.29372" lon="1.21268">
        <ele>3.5</ele>
        <time>2012-07-10T13:03:37Z</time>
      </trkpt>
      <trkpt lat="49.29366" lon="1.21273">
        <ele>2.4</ele>
        <time>2012-07-10T13:03:43Z</time>
      </trkpt>
      <trkpt lat="49.29364" lon="1.21274">
        <ele>2.5</ele>
        <time>2012-07-10T13:03:44Z</time>
      </trkpt>
      <trkpt lat="49.2935" lon="1.21285">
        <ele>1.2</ele>
        <time>2012-07-10T13:03:57Z</time>
      </trkpt>
      <trkpt lat="49.29343" lon="1.21291">
        <ele>1.2</ele>
        <time>2012-07-10T13:04:02Z</time>
      </trkpt>
      <trkpt lat="49.29335" lon="1.21296">
        <ele>1.6</ele>
        <time>2012-07-10T13:04:09Z</time>
      </trkpt>
      <trkpt lat="49.29328" lon="1.21302">
        <ele>0.6</ele>
        <time>2012-07-10T13:04:18Z</time>
      </trkpt>
      <trkpt lat="49.29321" lon="1.21307">
        <ele>1</ele>
        <time>2012-07-10T13:04:24Z</time>
      </trkpt>
      <trkpt lat="49.29314" lon="1.21313">
        <ele>0.6</ele>
        <time>2012-07-10T13:04:31Z</time>
      </trkpt>
      <trkpt lat="49.29307" lon="1.21319">
        <ele>1.2</ele>
        <time>2012-07-10T13:04:37Z</time>
      </trkpt>
      <trkpt lat="49.293" lon="1.21325">
        <ele>1.6</ele>
        <time>2012-07-10T13:04:44Z</time>
      </trkpt>
      <trkpt lat="49.29293" lon="1.21328">
        <ele>0.3</ele>
        <time>2012-07-10T13:04:49Z</time>
      </trkpt>
      <trkpt lat="49.29292" lon="1.21329">
        <ele>0.3</ele>
        <time>2012-07-10T13:04:50Z</time>
      </trkpt>
      <trkpt lat="49.29278" lon="1.21339">
        <ele>0.5</ele>
        <time>2012-07-10T13:05:01Z</time>
      </trkpt>
      <trkpt lat="49.29271" lon="1.21347">
        <ele>1.3</ele>
        <time>2012-07-10T13:05:09Z</time>
      </trkpt>
      <trkpt lat="49.29263" lon="1.21353">
        <ele>0.4</ele>
        <time>2012-07-10T13:05:15Z</time>
      </trkpt>
      <trkpt lat="49.29257" lon="1.21359">
        <ele>6.8</ele>
        <time>2012-07-10T13:05:20Z</time>
      </trkpt>
      <trkpt lat="49.2925" lon="1.21365">
        <ele>0.6</ele>
        <time>2012-07-10T13:05:26Z</time>
      </trkpt>
      <trkpt lat="49.29243" lon="1.2137">
        <ele>0.2</ele>
        <time>2012-07-10T13:05:32Z</time>
      </trkpt>
      <trkpt lat="49.29236" lon="1.21376">
        <ele>-1.1</ele>
        <time>2012-07-10T13:05:38Z</time>
      </trkpt>
      <trkpt lat="49.29229" lon="1.21383">
        <ele>-1.2</ele>
        <time>2012-07-10T13:05:45Z</time>
      </trkpt>
      <trkpt lat="49.29223" lon="1.21391">
        <ele>-1.5</ele>
        <time>2012-07-10T13:05:51Z</time>
      </trkpt>
      <trkpt lat="49.29222" lon="1.21393">
        <ele>-1.5</ele>
        <time>2012-07-10T13:05:52Z</time>
      </trkpt>
      <trkpt lat="49.29209" lon="1.21407">
        <ele>-0.8</ele>
        <time>2012-07-10T13:06:05Z</time>
      </trkpt>
      <trkpt lat="49.29202" lon="1.21415">
        <ele>-0.3</ele>
        <time>2012-07-10T13:06:23Z</time>
      </trkpt>
      <trkpt lat="49.29193" lon="1.21414">
        <ele>3</ele>
        <time>2012-07-10T13:11:46Z</time>
      </trkpt>
      <trkpt lat="49.29193" lon="1.21415">
        <ele>3.2</ele>
        <time>2012-07-10T13:11:47Z</time>
      </trkpt>
      <trkpt lat="49.29189" lon="1.21426">
        <ele>4.5</ele>
        <time>2012-07-10T13:13:01Z</time>
      </trkpt>
      <trkpt lat="49.29176" lon="1.21441">
        <ele>2.5</ele>
        <time>2012-07-10T13:13:15Z</time>
      </trkpt>
      <trkpt lat="49.29168" lon="1.21449">
        <ele>3.2</ele>
        <time>2012-07-10T13:13:22Z</time>
      </trkpt>
      <trkpt lat="49.29161" lon="1.21454">
        <ele>3.2</ele>
        <time>2012-07-10T13:13:29Z</time>
      </trkpt>
      <trkpt lat="49.29154" lon="1.21462">
        <ele>3</ele>
        <time>2012-07-10T13:13:37Z</time>
      </trkpt>
      <trkpt lat="49.29147" lon="1.2147">
        <ele>3</ele>
        <time>2012-07-10T13:13:44Z</time>
      </trkpt>
      <trkpt lat="49.29139" lon="1.21476">
        <ele>3.5</ele>
        <time>2012-07-10T13:13:51Z</time>
      </trkpt>
      <trkpt lat="49.29131" lon="1.21483">
        <ele>4.5</ele>
        <time>2012-07-10T13:13:57Z</time>
      </trkpt>
      <trkpt lat="49.29124" lon="1.2149">
        <ele>4.1</ele>
        <time>2012-07-10T13:14:03Z</time>
      </trkpt>
      <trkpt lat="49.29123" lon="1.21492">
        <ele>4</ele>
        <time>2012-07-10T13:14:04Z</time>
      </trkpt>
      <trkpt lat="49.2911" lon="1.21507">
        <ele>4</ele>
        <time>2012-07-10T13:14:16Z</time>
      </trkpt>
      <trkpt lat="49.29104" lon="1.21515">
        <ele>4.3</ele>
        <time>2012-07-10T13:14:22Z</time>
      </trkpt>
      <trkpt lat="49.29099" lon="1.21524">
        <ele>3.5</ele>
        <time>2012-07-10T13:14:28Z</time>
      </trkpt>
      <trkpt lat="49.29093" lon="1.21533">
        <ele>2.9</ele>
        <time>2012-07-10T13:14:34Z</time>
      </trkpt>
      <trkpt lat="49.29087" lon="1.21543">
        <ele>2.2</ele>
        <time>2012-07-10T13:14:41Z</time>
      </trkpt>
      <trkpt lat="49.29082" lon="1.21553">
        <ele>3.2</ele>
        <time>2012-07-10T13:14:48Z</time>
      </trkpt>
      <trkpt lat="49.29075" lon="1.21563">
        <ele>3.7</ele>
        <time>2012-07-10T13:14:55Z</time>
      </trkpt>
      <trkpt lat="49.29071" lon="1.21573">
        <ele>3.9</ele>
        <time>2012-07-10T13:15:01Z</time>
      </trkpt>
      <trkpt lat="49.29067" lon="1.21584">
        <ele>4.8</ele>
        <time>2012-07-10T13:15:07Z</time>
      </trkpt>
      <trkpt lat="49.29066" lon="1.21586">
        <ele>4.5</ele>
        <time>2012-07-10T13:15:08Z</time>
      </trkpt>
      <trkpt lat="49.29057" lon="1.21604">
        <ele>4.1</ele>
        <time>2012-07-10T13:15:19Z</time>
      </trkpt>
      <trkpt lat="49.29052" lon="1.21615">
        <ele>4</ele>
        <time>2012-07-10T13:15:25Z</time>
      </trkpt>
      <trkpt lat="49.29048" lon="1.21624">
        <ele>4.6</ele>
        <time>2012-07-10T13:15:31Z</time>
      </trkpt>
      <trkpt lat="49.29043" lon="1.21634">
        <ele>4.5</ele>
        <time>2012-07-10T13:15:37Z</time>
      </trkpt>
      <trkpt lat="49.29038" lon="1.21645">
        <ele>5</ele>
        <time>2012-07-10T13:15:44Z</time>
      </trkpt>
      <trkpt lat="49.29034" lon="1.21657">
        <ele>4.8</ele>
        <time>2012-07-10T13:15:51Z</time>
      </trkpt>
      <trkpt lat="49.29025" lon="1.21659">
        <ele>2.7</ele>
        <time>2012-07-10T13:16:03Z</time>
      </trkpt>
      <trkpt lat="49.29019" lon="1.21653">
        <ele>2.5</ele>
        <time>2012-07-10T13:16:16Z</time>
      </trkpt>
      <trkpt lat="49.29017" lon="1.21652">
        <ele>2.5</ele>
        <time>2012-07-10T13:16:17Z</time>
      </trkpt>
      <trkpt lat="49.2901" lon="1.21633">
        <ele>3.2</ele>
        <time>2012-07-10T13:16:28Z</time>
      </trkpt>
      <trkpt lat="49.29005" lon="1.21622">
        <ele>3</ele>
        <time>2012-07-10T13:16:35Z</time>
      </trkpt>
      <trkpt lat="49.29" lon="1.21612">
        <ele>3.2</ele>
        <time>2012-07-10T13:16:41Z</time>
      </trkpt>
      <trkpt lat="49.28996" lon="1.216">
        <ele>3.2</ele>
        <time>2012-07-10T13:16:47Z</time>
      </trkpt>
      <trkpt lat="49.28991" lon="1.21589">
        <ele>3.4</ele>
        <time>2012-07-10T13:16:53Z</time>
      </trkpt>
      <trkpt lat="49.28986" lon="1.21579">
        <ele>3.7</ele>
        <time>2012-07-10T13:16:59Z</time>
      </trkpt>
      <trkpt lat="49.28981" lon="1.21568">
        <ele>4.9</ele>
        <time>2012-07-10T13:17:06Z</time>
      </trkpt>
      <trkpt lat="49.28977" lon="1.21558">
        <ele>4.5</ele>
        <time>2012-07-10T13:17:12Z</time>
      </trkpt>
      <trkpt lat="49.28973" lon="1.21547">
        <ele>4.8</ele>
        <time>2012-07-10T13:17:18Z</time>
      </trkpt>
      <trkpt lat="49.28973" lon="1.21545">
        <ele>4.9</ele>
        <time>2012-07-10T13:17:19Z</time>
      </trkpt>
      <trkpt lat="49.28965" lon="1.21525">
        <ele>4.5</ele>
        <time>2012-07-10T13:17:30Z</time>
      </trkpt>
      <trkpt lat="49.28961" lon="1.21513">
        <ele>4</ele>
        <time>2012-07-10T13:17:36Z</time>
      </trkpt>
      <trkpt lat="49.28957" lon="1.21503">
        <ele>4</ele>
        <time>2012-07-10T13:17:42Z</time>
      </trkpt>
      <trkpt lat="49.28954" lon="1.21491">
        <ele>4.6</ele>
        <time>2012-07-10T13:17:48Z</time>
      </trkpt>
      <trkpt lat="49.2895" lon="1.2148">
        <ele>4.8</ele>
        <time>2012-07-10T13:17:54Z</time>
      </trkpt>
      <trkpt lat="49.28945" lon="1.21471">
        <ele>5.1</ele>
        <time>2012-07-10T13:18:00Z</time>
      </trkpt>
      <trkpt lat="49.28936" lon="1.21468">
        <ele>5.3</ele>
        <time>2012-07-10T13:18:07Z</time>
      </trkpt>
      <trkpt lat="49.28929" lon="1.21473">
        <ele>6</ele>
        <time>2012-07-10T13:18:13Z</time>
      </trkpt>
      <trkpt lat="49.28921" lon="1.21478">
        <ele>6.1</ele>
        <time>2012-07-10T13:18:20Z</time>
      </trkpt>
      <trkpt lat="49.2892" lon="1.21479">
        <ele>6.1</ele>
        <time>2012-07-10T13:18:21Z</time>
      </trkpt>
      <trkpt lat="49.28906" lon="1.2149">
        <ele>5.4</ele>
        <time>2012-07-10T13:18:33Z</time>
      </trkpt>
      <trkpt lat="49.28898" lon="1.21497">
        <ele>6</ele>
        <time>2012-07-10T13:18:40Z</time>
      </trkpt>
      <trkpt lat="49.28891" lon="1.21503">
        <ele>5.4</ele>
        <time>2012-07-10T13:18:47Z</time>
      </trkpt>
      <trkpt lat="49.28884" lon="1.21509">
        <ele>5.1</ele>
        <time>2012-07-10T13:18:53Z</time>
      </trkpt>
      <trkpt lat="49.28877" lon="1.21516">
        <ele>5.3</ele>
        <time>2012-07-10T13:18:59Z</time>
      </trkpt>
      <trkpt lat="49.2887" lon="1.2152">
        <ele>3.7</ele>
        <time>2012-07-10T13:19:05Z</time>
      </trkpt>
      <trkpt lat="49.28862" lon="1.21525">
        <ele>3.7</ele>
        <time>2012-07-10T13:19:12Z</time>
      </trkpt>
      <trkpt lat="49.28855" lon="1.21531">
        <ele>3.7</ele>
        <time>2012-07-10T13:19:18Z</time>
      </trkpt>
      <trkpt lat="49.28846" lon="1.21536">
        <ele>2.5</ele>
        <time>2012-07-10T13:19:25Z</time>
      </trkpt>
      <trkpt lat="49.28845" lon="1.21537">
        <ele>2.5</ele>
        <time>2012-07-10T13:19:26Z</time>
      </trkpt>
      <trkpt lat="49.28831" lon="1.21547">
        <ele>1.2</ele>
        <time>2012-07-10T13:19:38Z</time>
      </trkpt>
      <trkpt lat="49.28823" lon="1.21554">
        <ele>0.4</ele>
        <time>2012-07-10T13:19:45Z</time>
      </trkpt>
      <trkpt lat="49.28816" lon="1.21561">
        <ele>0.1</ele>
        <time>2012-07-10T13:19:52Z</time>
      </trkpt>
      <trkpt lat="49.28809" lon="1.21567">
        <ele>8.1</ele>
        <time>2012-07-10T13:19:58Z</time>
      </trkpt>
      <trkpt lat="49.28802" lon="1.21574">
        <ele>-0.3</ele>
        <time>2012-07-10T13:20:04Z</time>
      </trkpt>
      <trkpt lat="49.28795" lon="1.2158">
        <ele>-0.5</ele>
        <time>2012-07-10T13:20:10Z</time>
      </trkpt>
      <trkpt lat="49.28788" lon="1.21586">
        <ele>-0.6</ele>
        <time>2012-07-10T13:20:17Z</time>
      </trkpt>
      <trkpt lat="49.2878" lon="1.21592">
        <ele>8</ele>
        <time>2012-07-10T13:20:25Z</time>
      </trkpt>
      <trkpt lat="49.28773" lon="1.21596">
        <ele>8</ele>
        <time>2012-07-10T13:20:33Z</time>
      </trkpt>
      <trkpt lat="49.28771" lon="1.21596">
        <ele>8</ele>
        <time>2012-07-10T13:20:34Z</time>
      </trkpt>
      <trkpt lat="49.28756" lon="1.21596">
        <ele>0.6</ele>
        <time>2012-07-10T13:21:06Z</time>
      </trkpt>
      <trkpt lat="49.28749" lon="1.21588">
        <ele>0.4</ele>
        <time>2012-07-10T13:21:13Z</time>
      </trkpt>
      <trkpt lat="49.28743" lon="1.21579">
        <ele>0.1</ele>
        <time>2012-07-10T13:21:26Z</time>
      </trkpt>
      <trkpt lat="49.2874" lon="1.21567">
        <ele>-0.8</ele>
        <time>2012-07-10T13:21:30Z</time>
      </trkpt>
      <trkpt lat="49.28738" lon="1.21555">
        <ele>-0.2</ele>
        <time>2012-07-10T13:21:35Z</time>
      </trkpt>
      <trkpt lat="49.28737" lon="1.21553">
        <ele>9.5</ele>
        <time>2012-07-10T13:21:36Z</time>
      </trkpt>
      <trkpt lat="49.28737" lon="1.21529">
        <ele>0.8</ele>
        <time>2012-07-10T13:21:46Z</time>
      </trkpt>
      <trkpt lat="49.2874" lon="1.21517">
        <ele>0.4</ele>
        <time>2012-07-10T13:21:52Z</time>
      </trkpt>
      <trkpt lat="49.28741" lon="1.21504">
        <ele>0.5</ele>
        <time>2012-07-10T13:21:59Z</time>
      </trkpt>
      <trkpt lat="49.28741" lon="1.21492">
        <ele>1.6</ele>
        <time>2012-07-10T13:22:06Z</time>
      </trkpt>
      <trkpt lat="49.28742" lon="1.2148">
        <ele>1.5</ele>
        <time>2012-07-10T13:22:12Z</time>
      </trkpt>
      <trkpt lat="49.28744" lon="1.21468">
        <ele>1.7</ele>
        <time>2012-07-10T13:22:18Z</time>
      </trkpt>
      <trkpt lat="49.28745" lon="1.21456">
        <ele>2.2</ele>
        <time>2012-07-10T13:22:24Z</time>
      </trkpt>
      <trkpt lat="49.28747" lon="1.21442">
        <ele>1.6</ele>
        <time>2012-07-10T13:22:31Z</time>
      </trkpt>
      <trkpt lat="49.28748" lon="1.2143">
        <ele>1.5</ele>
        <time>2012-07-10T13:22:37Z</time>
      </trkpt>
      <trkpt lat="49.28748" lon="1.21428">
        <ele>1.5</ele>
        <time>2012-07-10T13:22:38Z</time>
      </trkpt>
      <trkpt lat="49.2875" lon="1.21406">
        <ele>0.6</ele>
        <time>2012-07-10T13:22:49Z</time>
      </trkpt>
      <trkpt lat="49.28751" lon="1.21394">
        <ele>0.6</ele>
        <time>2012-07-10T13:22:55Z</time>
      </trkpt>
      <trkpt lat="49.28752" lon="1.21382">
        <ele>0.2</ele>
        <time>2012-07-10T13:23:01Z</time>
      </trkpt>
      <trkpt lat="49.28753" lon="1.21369">
        <ele>0.2</ele>
        <time>2012-07-10T13:23:08Z</time>
      </trkpt>
      <trkpt lat="49.28755" lon="1.21356">
        <ele>0.6</ele>
        <time>2012-07-10T13:23:15Z</time>
      </trkpt>
      <trkpt lat="49.28756" lon="1.21344">
        <ele>0.8</ele>
        <time>2012-07-10T13:23:21Z</time>
      </trkpt>
      <trkpt lat="49.28757" lon="1.21331">
        <ele>0.6</ele>
        <time>2012-07-10T13:23:28Z</time>
      </trkpt>
      <trkpt lat="49.28759" lon="1.21318">
        <ele>0.4</ele>
        <time>2012-07-10T13:23:35Z</time>
      </trkpt>
      <trkpt lat="49.2876" lon="1.21304">
        <ele>0.3</ele>
        <time>2012-07-10T13:23:42Z</time>
      </trkpt>
      <trkpt lat="49.2876" lon="1.21302">
        <ele>0.4</ele>
        <time>2012-07-10T13:23:43Z</time>
      </trkpt>
      <trkpt lat="49.28762" lon="1.21278">
        <ele>8</ele>
        <time>2012-07-10T13:23:56Z</time>
      </trkpt>
      <trkpt lat="49.28763" lon="1.21265">
        <ele>0.6</ele>
        <time>2012-07-10T13:24:03Z</time>
      </trkpt>
      <trkpt lat="49.28763" lon="1.21253">
        <ele>1</ele>
        <time>2012-07-10T13:24:10Z</time>
      </trkpt>
      <trkpt lat="49.28765" lon="1.21241">
        <ele>0.3</ele>
        <time>2012-07-10T13:24:16Z</time>
      </trkpt>
      <trkpt lat="49.28767" lon="1.21228">
        <ele>0.8</ele>
        <time>2012-07-10T13:24:23Z</time>
      </trkpt>
      <trkpt lat="49.28768" lon="1.21214">
        <ele>0.3</ele>
        <time>2012-07-10T13:24:30Z</time>
      </trkpt>
      <trkpt lat="49.28769" lon="1.21201">
        <ele>0.2</ele>
        <time>2012-07-10T13:24:36Z</time>
      </trkpt>
      <trkpt lat="49.28771" lon="1.21187">
        <ele>8</ele>
        <time>2012-07-10T13:24:43Z</time>
      </trkpt>
      <trkpt lat="49.28771" lon="1.21175">
        <ele>0.3</ele>
        <time>2012-07-10T13:24:49Z</time>
      </trkpt>
      <trkpt lat="49.28771" lon="1.21173">
        <ele>0.4</ele>
        <time>2012-07-10T13:24:50Z</time>
      </trkpt>
      <trkpt lat="49.28773" lon="1.2115">
        <ele>-0.5</ele>
        <time>2012-07-10T13:25:03Z</time>
      </trkpt>
      <trkpt lat="49.28775" lon="1.21137">
        <ele>-0.5</ele>
        <time>2012-07-10T13:25:10Z</time>
      </trkpt>
      <trkpt lat="49.28776" lon="1.21124">
        <ele>-0.2</ele>
        <time>2012-07-10T13:25:17Z</time>
      </trkpt>
      <trkpt lat="49.28777" lon="1.21111">
        <ele>-0.1</ele>
        <time>2012-07-10T13:25:24Z</time>
      </trkpt>
      <trkpt lat="49.28778" lon="1.21098">
        <ele>0.1</ele>
        <time>2012-07-10T13:25:31Z</time>
      </trkpt>
      <trkpt lat="49.28779" lon="1.21086">
        <ele>9</ele>
        <time>2012-07-10T13:25:37Z</time>
      </trkpt>
      <trkpt lat="49.28781" lon="1.21074">
        <ele>-0.1</ele>
        <time>2012-07-10T13:25:43Z</time>
      </trkpt>
      <trkpt lat="49.28782" lon="1.21061">
        <ele>-0.1</ele>
        <time>2012-07-10T13:25:50Z</time>
      </trkpt>
      <trkpt lat="49.28784" lon="1.21048">
        <ele>8.9</ele>
        <time>2012-07-10T13:25:57Z</time>
      </trkpt>
      <trkpt lat="49.28784" lon="1.21046">
        <ele>0.2</ele>
        <time>2012-07-10T13:25:58Z</time>
      </trkpt>
      <trkpt lat="49.28784" lon="1.21023">
        <ele>0.4</ele>
        <time>2012-07-10T13:26:11Z</time>
      </trkpt>
      <trkpt lat="49.28784" lon="1.2101">
        <ele>0.6</ele>
        <time>2012-07-10T13:26:18Z</time>
      </trkpt>
      <trkpt lat="49.28784" lon="1.20997">
        <ele>0.8</ele>
        <time>2012-07-10T13:26:25Z</time>
      </trkpt>
      <trkpt lat="49.28783" lon="1.20983">
        <ele>1</ele>
        <time>2012-07-10T13:26:32Z</time>
      </trkpt>
      <trkpt lat="49.2878" lon="1.20971">
        <ele>2</ele>
        <time>2012-07-10T13:26:39Z</time>
      </trkpt>
      <trkpt lat="49.28773" lon="1.20963">
        <ele>2</ele>
        <time>2012-07-10T13:26:52Z</time>
      </trkpt>
      <trkpt lat="49.28775" lon="1.2095">
        <ele>1.3</ele>
        <time>2012-07-10T13:27:00Z</time>
      </trkpt>
      <trkpt lat="49.28775" lon="1.20949">
        <ele>1.3</ele>
        <time>2012-07-10T13:27:01Z</time>
      </trkpt>
      <trkpt lat="49.28769" lon="1.20925">
        <ele>3.2</ele>
        <time>2012-07-10T13:27:24Z</time>
      </trkpt>
      <trkpt lat="49.28765" lon="1.20912">
        <ele>3</ele>
        <time>2012-07-10T13:27:31Z</time>
      </trkpt>
      <trkpt lat="49.28761" lon="1.20902">
        <ele>3.5</ele>
        <time>2012-07-10T13:27:46Z</time>
      </trkpt>
      <trkpt lat="49.28759" lon="1.20888">
        <ele>4</ele>
        <time>2012-07-10T13:27:53Z</time>
      </trkpt>
      <trkpt lat="49.28758" lon="1.20876">
        <ele>4.5</ele>
        <time>2012-07-10T13:27:59Z</time>
      </trkpt>
      <trkpt lat="49.2876" lon="1.20864">
        <ele>4.6</ele>
        <time>2012-07-10T13:28:05Z</time>
      </trkpt>
      <trkpt lat="49.28761" lon="1.20863">
        <ele>4.8</ele>
        <time>2012-07-10T13:28:06Z</time>
      </trkpt>
      <trkpt lat="49.28774" lon="1.20852">
        <ele>3.4</ele>
        <time>2012-07-10T13:28:17Z</time>
      </trkpt>
      <trkpt lat="49.28781" lon="1.20845">
        <ele>2.9</ele>
        <time>2012-07-10T13:28:23Z</time>
      </trkpt>
      <trkpt lat="49.28788" lon="1.2084">
        <ele>3.4</ele>
        <time>2012-07-10T13:28:28Z</time>
      </trkpt>
      <trkpt lat="49.28796" lon="1.20834">
        <ele>3</ele>
        <time>2012-07-10T13:28:34Z</time>
      </trkpt>
      <trkpt lat="49.28803" lon="1.20827">
        <ele>2</ele>
        <time>2012-07-10T13:28:41Z</time>
      </trkpt>
      <trkpt lat="49.2881" lon="1.20819">
        <ele>1.7</ele>
        <time>2012-07-10T13:28:49Z</time>
      </trkpt>
      <trkpt lat="49.28818" lon="1.20815">
        <ele>1.1</ele>
        <time>2012-07-10T13:28:56Z</time>
      </trkpt>
      <trkpt lat="49.28825" lon="1.2081">
        <ele>0.8</ele>
        <time>2012-07-10T13:29:02Z</time>
      </trkpt>
      <trkpt lat="49.28833" lon="1.20804">
        <ele>0.2</ele>
        <time>2012-07-10T13:29:09Z</time>
      </trkpt>
      <trkpt lat="49.28834" lon="1.20803">
        <ele>0.1</ele>
        <time>2012-07-10T13:29:10Z</time>
      </trkpt>
      <trkpt lat="49.28848" lon="1.20791">
        <ele>0.4</ele>
        <time>2012-07-10T13:29:26Z</time>
      </trkpt>
      <trkpt lat="49.28855" lon="1.20784">
        <ele>0.5</ele>
        <time>2012-07-10T13:29:36Z</time>
      </trkpt>
      <trkpt lat="49.28864" lon="1.20779">
        <ele>0.4</ele>
        <time>2012-07-10T13:29:43Z</time>
      </trkpt>
      <trkpt lat="49.28872" lon="1.20773">
        <ele>0.6</ele>
        <time>2012-07-10T13:29:50Z</time>
      </trkpt>
      <trkpt lat="49.28879" lon="1.20766">
        <ele>0.8</ele>
        <time>2012-07-10T13:29:57Z</time>
      </trkpt>
      <trkpt lat="49.28887" lon="1.20762">
        <ele>0.8</ele>
        <time>2012-07-10T13:30:04Z</time>
      </trkpt>
      <trkpt lat="49.28894" lon="1.20755">
        <ele>0.1</ele>
        <time>2012-07-10T13:30:13Z</time>
      </trkpt>
      <trkpt lat="49.28896" lon="1.20754">
        <ele>0.3</ele>
        <time>2012-07-10T13:30:14Z</time>
      </trkpt>
      <trkpt lat="49.28911" lon="1.20747">
        <ele>0.6</ele>
        <time>2012-07-10T13:30:27Z</time>
      </trkpt>
      <trkpt lat="49.28919" lon="1.20743">
        <ele>0.6</ele>
        <time>2012-07-10T13:30:34Z</time>
      </trkpt>
      <trkpt lat="49.28927" lon="1.20738">
        <ele>1.2</ele>
        <time>2012-07-10T13:30:41Z</time>
      </trkpt>
      <trkpt lat="49.28935" lon="1.20734">
        <ele>1.2</ele>
        <time>2012-07-10T13:30:48Z</time>
      </trkpt>
      <trkpt lat="49.28942" lon="1.20727">
        <ele>1.7</ele>
        <time>2012-07-10T13:30:55Z</time>
      </trkpt>
      <trkpt lat="49.2895" lon="1.20722">
        <ele>2.4</ele>
        <time>2012-07-10T13:31:03Z</time>
      </trkpt>
      <trkpt lat="49.28957" lon="1.20716">
        <ele>4</ele>
        <time>2012-07-10T13:31:12Z</time>
      </trkpt>
      <trkpt lat="49.28965" lon="1.20711">
        <ele>4</ele>
        <time>2012-07-10T13:31:20Z</time>
      </trkpt>
      <trkpt lat="49.28966" lon="1.2071">
        <ele>4</ele>
        <time>2012-07-10T13:31:21Z</time>
      </trkpt>
      <trkpt lat="49.28982" lon="1.20701">
        <ele>2.4</ele>
        <time>2012-07-10T13:31:34Z</time>
      </trkpt>
      <trkpt lat="49.28989" lon="1.20694">
        <ele>1.7</ele>
        <time>2012-07-10T13:31:41Z</time>
      </trkpt>
      <trkpt lat="49.28997" lon="1.20688">
        <ele>2.7</ele>
        <time>2012-07-10T13:31:48Z</time>
      </trkpt>
      <trkpt lat="49.29004" lon="1.20683">
        <ele>3</ele>
        <time>2012-07-10T13:31:55Z</time>
      </trkpt>
      <trkpt lat="49.29012" lon="1.20677">
        <ele>3.5</ele>
        <time>2012-07-10T13:32:03Z</time>
      </trkpt>
      <trkpt lat="49.2902" lon="1.20671">
        <ele>4.5</ele>
        <time>2012-07-10T13:32:09Z</time>
      </trkpt>
      <trkpt lat="49.29026" lon="1.20664">
        <ele>4.6</ele>
        <time>2012-07-10T13:32:16Z</time>
      </trkpt>
      <trkpt lat="49.29033" lon="1.20657">
        <ele>4.5</ele>
        <time>2012-07-10T13:32:22Z</time>
      </trkpt>
      <trkpt lat="49.29034" lon="1.20656">
        <ele>4.8</ele>
        <time>2012-07-10T13:32:23Z</time>
      </trkpt>
      <trkpt lat="49.29038" lon="1.20635">
        <ele>4.4</ele>
        <time>2012-07-10T13:32:39Z</time>
      </trkpt>
      <trkpt lat="49.29036" lon="1.20623">
        <ele>4</ele>
        <time>2012-07-10T13:32:46Z</time>
      </trkpt>
      <trkpt lat="49.29035" lon="1.20609">
        <ele>3.5</ele>
        <time>2012-07-10T13:32:56Z</time>
      </trkpt>
      <trkpt lat="49.29031" lon="1.20599">
        <ele>4.1</ele>
        <time>2012-07-10T13:33:23Z</time>
      </trkpt>
      <trkpt lat="49.29027" lon="1.20587">
        <ele>3.7</ele>
        <time>2012-07-10T13:33:30Z</time>
      </trkpt>
      <trkpt lat="49.29027" lon="1.20585">
        <ele>3.7</ele>
        <time>2012-07-10T13:33:31Z</time>
      </trkpt>
      <trkpt lat="49.2902" lon="1.20563">
        <ele>4</ele>
        <time>2012-07-10T13:33:43Z</time>
      </trkpt>
      <trkpt lat="49.29016" lon="1.20551">
        <ele>3.9</ele>
        <time>2012-07-10T13:33:50Z</time>
      </trkpt>
      <trkpt lat="49.29013" lon="1.20539">
        <ele>3.7</ele>
        <time>2012-07-10T13:33:57Z</time>
      </trkpt>
      <trkpt lat="49.2901" lon="1.20527">
        <ele>4.5</ele>
        <time>2012-07-10T13:34:06Z</time>
      </trkpt>
      <trkpt lat="49.29006" lon="1.20517">
        <ele>5</ele>
        <time>2012-07-10T13:34:13Z</time>
      </trkpt>
      <trkpt lat="49.29003" lon="1.20506">
        <ele>5</ele>
        <time>2012-07-10T13:34:19Z</time>
      </trkpt>
      <trkpt lat="49.29" lon="1.20494">
        <ele>4.1</ele>
        <time>2012-07-10T13:34:25Z</time>
      </trkpt>
      <trkpt lat="49.28997" lon="1.20482">
        <ele>4</ele>
        <time>2012-07-10T13:34:32Z</time>
      </trkpt>
      <trkpt lat="49.28997" lon="1.20481">
        <ele>4</ele>
        <time>2012-07-10T13:34:33Z</time>
      </trkpt>
      <trkpt lat="49.28994" lon="1.20458">
        <ele>4</ele>
        <time>2012-07-10T13:34:46Z</time>
      </trkpt>
      <trkpt lat="49.28992" lon="1.20445">
        <ele>4.6</ele>
        <time>2012-07-10T13:34:53Z</time>
      </trkpt>
      <trkpt lat="49.28991" lon="1.20432">
        <ele>5.1</ele>
        <time>2012-07-10T13:35:00Z</time>
      </trkpt>
      <trkpt lat="49.2899" lon="1.20418">
        <ele>6</ele>
        <time>2012-07-10T13:35:09Z</time>
      </trkpt>
      <trkpt lat="49.28986" lon="1.20406">
        <ele>6.4</ele>
        <time>2012-07-10T13:35:17Z</time>
      </trkpt>
      <trkpt lat="49.28977" lon="1.20404">
        <ele>6.1</ele>
        <time>2012-07-10T13:35:24Z</time>
      </trkpt>
      <trkpt lat="49.28968" lon="1.20401">
        <ele>5.9</ele>
        <time>2012-07-10T13:35:32Z</time>
      </trkpt>
      <trkpt lat="49.28959" lon="1.204">
        <ele>4.9</ele>
        <time>2012-07-10T13:35:39Z</time>
      </trkpt>
      <trkpt lat="49.28958" lon="1.20399">
        <ele>4.9</ele>
        <time>2012-07-10T13:35:40Z</time>
      </trkpt>
      <trkpt lat="49.28943" lon="1.20401">
        <ele>4.3</ele>
        <time>2012-07-10T13:35:51Z</time>
      </trkpt>
      <trkpt lat="49.28934" lon="1.20404">
        <ele>4.3</ele>
        <time>2012-07-10T13:35:58Z</time>
      </trkpt>
      <trkpt lat="49.28926" lon="1.20403">
        <ele>3.4</ele>
        <time>2012-07-10T13:36:05Z</time>
      </trkpt>
      <trkpt lat="49.28918" lon="1.20406">
        <ele>2.9</ele>
        <time>2012-07-10T13:36:12Z</time>
      </trkpt>
      <trkpt lat="49.28909" lon="1.20408">
        <ele>2</ele>
        <time>2012-07-10T13:36:18Z</time>
      </trkpt>
      <trkpt lat="49.289" lon="1.2041">
        <ele>2</ele>
        <time>2012-07-10T13:36:25Z</time>
      </trkpt>
      <trkpt lat="49.28892" lon="1.20412">
        <ele>1</ele>
        <time>2012-07-10T13:36:32Z</time>
      </trkpt>
      <trkpt lat="49.28884" lon="1.20412">
        <ele>0.3</ele>
        <time>2012-07-10T13:36:39Z</time>
      </trkpt>
      <trkpt lat="49.28879" lon="1.20402">
        <ele>0.8</ele>
        <time>2012-07-10T13:36:46Z</time>
      </trkpt>
      <trkpt lat="49.28879" lon="1.204">
        <ele>0.6</ele>
        <time>2012-07-10T13:36:47Z</time>
      </trkpt>
      <trkpt lat="49.28876" lon="1.20378">
        <ele>0.4</ele>
        <time>2012-07-10T13:36:58Z</time>
      </trkpt>
      <trkpt lat="49.28876" lon="1.20366">
        <ele>0.8</ele>
        <time>2012-07-10T13:37:04Z</time>
      </trkpt>
      <trkpt lat="49.28874" lon="1.20352">
        <ele>1.3</ele>
        <time>2012-07-10T13:37:12Z</time>
      </trkpt>
      <trkpt lat="49.28872" lon="1.2034">
        <ele>3</ele>
        <time>2012-07-10T13:37:29Z</time>
      </trkpt>
      <trkpt lat="49.28872" lon="1.20327">
        <ele>4</ele>
        <time>2012-07-10T13:37:36Z</time>
      </trkpt>
      <trkpt lat="49.2887" lon="1.20314">
        <ele>4</ele>
        <time>2012-07-10T13:37:43Z</time>
      </trkpt>
      <trkpt lat="49.28867" lon="1.20302">
        <ele>3.7</ele>
        <time>2012-07-10T13:37:50Z</time>
      </trkpt>
      <trkpt lat="49.28866" lon="1.203">
        <ele>3.7</ele>
        <time>2012-07-10T13:37:51Z</time>
      </trkpt>
      <trkpt lat="49.28864" lon="1.20277">
        <ele>4</ele>
        <time>2012-07-10T13:38:04Z</time>
      </trkpt>
      <trkpt lat="49.28864" lon="1.20264">
        <ele>5</ele>
        <time>2012-07-10T13:38:11Z</time>
      </trkpt>
      <trkpt lat="49.28862" lon="1.20251">
        <ele>5.5</ele>
        <time>2012-07-10T13:38:18Z</time>
      </trkpt>
      <trkpt lat="49.28863" lon="1.20239">
        <ele>5.3</ele>
        <time>2012-07-10T13:38:24Z</time>
      </trkpt>
      <trkpt lat="49.28864" lon="1.20225">
        <ele>6</ele>
        <time>2012-07-10T13:38:31Z</time>
      </trkpt>
      <trkpt lat="49.28867" lon="1.20213">
        <ele>6.5</ele>
        <time>2012-07-10T13:38:37Z</time>
      </trkpt>
      <trkpt lat="49.28867" lon="1.20201">
        <ele>8</ele>
        <time>2012-07-10T13:38:44Z</time>
      </trkpt>
      <trkpt lat="49.28869" lon="1.20188">
        <ele>7.5</ele>
        <time>2012-07-10T13:38:51Z</time>
      </trkpt>
      <trkpt lat="49.28869" lon="1.20176">
        <ele>7.5</ele>
        <time>2012-07-10T13:38:58Z</time>
      </trkpt>
      <trkpt lat="49.28869" lon="1.20174">
        <ele>7.5</ele>
        <time>2012-07-10T13:38:59Z</time>
      </trkpt>
      <trkpt lat="49.28869" lon="1.20151">
        <ele>8.3</ele>
        <time>2012-07-10T13:39:14Z</time>
      </trkpt>
      <trkpt lat="49.28868" lon="1.20139">
        <ele>9.5</ele>
        <time>2012-07-10T13:39:21Z</time>
      </trkpt>
      <trkpt lat="49.28868" lon="1.20126">
        <ele>11.1</ele>
        <time>2012-07-10T13:39:28Z</time>
      </trkpt>
      <trkpt lat="49.28868" lon="1.20113">
        <ele>11.8</ele>
        <time>2012-07-10T13:39:37Z</time>
      </trkpt>
      <trkpt lat="49.28867" lon="1.20099">
        <ele>13</ele>
        <time>2012-07-10T13:39:45Z</time>
      </trkpt>
      <trkpt lat="49.28868" lon="1.20087">
        <ele>13.6</ele>
        <time>2012-07-10T13:39:52Z</time>
      </trkpt>
      <trkpt lat="49.28867" lon="1.20074">
        <ele>15.3</ele>
        <time>2012-07-10T13:40:00Z</time>
      </trkpt>
      <trkpt lat="49.28866" lon="1.20072">
        <ele>15.5</ele>
        <time>2012-07-10T13:40:01Z</time>
      </trkpt>
      <trkpt lat="49.28867" lon="1.20048">
        <ele>17.2</ele>
        <time>2012-07-10T13:40:17Z</time>
      </trkpt>
      <trkpt lat="49.28869" lon="1.20035">
        <ele>17.7</ele>
        <time>2012-07-10T13:40:25Z</time>
      </trkpt>
      <trkpt lat="49.2887" lon="1.20025">
        <ele>17.5</ele>
        <time>2012-07-10T13:40:54Z</time>
      </trkpt>
      <trkpt lat="49.28873" lon="1.20013">
        <ele>17.2</ele>
        <time>2012-07-10T13:40:58Z</time>
      </trkpt>
      <trkpt lat="49.2887" lon="1.20004">
        <ele>17.2</ele>
        <time>2012-07-10T13:41:00Z</time>
      </trkpt>
      <trkpt lat="49.28869" lon="1.19993">
        <ele>18.7</ele>
        <time>2012-07-10T13:41:03Z</time>
      </trkpt>
      <trkpt lat="49.28869" lon="1.19989">
        <ele>20</ele>
        <time>2012-07-10T13:41:04Z</time>
      </trkpt>
      <trkpt lat="49.2887" lon="1.19968">
        <ele>23.2</ele>
        <time>2012-07-10T13:41:14Z</time>
      </trkpt>
      <trkpt lat="49.2887" lon="1.19956">
        <ele>24.5</ele>
        <time>2012-07-10T13:41:22Z</time>
      </trkpt>
      <trkpt lat="49.2887" lon="1.19943">
        <ele>24.6</ele>
        <time>2012-07-10T13:41:31Z</time>
      </trkpt>
      <trkpt lat="49.28869" lon="1.1993">
        <ele>26.7</ele>
        <time>2012-07-10T13:41:43Z</time>
      </trkpt>
      <trkpt lat="49.28867" lon="1.19917">
        <ele>29.2</ele>
        <time>2012-07-10T13:41:52Z</time>
      </trkpt>
      <trkpt lat="49.28864" lon="1.19905">
        <ele>28.8</ele>
        <time>2012-07-10T13:42:04Z</time>
      </trkpt>
      <trkpt lat="49.28861" lon="1.19893">
        <ele>30.7</ele>
        <time>2012-07-10T13:42:17Z</time>
      </trkpt>
      <trkpt lat="49.28861" lon="1.19891">
        <ele>30.6</ele>
        <time>2012-07-10T13:42:18Z</time>
      </trkpt>
      <trkpt lat="49.28857" lon="1.19868">
        <ele>35.7</ele>
        <time>2012-07-10T13:42:35Z</time>
      </trkpt>
      <trkpt lat="49.28855" lon="1.19855">
        <ele>36.4</ele>
        <time>2012-07-10T13:42:47Z</time>
      </trkpt>
      <trkpt lat="49.28851" lon="1.19844">
        <ele>38.5</ele>
        <time>2012-07-10T13:42:56Z</time>
      </trkpt>
      <trkpt lat="49.28848" lon="1.19832">
        <ele>40.7</ele>
        <time>2012-07-10T13:43:06Z</time>
      </trkpt>
      <trkpt lat="49.28847" lon="1.19819">
        <ele>42</ele>
        <time>2012-07-10T13:43:17Z</time>
      </trkpt>
      <trkpt lat="49.28845" lon="1.19806">
        <ele>45.5</ele>
        <time>2012-07-10T13:43:28Z</time>
      </trkpt>
      <trkpt lat="49.28845" lon="1.19804">
        <ele>45.5</ele>
        <time>2012-07-10T13:43:29Z</time>
      </trkpt>
      <trkpt lat="49.28842" lon="1.19781">
        <ele>47.5</ele>
        <time>2012-07-10T13:43:51Z</time>
      </trkpt>
      <trkpt lat="49.28839" lon="1.19768">
        <ele>49.7</ele>
        <time>2012-07-10T13:44:03Z</time>
      </trkpt>
      <trkpt lat="49.2884" lon="1.19756">
        <ele>50.7</ele>
        <time>2012-07-10T13:44:12Z</time>
      </trkpt>
      <trkpt lat="49.2884" lon="1.19743">
        <ele>52.4</ele>
        <time>2012-07-10T13:44:21Z</time>
      </trkpt>
      <trkpt lat="49.28841" lon="1.19729">
        <ele>53</ele>
        <time>2012-07-10T13:44:32Z</time>
      </trkpt>
      <trkpt lat="49.28841" lon="1.19727">
        <ele>53</ele>
        <time>2012-07-10T13:44:33Z</time>
      </trkpt>
      <trkpt lat="49.28843" lon="1.19702">
        <ele>56.4</ele>
        <time>2012-07-10T13:44:55Z</time>
      </trkpt>
      <trkpt lat="49.28844" lon="1.1969">
        <ele>55.7</ele>
        <time>2012-07-10T13:45:04Z</time>
      </trkpt>
      <trkpt lat="49.28843" lon="1.19676">
        <ele>56.7</ele>
        <time>2012-07-10T13:45:14Z</time>
      </trkpt>
      <trkpt lat="49.28844" lon="1.19663">
        <ele>58.2</ele>
        <time>2012-07-10T13:45:24Z</time>
      </trkpt>
      <trkpt lat="49.28846" lon="1.1965">
        <ele>61.2</ele>
        <time>2012-07-10T13:45:35Z</time>
      </trkpt>
      <trkpt lat="49.28846" lon="1.19648">
        <ele>61.4</ele>
        <time>2012-07-10T13:45:36Z</time>
      </trkpt>
      <trkpt lat="49.28837" lon="1.19626">
        <ele>63.4</ele>
        <time>2012-07-10T13:46:06Z</time>
      </trkpt>
      <trkpt lat="49.28834" lon="1.19614">
        <ele>64</ele>
        <time>2012-07-10T13:46:14Z</time>
      </trkpt>
      <trkpt lat="49.28831" lon="1.19602">
        <ele>66.3</ele>
        <time>2012-07-10T13:46:22Z</time>
      </trkpt>
      <trkpt lat="49.28828" lon="1.19589">
        <ele>67.9</ele>
        <time>2012-07-10T13:46:30Z</time>
      </trkpt>
      <trkpt lat="49.28825" lon="1.19577">
        <ele>70.6</ele>
        <time>2012-07-10T13:46:38Z</time>
      </trkpt>
      <trkpt lat="49.28824" lon="1.19575">
        <ele>70.6</ele>
        <time>2012-07-10T13:46:39Z</time>
      </trkpt>
      <trkpt lat="49.28817" lon="1.19554">
        <ele>75</ele>
        <time>2012-07-10T13:46:52Z</time>
      </trkpt>
      <trkpt lat="49.28814" lon="1.19541">
        <ele>77.6</ele>
        <time>2012-07-10T13:47:01Z</time>
      </trkpt>
      <trkpt lat="49.2881" lon="1.19529">
        <ele>78.5</ele>
        <time>2012-07-10T13:47:09Z</time>
      </trkpt>
      <trkpt lat="49.28808" lon="1.19518">
        <ele>80.6</ele>
        <time>2012-07-10T13:47:16Z</time>
      </trkpt>
      <trkpt lat="49.28805" lon="1.19505">
        <ele>80.4</ele>
        <time>2012-07-10T13:47:25Z</time>
      </trkpt>
      <trkpt lat="49.28803" lon="1.19492">
        <ele>80</ele>
        <time>2012-07-10T13:47:32Z</time>
      </trkpt>
      <trkpt lat="49.288" lon="1.1948">
        <ele>79.9</ele>
        <time>2012-07-10T13:47:39Z</time>
      </trkpt>
      <trkpt lat="49.28796" lon="1.19468">
        <ele>79.5</ele>
        <time>2012-07-10T13:48:06Z</time>
      </trkpt>
      <trkpt lat="49.28796" lon="1.19467">
        <ele>79.5</ele>
        <time>2012-07-10T13:48:07Z</time>
      </trkpt>
      <trkpt lat="49.2879" lon="1.19444">
        <ele>80</ele>
        <time>2012-07-10T13:48:20Z</time>
      </trkpt>
      <trkpt lat="49.28788" lon="1.19431">
        <ele>80.9</ele>
        <time>2012-07-10T13:48:27Z</time>
      </trkpt>
      <trkpt lat="49.28786" lon="1.19419">
        <ele>81.6</ele>
        <time>2012-07-10T13:48:33Z</time>
      </trkpt>
      <trkpt lat="49.28783" lon="1.19406">
        <ele>80.4</ele>
        <time>2012-07-10T13:48:40Z</time>
      </trkpt>
      <trkpt lat="49.28779" lon="1.19395">
        <ele>80.5</ele>
        <time>2012-07-10T13:48:46Z</time>
      </trkpt>
      <trkpt lat="49.28777" lon="1.19383">
        <ele>80.8</ele>
        <time>2012-07-10T13:48:53Z</time>
      </trkpt>
      <trkpt lat="49.28775" lon="1.1937">
        <ele>79.5</ele>
        <time>2012-07-10T13:49:00Z</time>
      </trkpt>
      <trkpt lat="49.28771" lon="1.19359">
        <ele>78.5</ele>
        <time>2012-07-10T13:49:07Z</time>
      </trkpt>
      <trkpt lat="49.28767" lon="1.19348">
        <ele>78.1</ele>
        <time>2012-07-10T13:49:14Z</time>
      </trkpt>
      <trkpt lat="49.28766" lon="1.19347">
        <ele>78.5</ele>
        <time>2012-07-10T13:49:15Z</time>
      </trkpt>
      <trkpt lat="49.2876" lon="1.19325">
        <ele>76.8</ele>
        <time>2012-07-10T13:49:27Z</time>
      </trkpt>
      <trkpt lat="49.28756" lon="1.19314">
        <ele>76</ele>
        <time>2012-07-10T13:49:34Z</time>
      </trkpt>
      <trkpt lat="49.28754" lon="1.19302">
        <ele>76.8</ele>
        <time>2012-07-10T13:51:15Z</time>
      </trkpt>
      <trkpt lat="49.28753" lon="1.193">
        <ele>76.8</ele>
        <time>2012-07-10T13:51:16Z</time>
      </trkpt>
      <trkpt lat="49.28747" lon="1.1928">
        <ele>77.4</ele>
        <time>2012-07-10T13:51:30Z</time>
      </trkpt>
      <trkpt lat="49.28743" lon="1.19269">
        <ele>77.6</ele>
        <time>2012-07-10T13:51:36Z</time>
      </trkpt>
      <trkpt lat="49.28738" lon="1.1926">
        <ele>78.3</ele>
        <time>2012-07-10T13:51:42Z</time>
      </trkpt>
      <trkpt lat="49.28735" lon="1.1925">
        <ele>77.1</ele>
        <time>2012-07-10T13:51:51Z</time>
      </trkpt>
      <trkpt lat="49.28733" lon="1.19236">
        <ele>78</ele>
        <time>2012-07-10T13:51:58Z</time>
      </trkpt>
      <trkpt lat="49.28731" lon="1.19224">
        <ele>78.1</ele>
        <time>2012-07-10T13:52:04Z</time>
      </trkpt>
      <trkpt lat="49.28729" lon="1.19212">
        <ele>78.1</ele>
        <time>2012-07-10T13:52:10Z</time>
      </trkpt>
      <trkpt lat="49.28726" lon="1.19199">
        <ele>77.5</ele>
        <time>2012-07-10T13:52:17Z</time>
      </trkpt>
      <trkpt lat="49.28726" lon="1.19198">
        <ele>77.6</ele>
        <time>2012-07-10T13:52:18Z</time>
      </trkpt>
      <trkpt lat="49.28721" lon="1.19174">
        <ele>78.3</ele>
        <time>2012-07-10T13:52:30Z</time>
      </trkpt>
      <trkpt lat="49.28718" lon="1.19162">
        <ele>78.5</ele>
        <time>2012-07-10T13:52:38Z</time>
      </trkpt>
      <trkpt lat="49.28713" lon="1.1915">
        <ele>77.5</ele>
        <time>2012-07-10T13:52:45Z</time>
      </trkpt>
      <trkpt lat="49.28712" lon="1.19138">
        <ele>75.3</ele>
        <time>2012-07-10T13:52:50Z</time>
      </trkpt>
      <trkpt lat="49.28716" lon="1.19127">
        <ele>74.9</ele>
        <time>2012-07-10T13:52:56Z</time>
      </trkpt>
      <trkpt lat="49.28723" lon="1.1912">
        <ele>73.4</ele>
        <time>2012-07-10T13:53:02Z</time>
      </trkpt>
      <trkpt lat="49.28731" lon="1.19115">
        <ele>73.5</ele>
        <time>2012-07-10T13:53:08Z</time>
      </trkpt>
      <trkpt lat="49.28738" lon="1.1911">
        <ele>73</ele>
        <time>2012-07-10T13:53:13Z</time>
      </trkpt>
      <trkpt lat="49.28746" lon="1.19105">
        <ele>74</ele>
        <time>2012-07-10T13:53:20Z</time>
      </trkpt>
      <trkpt lat="49.28747" lon="1.19104">
        <ele>73.3</ele>
        <time>2012-07-10T13:53:21Z</time>
      </trkpt>
      <trkpt lat="49.2876" lon="1.19094">
        <ele>70.5</ele>
        <time>2012-07-10T13:53:34Z</time>
      </trkpt>
      <trkpt lat="49.28768" lon="1.19089">
        <ele>70.9</ele>
        <time>2012-07-10T13:53:43Z</time>
      </trkpt>
      <trkpt lat="49.28776" lon="1.19084">
        <ele>70.8</ele>
        <time>2012-07-10T13:53:49Z</time>
      </trkpt>
      <trkpt lat="49.28784" lon="1.1908">
        <ele>71.9</ele>
        <time>2012-07-10T13:53:57Z</time>
      </trkpt>
      <trkpt lat="49.28793" lon="1.19075">
        <ele>70</ele>
        <time>2012-07-10T13:54:04Z</time>
      </trkpt>
      <trkpt lat="49.28801" lon="1.19068">
        <ele>70.8</ele>
        <time>2012-07-10T13:54:16Z</time>
      </trkpt>
      <trkpt lat="49.28808" lon="1.19064">
        <ele>70.5</ele>
        <time>2012-07-10T13:54:23Z</time>
      </trkpt>
      <trkpt lat="49.28809" lon="1.19063">
        <ele>69.9</ele>
        <time>2012-07-10T13:54:24Z</time>
      </trkpt>
      <trkpt lat="49.28824" lon="1.19055">
        <ele>69.4</ele>
        <time>2012-07-10T13:54:37Z</time>
      </trkpt>
      <trkpt lat="49.28832" lon="1.1905">
        <ele>69.1</ele>
        <time>2012-07-10T13:54:46Z</time>
      </trkpt>
      <trkpt lat="49.28839" lon="1.19046">
        <ele>67.9</ele>
        <time>2012-07-10T13:54:53Z</time>
      </trkpt>
      <trkpt lat="49.28846" lon="1.1904">
        <ele>67</ele>
        <time>2012-07-10T13:54:59Z</time>
      </trkpt>
      <trkpt lat="49.28854" lon="1.19035">
        <ele>66.4</ele>
        <time>2012-07-10T13:55:06Z</time>
      </trkpt>
      <trkpt lat="49.28861" lon="1.1903">
        <ele>65.6</ele>
        <time>2012-07-10T13:55:12Z</time>
      </trkpt>
      <trkpt lat="49.28869" lon="1.19025">
        <ele>63.5</ele>
        <time>2012-07-10T13:55:18Z</time>
      </trkpt>
      <trkpt lat="49.28877" lon="1.19021">
        <ele>63</ele>
        <time>2012-07-10T13:55:25Z</time>
      </trkpt>
      <trkpt lat="49.28878" lon="1.19021">
        <ele>63</ele>
        <time>2012-07-10T13:55:26Z</time>
      </trkpt>
      <trkpt lat="49.28892" lon="1.19013">
        <ele>63.2</ele>
        <time>2012-07-10T13:55:37Z</time>
      </trkpt>
      <trkpt lat="49.289" lon="1.19007">
        <ele>63.7</ele>
        <time>2012-07-10T13:55:44Z</time>
      </trkpt>
      <trkpt lat="49.28908" lon="1.19003">
        <ele>64.3</ele>
        <time>2012-07-10T13:55:51Z</time>
      </trkpt>
      <trkpt lat="49.28916" lon="1.18999">
        <ele>64.1</ele>
        <time>2012-07-10T13:55:58Z</time>
      </trkpt>
      <trkpt lat="49.28924" lon="1.18995">
        <ele>64</ele>
        <time>2012-07-10T13:56:07Z</time>
      </trkpt>
      <trkpt lat="49.28932" lon="1.1899">
        <ele>63.2</ele>
        <time>2012-07-10T13:56:14Z</time>
      </trkpt>
      <trkpt lat="49.28939" lon="1.18986">
        <ele>62.5</ele>
        <time>2012-07-10T13:56:21Z</time>
      </trkpt>
      <trkpt lat="49.28947" lon="1.18982">
        <ele>62</ele>
        <time>2012-07-10T13:56:29Z</time>
      </trkpt>
      <trkpt lat="49.28948" lon="1.18981">
        <ele>62</ele>
        <time>2012-07-10T13:56:30Z</time>
      </trkpt>
      <trkpt lat="49.28962" lon="1.18974">
        <ele>61.7</ele>
        <time>2012-07-10T13:56:42Z</time>
      </trkpt>
      <trkpt lat="49.2897" lon="1.18971">
        <ele>62.4</ele>
        <time>2012-07-10T13:56:48Z</time>
      </trkpt>
      <trkpt lat="49.28977" lon="1.18966">
        <ele>63.2</ele>
        <time>2012-07-10T13:56:55Z</time>
      </trkpt>
      <trkpt lat="49.28983" lon="1.18976">
        <ele>64</ele>
        <time>2012-07-10T13:57:17Z</time>
      </trkpt>
      <trkpt lat="49.28985" lon="1.18987">
        <ele>63.2</ele>
        <time>2012-07-10T13:57:26Z</time>
      </trkpt>
      <trkpt lat="49.28987" lon="1.19">
        <ele>63.7</ele>
        <time>2012-07-10T13:57:33Z</time>
      </trkpt>
      <trkpt lat="49.28988" lon="1.19002">
        <ele>63.9</ele>
        <time>2012-07-10T13:57:34Z</time>
      </trkpt>
      <trkpt lat="49.28994" lon="1.19024">
        <ele>63.2</ele>
        <time>2012-07-10T13:57:49Z</time>
      </trkpt>
      <trkpt lat="49.28996" lon="1.19036">
        <ele>64</ele>
        <time>2012-07-10T13:57:55Z</time>
      </trkpt>
      <trkpt lat="49.28999" lon="1.19048">
        <ele>64.5</ele>
        <time>2012-07-10T13:58:02Z</time>
      </trkpt>
      <trkpt lat="49.29001" lon="1.19059">
        <ele>66</ele>
        <time>2012-07-10T13:58:08Z</time>
      </trkpt>
      <trkpt lat="49.29004" lon="1.19072">
        <ele>66.5</ele>
        <time>2012-07-10T13:58:15Z</time>
      </trkpt>
      <trkpt lat="49.29008" lon="1.19084">
        <ele>67</ele>
        <time>2012-07-10T13:58:22Z</time>
      </trkpt>
      <trkpt lat="49.29011" lon="1.19097">
        <ele>67.6</ele>
        <time>2012-07-10T13:58:30Z</time>
      </trkpt>
      <trkpt lat="49.29014" lon="1.19108">
        <ele>69</ele>
        <time>2012-07-10T13:58:39Z</time>
      </trkpt>
      <trkpt lat="49.29015" lon="1.19109">
        <ele>69</ele>
        <time>2012-07-10T13:58:40Z</time>
      </trkpt>
      <trkpt lat="49.29019" lon="1.19132">
        <ele>70.5</ele>
        <time>2012-07-10T13:58:54Z</time>
      </trkpt>
      <trkpt lat="49.29021" lon="1.19143">
        <ele>70.4</ele>
        <time>2012-07-10T13:59:00Z</time>
      </trkpt>
      <trkpt lat="49.29024" lon="1.19154">
        <ele>71.3</ele>
        <time>2012-07-10T13:59:06Z</time>
      </trkpt>
      <trkpt lat="49.29026" lon="1.19167">
        <ele>73.3</ele>
        <time>2012-07-10T13:59:13Z</time>
      </trkpt>
      <trkpt lat="49.29028" lon="1.1918">
        <ele>72.6</ele>
        <time>2012-07-10T13:59:20Z</time>
      </trkpt>
      <trkpt lat="49.29031" lon="1.19191">
        <ele>72.5</ele>
        <time>2012-07-10T13:59:27Z</time>
      </trkpt>
      <trkpt lat="49.29035" lon="1.19202">
        <ele>74.5</ele>
        <time>2012-07-10T13:59:34Z</time>
      </trkpt>
      <trkpt lat="49.29039" lon="1.19214">
        <ele>74.5</ele>
        <time>2012-07-10T13:59:41Z</time>
      </trkpt>
      <trkpt lat="49.29039" lon="1.19216">
        <ele>74.6</ele>
        <time>2012-07-10T13:59:42Z</time>
      </trkpt>
      <trkpt lat="49.29044" lon="1.19239">
        <ele>76</ele>
        <time>2012-07-10T13:59:57Z</time>
      </trkpt>
      <trkpt lat="49.29047" lon="1.19251">
        <ele>77.5</ele>
        <time>2012-07-10T14:00:04Z</time>
      </trkpt>
      <trkpt lat="49.29052" lon="1.19262">
        <ele>79.3</ele>
        <time>2012-07-10T14:00:11Z</time>
      </trkpt>
      <trkpt lat="49.29057" lon="1.19272">
        <ele>79.8</ele>
        <time>2012-07-10T14:00:16Z</time>
      </trkpt>
      <trkpt lat="49.29064" lon="1.19281">
        <ele>82.1</ele>
        <time>2012-07-10T14:00:24Z</time>
      </trkpt>
      <trkpt lat="49.29072" lon="1.19285">
        <ele>85.4</ele>
        <time>2012-07-10T14:00:32Z</time>
      </trkpt>
      <trkpt lat="49.2908" lon="1.19289">
        <ele>86</ele>
        <time>2012-07-10T14:00:39Z</time>
      </trkpt>
      <trkpt lat="49.29087" lon="1.19292">
        <ele>86.9</ele>
        <time>2012-07-10T14:00:45Z</time>
      </trkpt>
      <trkpt lat="49.29089" lon="1.19292">
        <ele>87.5</ele>
        <time>2012-07-10T14:00:46Z</time>
      </trkpt>
      <trkpt lat="49.29104" lon="1.19298">
        <ele>87.4</ele>
        <time>2012-07-10T14:01:02Z</time>
      </trkpt>
      <trkpt lat="49.29112" lon="1.19302">
        <ele>87.6</ele>
        <time>2012-07-10T14:01:08Z</time>
      </trkpt>
      <trkpt lat="49.29121" lon="1.19305">
        <ele>87.5</ele>
        <time>2012-07-10T14:01:15Z</time>
      </trkpt>
      <trkpt lat="49.29129" lon="1.19309">
        <ele>87.6</ele>
        <time>2012-07-10T14:01:24Z</time>
      </trkpt>
      <trkpt lat="49.29137" lon="1.19313">
        <ele>87.6</ele>
        <time>2012-07-10T14:01:30Z</time>
      </trkpt>
      <trkpt lat="49.29145" lon="1.19316">
        <ele>90.1</ele>
        <time>2012-07-10T14:01:37Z</time>
      </trkpt>
      <trkpt lat="49.29153" lon="1.19322">
        <ele>92.4</ele>
        <time>2012-07-10T14:01:44Z</time>
      </trkpt>
      <trkpt lat="49.29161" lon="1.19324">
        <ele>94.3</ele>
        <time>2012-07-10T14:01:51Z</time>
      </trkpt>
      <trkpt lat="49.29162" lon="1.19325">
        <ele>94</ele>
        <time>2012-07-10T14:01:52Z</time>
      </trkpt>
      <trkpt lat="49.29178" lon="1.19331">
        <ele>92.6</ele>
        <time>2012-07-10T14:02:05Z</time>
      </trkpt>
      <trkpt lat="49.29186" lon="1.19335">
        <ele>93.4</ele>
        <time>2012-07-10T14:02:11Z</time>
      </trkpt>
      <trkpt lat="49.29193" lon="1.19336">
        <ele>93</ele>
        <time>2012-07-10T14:02:16Z</time>
      </trkpt>
      <trkpt lat="49.292" lon="1.19341">
        <ele>93</ele>
        <time>2012-07-10T14:02:21Z</time>
      </trkpt>
      <trkpt lat="49.29209" lon="1.19342">
        <ele>92.8</ele>
        <time>2012-07-10T14:02:31Z</time>
      </trkpt>
      <trkpt lat="49.29217" lon="1.19346">
        <ele>92</ele>
        <time>2012-07-10T14:02:37Z</time>
      </trkpt>
      <trkpt lat="49.29224" lon="1.19349">
        <ele>92</ele>
        <time>2012-07-10T14:02:44Z</time>
      </trkpt>
      <trkpt lat="49.29231" lon="1.19353">
        <ele>92.4</ele>
        <time>2012-07-10T14:02:49Z</time>
      </trkpt>
      <trkpt lat="49.29239" lon="1.19358">
        <ele>91.5</ele>
        <time>2012-07-10T14:02:55Z</time>
      </trkpt>
      <trkpt lat="49.2924" lon="1.19359">
        <ele>91.5</ele>
        <time>2012-07-10T14:02:56Z</time>
      </trkpt>
      <trkpt lat="49.29255" lon="1.19368">
        <ele>92.1</ele>
        <time>2012-07-10T14:03:07Z</time>
      </trkpt>
      <trkpt lat="49.29262" lon="1.19369">
        <ele>92.1</ele>
        <time>2012-07-10T14:03:13Z</time>
      </trkpt>
      <trkpt lat="49.29271" lon="1.1937">
        <ele>91.4</ele>
        <time>2012-07-10T14:03:19Z</time>
      </trkpt>
      <trkpt lat="49.29279" lon="1.19366">
        <ele>90.5</ele>
        <time>2012-07-10T14:03:26Z</time>
      </trkpt>
      <trkpt lat="49.29285" lon="1.19358">
        <ele>90.1</ele>
        <time>2012-07-10T14:03:33Z</time>
      </trkpt>
      <trkpt lat="49.2929" lon="1.19349">
        <ele>89.3</ele>
        <time>2012-07-10T14:03:40Z</time>
      </trkpt>
      <trkpt lat="49.29296" lon="1.1934">
        <ele>87.5</ele>
        <time>2012-07-10T14:03:48Z</time>
      </trkpt>
      <trkpt lat="49.29302" lon="1.1933">
        <ele>86.3</ele>
        <time>2012-07-10T14:03:55Z</time>
      </trkpt>
      <trkpt lat="49.29307" lon="1.19319">
        <ele>85.3</ele>
        <time>2012-07-10T14:04:04Z</time>
      </trkpt>
      <trkpt lat="49.29307" lon="1.19318">
        <ele>85.3</ele>
        <time>2012-07-10T14:04:05Z</time>
      </trkpt>
      <trkpt lat="49.29317" lon="1.19298">
        <ele>84</ele>
        <time>2012-07-10T14:04:19Z</time>
      </trkpt>
      <trkpt lat="49.29322" lon="1.19289">
        <ele>83.4</ele>
        <time>2012-07-10T14:04:26Z</time>
      </trkpt>
      <trkpt lat="49.29327" lon="1.19278">
        <ele>82.5</ele>
        <time>2012-07-10T14:04:35Z</time>
      </trkpt>
      <trkpt lat="49.29332" lon="1.19269">
        <ele>81.9</ele>
        <time>2012-07-10T14:04:42Z</time>
      </trkpt>
      <trkpt lat="49.29337" lon="1.1926">
        <ele>81.1</ele>
        <time>2012-07-10T14:04:48Z</time>
      </trkpt>
      <trkpt lat="49.29343" lon="1.1925">
        <ele>81.9</ele>
        <time>2012-07-10T14:04:54Z</time>
      </trkpt>
      <trkpt lat="49.29347" lon="1.19238">
        <ele>82.1</ele>
        <time>2012-07-10T14:05:00Z</time>
      </trkpt>
      <trkpt lat="49.29354" lon="1.19229">
        <ele>82</ele>
        <time>2012-07-10T14:05:06Z</time>
      </trkpt>
      <trkpt lat="49.29355" lon="1.19228">
        <ele>82</ele>
        <time>2012-07-10T14:05:07Z</time>
      </trkpt>
      <trkpt lat="49.29363" lon="1.19209">
        <ele>81</ele>
        <time>2012-07-10T14:05:19Z</time>
      </trkpt>
      <trkpt lat="49.29369" lon="1.19199">
        <ele>79.8</ele>
        <time>2012-07-10T14:05:26Z</time>
      </trkpt>
      <trkpt lat="49.29373" lon="1.19188">
        <ele>78</ele>
        <time>2012-07-10T14:05:33Z</time>
      </trkpt>
      <trkpt lat="49.29378" lon="1.19177">
        <ele>77.8</ele>
        <time>2012-07-10T14:05:39Z</time>
      </trkpt>
      <trkpt lat="49.29382" lon="1.19167">
        <ele>77.4</ele>
        <time>2012-07-10T14:05:45Z</time>
      </trkpt>
      <trkpt lat="49.29387" lon="1.19156">
        <ele>76.8</ele>
        <time>2012-07-10T14:05:52Z</time>
      </trkpt>
      <trkpt lat="49.29391" lon="1.19146">
        <ele>77</ele>
        <time>2012-07-10T14:05:58Z</time>
      </trkpt>
      <trkpt lat="49.29397" lon="1.19136">
        <ele>77.5</ele>
        <time>2012-07-10T14:06:06Z</time>
      </trkpt>
      <trkpt lat="49.29401" lon="1.19123">
        <ele>77</ele>
        <time>2012-07-10T14:06:14Z</time>
      </trkpt>
      <trkpt lat="49.29401" lon="1.19122">
        <ele>77</ele>
        <time>2012-07-10T14:06:15Z</time>
      </trkpt>
      <trkpt lat="49.29413" lon="1.19107">
        <ele>75</ele>
        <time>2012-07-10T14:06:28Z</time>
      </trkpt>
      <trkpt lat="49.29418" lon="1.19097">
        <ele>74.8</ele>
        <time>2012-07-10T14:06:34Z</time>
      </trkpt>
      <trkpt lat="49.29423" lon="1.19086">
        <ele>74</ele>
        <time>2012-07-10T14:06:40Z</time>
      </trkpt>
      <trkpt lat="49.2942" lon="1.19098">
        <ele>72.4</ele>
        <time>2012-07-10T14:07:25Z</time>
      </trkpt>
      <trkpt lat="49.29419" lon="1.19099">
        <ele>72.1</ele>
        <time>2012-07-10T14:07:26Z</time>
      </trkpt>
      <trkpt lat="49.2942" lon="1.191">
        <ele>71.9</ele>
        <time>2012-07-10T14:18:50Z</time>
      </trkpt>
      <trkpt lat="49.29421" lon="1.19099">
        <ele>72</ele>
        <time>2012-07-10T14:18:51Z</time>
      </trkpt>
      <trkpt lat="49.2943" lon="1.19079">
        <ele>69.9</ele>
        <time>2012-07-10T14:19:04Z</time>
      </trkpt>
      <trkpt lat="49.29434" lon="1.19068">
        <ele>70.9</ele>
        <time>2012-07-10T14:19:13Z</time>
      </trkpt>
      <trkpt lat="49.29438" lon="1.19058">
        <ele>71.3</ele>
        <time>2012-07-10T14:19:20Z</time>
      </trkpt>
      <trkpt lat="49.29444" lon="1.19047">
        <ele>71.1</ele>
        <time>2012-07-10T14:19:26Z</time>
      </trkpt>
      <trkpt lat="49.29449" lon="1.19037">
        <ele>71</ele>
        <time>2012-07-10T14:19:33Z</time>
      </trkpt>
      <trkpt lat="49.29453" lon="1.19027">
        <ele>70.4</ele>
        <time>2012-07-10T14:19:40Z</time>
      </trkpt>
      <trkpt lat="49.29459" lon="1.19016">
        <ele>71.1</ele>
        <time>2012-07-10T14:19:47Z</time>
      </trkpt>
      <trkpt lat="49.29463" lon="1.19005">
        <ele>71.3</ele>
        <time>2012-07-10T14:19:54Z</time>
      </trkpt>
      <trkpt lat="49.29464" lon="1.19004">
        <ele>71.5</ele>
        <time>2012-07-10T14:19:55Z</time>
      </trkpt>
      <trkpt lat="49.29473" lon="1.18984">
        <ele>73.5</ele>
        <time>2012-07-10T14:20:08Z</time>
      </trkpt>
      <trkpt lat="49.29477" lon="1.18974">
        <ele>72.8</ele>
        <time>2012-07-10T14:20:15Z</time>
      </trkpt>
      <trkpt lat="49.29482" lon="1.18964">
        <ele>72</ele>
        <time>2012-07-10T14:20:21Z</time>
      </trkpt>
      <trkpt lat="49.29488" lon="1.18955">
        <ele>72.5</ele>
        <time>2012-07-10T14:20:27Z</time>
      </trkpt>
      <trkpt lat="49.29491" lon="1.18942">
        <ele>72.4</ele>
        <time>2012-07-10T14:20:37Z</time>
      </trkpt>
      <trkpt lat="49.29492" lon="1.1893">
        <ele>72.6</ele>
        <time>2012-07-10T14:20:47Z</time>
      </trkpt>
      <trkpt lat="49.29497" lon="1.18918">
        <ele>72.3</ele>
        <time>2012-07-10T14:20:57Z</time>
      </trkpt>
      <trkpt lat="49.29498" lon="1.18916">
        <ele>72.3</ele>
        <time>2012-07-10T14:20:58Z</time>
      </trkpt>
      <trkpt lat="49.29508" lon="1.189">
        <ele>71</ele>
        <time>2012-07-10T14:21:08Z</time>
      </trkpt>
      <trkpt lat="49.29513" lon="1.18891">
        <ele>70.3</ele>
        <time>2012-07-10T14:21:13Z</time>
      </trkpt>
      <trkpt lat="49.29518" lon="1.18882">
        <ele>70.3</ele>
        <time>2012-07-10T14:21:17Z</time>
      </trkpt>
      <trkpt lat="49.29523" lon="1.18874">
        <ele>69.9</ele>
        <time>2012-07-10T14:21:21Z</time>
      </trkpt>
      <trkpt lat="49.29529" lon="1.18866">
        <ele>70.9</ele>
        <time>2012-07-10T14:21:27Z</time>
      </trkpt>
      <trkpt lat="49.29534" lon="1.18857">
        <ele>70.3</ele>
        <time>2012-07-10T14:21:32Z</time>
      </trkpt>
      <trkpt lat="49.29538" lon="1.18845">
        <ele>71.3</ele>
        <time>2012-07-10T14:21:41Z</time>
      </trkpt>
      <trkpt lat="49.29541" lon="1.18835">
        <ele>71.9</ele>
        <time>2012-07-10T14:21:47Z</time>
      </trkpt>
      <trkpt lat="49.29545" lon="1.18826">
        <ele>72.3</ele>
        <time>2012-07-10T14:21:51Z</time>
      </trkpt>
      <trkpt lat="49.2955" lon="1.18816">
        <ele>71.5</ele>
        <time>2012-07-10T14:21:57Z</time>
      </trkpt>
      <trkpt lat="49.29555" lon="1.18805">
        <ele>70.9</ele>
        <time>2012-07-10T14:22:03Z</time>
      </trkpt>
      <trkpt lat="49.29556" lon="1.18803">
        <ele>70.5</ele>
        <time>2012-07-10T14:22:04Z</time>
      </trkpt>
      <trkpt lat="49.29566" lon="1.18788">
        <ele>70.5</ele>
        <time>2012-07-10T14:22:15Z</time>
      </trkpt>
      <trkpt lat="49.29571" lon="1.18778">
        <ele>68.8</ele>
        <time>2012-07-10T14:22:20Z</time>
      </trkpt>
      <trkpt lat="49.29576" lon="1.18769">
        <ele>67.4</ele>
        <time>2012-07-10T14:22:25Z</time>
      </trkpt>
      <trkpt lat="49.29581" lon="1.1876">
        <ele>67.4</ele>
        <time>2012-07-10T14:22:30Z</time>
      </trkpt>
      <trkpt lat="49.29586" lon="1.1875">
        <ele>66.5</ele>
        <time>2012-07-10T14:22:37Z</time>
      </trkpt>
      <trkpt lat="49.2959" lon="1.18739">
        <ele>65.9</ele>
        <time>2012-07-10T14:22:46Z</time>
      </trkpt>
      <trkpt lat="49.29595" lon="1.18729">
        <ele>65.3</ele>
        <time>2012-07-10T14:22:51Z</time>
      </trkpt>
      <trkpt lat="49.29601" lon="1.1872">
        <ele>65.8</ele>
        <time>2012-07-10T14:22:56Z</time>
      </trkpt>
      <trkpt lat="49.29605" lon="1.18711">
        <ele>66.3</ele>
        <time>2012-07-10T14:23:01Z</time>
      </trkpt>
      <trkpt lat="49.29611" lon="1.18701">
        <ele>67.5</ele>
        <time>2012-07-10T14:23:08Z</time>
      </trkpt>
      <trkpt lat="49.29611" lon="1.18699">
        <ele>67.5</ele>
        <time>2012-07-10T14:23:09Z</time>
      </trkpt>
      <trkpt lat="49.29622" lon="1.18682">
        <ele>68.5</ele>
        <time>2012-07-10T14:23:22Z</time>
      </trkpt>
      <trkpt lat="49.29625" lon="1.18672">
        <ele>68.8</ele>
        <time>2012-07-10T14:23:29Z</time>
      </trkpt>
      <trkpt lat="49.29631" lon="1.18662">
        <ele>69</ele>
        <time>2012-07-10T14:23:34Z</time>
      </trkpt>
      <trkpt lat="49.29637" lon="1.18652">
        <ele>69.1</ele>
        <time>2012-07-10T14:23:42Z</time>
      </trkpt>
      <trkpt lat="49.29642" lon="1.18641">
        <ele>68.9</ele>
        <time>2012-07-10T14:23:48Z</time>
      </trkpt>
      <trkpt lat="49.29646" lon="1.18631">
        <ele>68.3</ele>
        <time>2012-07-10T14:23:53Z</time>
      </trkpt>
      <trkpt lat="49.2965" lon="1.18619">
        <ele>69.3</ele>
        <time>2012-07-10T14:24:02Z</time>
      </trkpt>
      <trkpt lat="49.29656" lon="1.18609">
        <ele>68</ele>
        <time>2012-07-10T14:24:10Z</time>
      </trkpt>
      <trkpt lat="49.29657" lon="1.18607">
        <ele>68</ele>
        <time>2012-07-10T14:24:11Z</time>
      </trkpt>
      <trkpt lat="49.29656" lon="1.18585">
        <ele>67.8</ele>
        <time>2012-07-10T14:24:25Z</time>
      </trkpt>
      <trkpt lat="49.29654" lon="1.18572">
        <ele>70.1</ele>
        <time>2012-07-10T14:24:31Z</time>
      </trkpt>
      <trkpt lat="49.2965" lon="1.18561">
        <ele>71.3</ele>
        <time>2012-07-10T14:24:39Z</time>
      </trkpt>
      <trkpt lat="49.29645" lon="1.18552">
        <ele>72.4</ele>
        <time>2012-07-10T14:24:46Z</time>
      </trkpt>
      <trkpt lat="49.2964" lon="1.18541">
        <ele>73</ele>
        <time>2012-07-10T14:24:54Z</time>
      </trkpt>
      <trkpt lat="49.29634" lon="1.18531">
        <ele>74.4</ele>
        <time>2012-07-10T14:25:03Z</time>
      </trkpt>
      <trkpt lat="49.29627" lon="1.18526">
        <ele>76.1</ele>
        <time>2012-07-10T14:25:10Z</time>
      </trkpt>
      <trkpt lat="49.29621" lon="1.18517">
        <ele>77.4</ele>
        <time>2012-07-10T14:25:18Z</time>
      </trkpt>
      <trkpt lat="49.2962" lon="1.18515">
        <ele>77.5</ele>
        <time>2012-07-10T14:25:19Z</time>
      </trkpt>
      <trkpt lat="49.29609" lon="1.18499">
        <ele>76.6</ele>
        <time>2012-07-10T14:25:34Z</time>
      </trkpt>
      <trkpt lat="49.29603" lon="1.18489">
        <ele>76.8</ele>
        <time>2012-07-10T14:25:41Z</time>
      </trkpt>
      <trkpt lat="49.29596" lon="1.18482">
        <ele>75.9</ele>
        <time>2012-07-10T14:25:48Z</time>
      </trkpt>
      <trkpt lat="49.29589" lon="1.18474">
        <ele>75.8</ele>
        <time>2012-07-10T14:25:54Z</time>
      </trkpt>
      <trkpt lat="49.29584" lon="1.18463">
        <ele>77.4</ele>
        <time>2012-07-10T14:26:03Z</time>
      </trkpt>
      <trkpt lat="49.29578" lon="1.18457">
        <ele>78.3</ele>
        <time>2012-07-10T14:26:09Z</time>
      </trkpt>
      <trkpt lat="49.2957" lon="1.1845">
        <ele>80.6</ele>
        <time>2012-07-10T14:26:16Z</time>
      </trkpt>
      <trkpt lat="49.29565" lon="1.18441">
        <ele>81.5</ele>
        <time>2012-07-10T14:26:23Z</time>
      </trkpt>
      <trkpt lat="49.29564" lon="1.1844">
        <ele>80.6</ele>
        <time>2012-07-10T14:26:24Z</time>
      </trkpt>
      <trkpt lat="49.29552" lon="1.18424">
        <ele>78.6</ele>
        <time>2012-07-10T14:26:37Z</time>
      </trkpt>
      <trkpt lat="49.29545" lon="1.18418">
        <ele>79.5</ele>
        <time>2012-07-10T14:26:45Z</time>
      </trkpt>
      <trkpt lat="49.29538" lon="1.1841">
        <ele>81</ele>
        <time>2012-07-10T14:26:52Z</time>
      </trkpt>
      <trkpt lat="49.2953" lon="1.18402">
        <ele>81.3</ele>
        <time>2012-07-10T14:26:59Z</time>
      </trkpt>
      <trkpt lat="49.29524" lon="1.18396">
        <ele>79.6</ele>
        <time>2012-07-10T14:27:04Z</time>
      </trkpt>
      <trkpt lat="49.29517" lon="1.18391">
        <ele>78.5</ele>
        <time>2012-07-10T14:27:09Z</time>
      </trkpt>
      <trkpt lat="49.2951" lon="1.18385">
        <ele>77</ele>
        <time>2012-07-10T14:27:13Z</time>
      </trkpt>
      <trkpt lat="49.29503" lon="1.18377">
        <ele>74.6</ele>
        <time>2012-07-10T14:27:21Z</time>
      </trkpt>
      <trkpt lat="49.29497" lon="1.18372">
        <ele>73.5</ele>
        <time>2012-07-10T14:27:26Z</time>
      </trkpt>
      <trkpt lat="49.29495" lon="1.18371">
        <ele>73.5</ele>
        <time>2012-07-10T14:27:27Z</time>
      </trkpt>
      <trkpt lat="49.29483" lon="1.18358">
        <ele>73.1</ele>
        <time>2012-07-10T14:27:41Z</time>
      </trkpt>
      <trkpt lat="49.29479" lon="1.18347">
        <ele>73.4</ele>
        <time>2012-07-10T14:27:48Z</time>
      </trkpt>
      <trkpt lat="49.29474" lon="1.18338">
        <ele>74.3</ele>
        <time>2012-07-10T14:27:59Z</time>
      </trkpt>
      <trkpt lat="49.29467" lon="1.18329">
        <ele>72</ele>
        <time>2012-07-10T14:28:08Z</time>
      </trkpt>
      <trkpt lat="49.2946" lon="1.18325">
        <ele>71.1</ele>
        <time>2012-07-10T14:28:19Z</time>
      </trkpt>
      <trkpt lat="49.29453" lon="1.18317">
        <ele>67.5</ele>
        <time>2012-07-10T14:28:30Z</time>
      </trkpt>
      <trkpt lat="49.29451" lon="1.18316">
        <ele>67</ele>
        <time>2012-07-10T14:28:31Z</time>
      </trkpt>
      <trkpt lat="49.29441" lon="1.18307">
        <ele>64.9</ele>
        <time>2012-07-10T14:28:41Z</time>
      </trkpt>
      <trkpt lat="49.29434" lon="1.18297">
        <ele>62.4</ele>
        <time>2012-07-10T14:28:49Z</time>
      </trkpt>
      <trkpt lat="49.29429" lon="1.18286">
        <ele>62.7</ele>
        <time>2012-07-10T14:29:03Z</time>
      </trkpt>
      <trkpt lat="49.29424" lon="1.18275">
        <ele>61.5</ele>
        <time>2012-07-10T14:29:11Z</time>
      </trkpt>
      <trkpt lat="49.29423" lon="1.18263">
        <ele>60.5</ele>
        <time>2012-07-10T14:29:17Z</time>
      </trkpt>
      <trkpt lat="49.29425" lon="1.1825">
        <ele>59.5</ele>
        <time>2012-07-10T14:29:25Z</time>
      </trkpt>
      <trkpt lat="49.29428" lon="1.18238">
        <ele>57.2</ele>
        <time>2012-07-10T14:29:31Z</time>
      </trkpt>
      <trkpt lat="49.29429" lon="1.18236">
        <ele>57.2</ele>
        <time>2012-07-10T14:29:32Z</time>
      </trkpt>
      <trkpt lat="49.29431" lon="1.18212">
        <ele>56.4</ele>
        <time>2012-07-10T14:29:47Z</time>
      </trkpt>
      <trkpt lat="49.29434" lon="1.18199">
        <ele>55.7</ele>
        <time>2012-07-10T14:29:54Z</time>
      </trkpt>
      <trkpt lat="49.29438" lon="1.18188">
        <ele>52.7</ele>
        <time>2012-07-10T14:30:03Z</time>
      </trkpt>
      <trkpt lat="49.29442" lon="1.18176">
        <ele>52.4</ele>
        <time>2012-07-10T14:30:14Z</time>
      </trkpt>
      <trkpt lat="49.29446" lon="1.18166">
        <ele>51.5</ele>
        <time>2012-07-10T14:30:21Z</time>
      </trkpt>
      <trkpt lat="49.29449" lon="1.18154">
        <ele>51</ele>
        <time>2012-07-10T14:30:29Z</time>
      </trkpt>
      <trkpt lat="49.29452" lon="1.18142">
        <ele>50</ele>
        <time>2012-07-10T14:30:37Z</time>
      </trkpt>
      <trkpt lat="49.29452" lon="1.18141">
        <ele>50.2</ele>
        <time>2012-07-10T14:30:38Z</time>
      </trkpt>
      <trkpt lat="49.2946" lon="1.1812">
        <ele>49.2</ele>
        <time>2012-07-10T14:30:50Z</time>
      </trkpt>
      <trkpt lat="49.29465" lon="1.18109">
        <ele>48.5</ele>
        <time>2012-07-10T14:30:56Z</time>
      </trkpt>
      <trkpt lat="49.2947" lon="1.18098">
        <ele>49.5</ele>
        <time>2012-07-10T14:31:03Z</time>
      </trkpt>
      <trkpt lat="49.29475" lon="1.18087">
        <ele>49.2</ele>
        <time>2012-07-10T14:31:12Z</time>
      </trkpt>
      <trkpt lat="49.29479" lon="1.18078">
        <ele>48.5</ele>
        <time>2012-07-10T14:31:19Z</time>
      </trkpt>
      <trkpt lat="49.29486" lon="1.18069">
        <ele>47.2</ele>
        <time>2012-07-10T14:31:28Z</time>
      </trkpt>
      <trkpt lat="49.29491" lon="1.18059">
        <ele>46.5</ele>
        <time>2012-07-10T14:31:38Z</time>
      </trkpt>
      <trkpt lat="49.29492" lon="1.18058">
        <ele>46.5</ele>
        <time>2012-07-10T14:31:39Z</time>
      </trkpt>
      <trkpt lat="49.29503" lon="1.18044">
        <ele>46</ele>
        <time>2012-07-10T14:31:47Z</time>
      </trkpt>
      <trkpt lat="49.29509" lon="1.18035">
        <ele>45.7</ele>
        <time>2012-07-10T14:31:53Z</time>
      </trkpt>
      <trkpt lat="49.29515" lon="1.18027">
        <ele>45.2</ele>
        <time>2012-07-10T14:31:57Z</time>
      </trkpt>
      <trkpt lat="49.29521" lon="1.18018">
        <ele>44</ele>
        <time>2012-07-10T14:32:04Z</time>
      </trkpt>
      <trkpt lat="49.29526" lon="1.18008">
        <ele>43.9</ele>
        <time>2012-07-10T14:32:09Z</time>
      </trkpt>
      <trkpt lat="49.29532" lon="1.17999">
        <ele>43</ele>
        <time>2012-07-10T14:32:16Z</time>
      </trkpt>
      <trkpt lat="49.29538" lon="1.17992">
        <ele>43</ele>
        <time>2012-07-10T14:32:22Z</time>
      </trkpt>
      <trkpt lat="49.29544" lon="1.17983">
        <ele>42.9</ele>
        <time>2012-07-10T14:32:28Z</time>
      </trkpt>
      <trkpt lat="49.29549" lon="1.17974">
        <ele>44</ele>
        <time>2012-07-10T14:32:59Z</time>
      </trkpt>
      <trkpt lat="49.2955" lon="1.17972">
        <ele>44.2</ele>
        <time>2012-07-10T14:33:00Z</time>
      </trkpt>
      <trkpt lat="49.29558" lon="1.17951">
        <ele>43.2</ele>
        <time>2012-07-10T14:34:00Z</time>
      </trkpt>
      <trkpt lat="49.29559" lon="1.17951">
        <ele>43.5</ele>
        <time>2012-07-10T14:34:01Z</time>
      </trkpt>
      <trkpt lat="49.29573" lon="1.17938">
        <ele>42.7</ele>
        <time>2012-07-10T14:34:16Z</time>
      </trkpt>
      <trkpt lat="49.29578" lon="1.17931">
        <ele>41.9</ele>
        <time>2012-07-10T14:34:23Z</time>
      </trkpt>
      <trkpt lat="49.29585" lon="1.17922">
        <ele>41.2</ele>
        <time>2012-07-10T14:34:31Z</time>
      </trkpt>
      <trkpt lat="49.2959" lon="1.17912">
        <ele>40.9</ele>
        <time>2012-07-10T14:34:38Z</time>
      </trkpt>
      <trkpt lat="49.29597" lon="1.17903">
        <ele>41.2</ele>
        <time>2012-07-10T14:34:48Z</time>
      </trkpt>
      <trkpt lat="49.29603" lon="1.17894">
        <ele>41.7</ele>
        <time>2012-07-10T14:35:00Z</time>
      </trkpt>
      <trkpt lat="49.29609" lon="1.17885">
        <ele>41.7</ele>
        <time>2012-07-10T14:35:05Z</time>
      </trkpt>
      <trkpt lat="49.29609" lon="1.17884">
        <ele>42</ele>
        <time>2012-07-10T14:35:06Z</time>
      </trkpt>
      <trkpt lat="49.29618" lon="1.17866">
        <ele>40.7</ele>
        <time>2012-07-10T14:35:19Z</time>
      </trkpt>
      <trkpt lat="49.29622" lon="1.17856">
        <ele>40.2</ele>
        <time>2012-07-10T14:35:23Z</time>
      </trkpt>
      <trkpt lat="49.29627" lon="1.17846">
        <ele>39.2</ele>
        <time>2012-07-10T14:35:28Z</time>
      </trkpt>
      <trkpt lat="49.29632" lon="1.17838">
        <ele>38.5</ele>
        <time>2012-07-10T14:35:36Z</time>
      </trkpt>
      <trkpt lat="49.29639" lon="1.17829">
        <ele>38.2</ele>
        <time>2012-07-10T14:35:42Z</time>
      </trkpt>
      <trkpt lat="49.29646" lon="1.17821">
        <ele>38.2</ele>
        <time>2012-07-10T14:35:50Z</time>
      </trkpt>
      <trkpt lat="49.29651" lon="1.17812">
        <ele>38</ele>
        <time>2012-07-10T14:35:54Z</time>
      </trkpt>
      <trkpt lat="49.29655" lon="1.17802">
        <ele>37</ele>
        <time>2012-07-10T14:36:00Z</time>
      </trkpt>
      <trkpt lat="49.29662" lon="1.17795">
        <ele>37.2</ele>
        <time>2012-07-10T14:36:05Z</time>
      </trkpt>
      <trkpt lat="49.29667" lon="1.17787">
        <ele>39.5</ele>
        <time>2012-07-10T14:36:10Z</time>
      </trkpt>
      <trkpt lat="49.29668" lon="1.17785">
        <ele>39.5</ele>
        <time>2012-07-10T14:36:11Z</time>
      </trkpt>
      <trkpt lat="49.2968" lon="1.17772">
        <ele>38.2</ele>
        <time>2012-07-10T14:36:20Z</time>
      </trkpt>
      <trkpt lat="49.29686" lon="1.17764">
        <ele>37.2</ele>
        <time>2012-07-10T14:36:31Z</time>
      </trkpt>
      <trkpt lat="49.29693" lon="1.17757">
        <ele>36</ele>
        <time>2012-07-10T14:36:39Z</time>
      </trkpt>
      <trkpt lat="49.297" lon="1.17751">
        <ele>34.2</ele>
        <time>2012-07-10T14:36:47Z</time>
      </trkpt>
      <trkpt lat="49.29706" lon="1.17744">
        <ele>33.2</ele>
        <time>2012-07-10T14:36:54Z</time>
      </trkpt>
      <trkpt lat="49.29713" lon="1.17736">
        <ele>34.5</ele>
        <time>2012-07-10T14:37:03Z</time>
      </trkpt>
      <trkpt lat="49.29706" lon="1.1773">
        <ele>33.2</ele>
        <time>2012-07-10T14:37:25Z</time>
      </trkpt>
      <trkpt lat="49.29704" lon="1.1773">
        <ele>33.2</ele>
        <time>2012-07-10T14:37:26Z</time>
      </trkpt>
      <trkpt lat="49.29693" lon="1.17719">
        <ele>81.6</ele>
        <time>2012-07-10T14:37:51Z</time>
      </trkpt>
      <trkpt lat="49.29813" lon="1.17646">
        <ele>81.5</ele>
        <time>2012-07-10T14:37:52Z</time>
      </trkpt>
      <trkpt lat="49.29825" lon="1.17636">
        <ele>81.5</ele>
        <time>2012-07-10T14:37:53Z</time>
      </trkpt>
      <trkpt lat="49.29803" lon="1.17644">
        <ele>31.7</ele>
        <time>2012-07-10T14:37:54Z</time>
      </trkpt>
      <trkpt lat="49.29803" lon="1.17641">
        <ele>28.3</ele>
        <time>2012-07-10T14:37:55Z</time>
      </trkpt>
      <trkpt lat="49.29794" lon="1.17637">
        <ele>18.6</ele>
        <time>2012-07-10T14:37:57Z</time>
      </trkpt>
      <trkpt lat="49.29801" lon="1.17628">
        <ele>19.7</ele>
        <time>2012-07-10T14:38:06Z</time>
      </trkpt>
      <trkpt lat="49.29806" lon="1.17619">
        <ele>25.5</ele>
        <time>2012-07-10T14:38:12Z</time>
      </trkpt>
      <trkpt lat="49.29812" lon="1.1761">
        <ele>25.2</ele>
        <time>2012-07-10T14:38:21Z</time>
      </trkpt>
      <trkpt lat="49.29818" lon="1.17601">
        <ele>26.7</ele>
        <time>2012-07-10T14:38:28Z</time>
      </trkpt>
      <trkpt lat="49.2982" lon="1.176">
        <ele>26.6</ele>
        <time>2012-07-10T14:38:29Z</time>
      </trkpt>
      <trkpt lat="49.2983" lon="1.17584">
        <ele>25.2</ele>
        <time>2012-07-10T14:38:46Z</time>
      </trkpt>
      <trkpt lat="49.29836" lon="1.17575">
        <ele>26.2</ele>
        <time>2012-07-10T14:38:51Z</time>
      </trkpt>
      <trkpt lat="49.29841" lon="1.17566">
        <ele>27.7</ele>
        <time>2012-07-10T14:38:57Z</time>
      </trkpt>
      <trkpt lat="49.29848" lon="1.17558">
        <ele>30.3</ele>
        <time>2012-07-10T14:39:04Z</time>
      </trkpt>
      <trkpt lat="49.29853" lon="1.17549">
        <ele>31.7</ele>
        <time>2012-07-10T14:39:12Z</time>
      </trkpt>
      <trkpt lat="49.2986" lon="1.1754">
        <ele>30.2</ele>
        <time>2012-07-10T14:39:24Z</time>
      </trkpt>
      <trkpt lat="49.29866" lon="1.17532">
        <ele>29.7</ele>
        <time>2012-07-10T14:39:31Z</time>
      </trkpt>
      <trkpt lat="49.29867" lon="1.1753">
        <ele>30.1</ele>
        <time>2012-07-10T14:39:32Z</time>
      </trkpt>
      <trkpt lat="49.29877" lon="1.17515">
        <ele>29.6</ele>
        <time>2012-07-10T14:39:47Z</time>
      </trkpt>
      <trkpt lat="49.29883" lon="1.17506">
        <ele>29.1</ele>
        <time>2012-07-10T14:39:55Z</time>
      </trkpt>
      <trkpt lat="49.29889" lon="1.17497">
        <ele>28.1</ele>
        <time>2012-07-10T14:40:00Z</time>
      </trkpt>
      <trkpt lat="49.29894" lon="1.17489">
        <ele>27.8</ele>
        <time>2012-07-10T14:40:07Z</time>
      </trkpt>
      <trkpt lat="49.29901" lon="1.17481">
        <ele>27.8</ele>
        <time>2012-07-10T14:40:12Z</time>
      </trkpt>
      <trkpt lat="49.29909" lon="1.17476">
        <ele>28.6</ele>
        <time>2012-07-10T14:40:22Z</time>
      </trkpt>
      <trkpt lat="49.29917" lon="1.17473">
        <ele>28</ele>
        <time>2012-07-10T14:40:27Z</time>
      </trkpt>
      <trkpt lat="49.29924" lon="1.17472">
        <ele>27.5</ele>
        <time>2012-07-10T14:40:34Z</time>
      </trkpt>
      <trkpt lat="49.29926" lon="1.17471">
        <ele>27.2</ele>
        <time>2012-07-10T14:40:35Z</time>
      </trkpt>
      <trkpt lat="49.2994" lon="1.17472">
        <ele>26.6</ele>
        <time>2012-07-10T14:40:43Z</time>
      </trkpt>
      <trkpt lat="49.29948" lon="1.17476">
        <ele>26.7</ele>
        <time>2012-07-10T14:40:49Z</time>
      </trkpt>
      <trkpt lat="49.29956" lon="1.17479">
        <ele>26.7</ele>
        <time>2012-07-10T14:40:56Z</time>
      </trkpt>
      <trkpt lat="49.29963" lon="1.17483">
        <ele>27</ele>
        <time>2012-07-10T14:41:04Z</time>
      </trkpt>
      <trkpt lat="49.29971" lon="1.17487">
        <ele>27.8</ele>
        <time>2012-07-10T14:41:09Z</time>
      </trkpt>
      <trkpt lat="49.29978" lon="1.1749">
        <ele>27.5</ele>
        <time>2012-07-10T14:41:15Z</time>
      </trkpt>
      <trkpt lat="49.29986" lon="1.17494">
        <ele>28</ele>
        <time>2012-07-10T14:41:21Z</time>
      </trkpt>
      <trkpt lat="49.29993" lon="1.17499">
        <ele>28.5</ele>
        <time>2012-07-10T14:41:28Z</time>
      </trkpt>
      <trkpt lat="49.3" lon="1.17506">
        <ele>28.5</ele>
        <time>2012-07-10T14:41:34Z</time>
      </trkpt>
      <trkpt lat="49.30007" lon="1.17512">
        <ele>28.3</ele>
        <time>2012-07-10T14:41:40Z</time>
      </trkpt>
      <trkpt lat="49.30008" lon="1.17513">
        <ele>28.2</ele>
        <time>2012-07-10T14:41:41Z</time>
      </trkpt>
      <trkpt lat="49.3002" lon="1.17528">
        <ele>28.5</ele>
        <time>2012-07-10T14:41:53Z</time>
      </trkpt>
      <trkpt lat="49.30026" lon="1.17537">
        <ele>28.2</ele>
        <time>2012-07-10T14:41:59Z</time>
      </trkpt>
      <trkpt lat="49.30032" lon="1.17545">
        <ele>27.8</ele>
        <time>2012-07-10T14:42:05Z</time>
      </trkpt>
      <trkpt lat="49.30038" lon="1.17554">
        <ele>29</ele>
        <time>2012-07-10T14:42:11Z</time>
      </trkpt>
      <trkpt lat="49.30041" lon="1.17565">
        <ele>29.1</ele>
        <time>2012-07-10T14:42:17Z</time>
      </trkpt>
      <trkpt lat="49.30046" lon="1.17574">
        <ele>28.7</ele>
        <time>2012-07-10T14:42:23Z</time>
      </trkpt>
      <trkpt lat="49.3005" lon="1.17585">
        <ele>28.2</ele>
        <time>2012-07-10T14:42:29Z</time>
      </trkpt>
      <trkpt lat="49.30055" lon="1.17594">
        <ele>27.7</ele>
        <time>2012-07-10T14:42:35Z</time>
      </trkpt>
      <trkpt lat="49.3006" lon="1.17603">
        <ele>27.8</ele>
        <time>2012-07-10T14:42:41Z</time>
      </trkpt>
      <trkpt lat="49.30061" lon="1.17605">
        <ele>27.7</ele>
        <time>2012-07-10T14:42:42Z</time>
      </trkpt>
      <trkpt lat="49.3007" lon="1.17624">
        <ele>26.6</ele>
        <time>2012-07-10T14:42:53Z</time>
      </trkpt>
      <trkpt lat="49.30076" lon="1.17633">
        <ele>25.8</ele>
        <time>2012-07-10T14:43:00Z</time>
      </trkpt>
      <trkpt lat="49.30082" lon="1.17641">
        <ele>25.3</ele>
        <time>2012-07-10T14:43:07Z</time>
      </trkpt>
      <trkpt lat="49.30088" lon="1.1765">
        <ele>24.7</ele>
        <time>2012-07-10T14:43:15Z</time>
      </trkpt>
      <trkpt lat="49.30094" lon="1.17658">
        <ele>23.8</ele>
        <time>2012-07-10T14:43:21Z</time>
      </trkpt>
      <trkpt lat="49.30101" lon="1.17666">
        <ele>23.5</ele>
        <time>2012-07-10T14:43:28Z</time>
      </trkpt>
      <trkpt lat="49.30107" lon="1.17675">
        <ele>22.1</ele>
        <time>2012-07-10T14:43:34Z</time>
      </trkpt>
      <trkpt lat="49.30114" lon="1.17681">
        <ele>21.2</ele>
        <time>2012-07-10T14:43:42Z</time>
      </trkpt>
      <trkpt lat="49.30116" lon="1.17683">
        <ele>21.2</ele>
        <time>2012-07-10T14:43:43Z</time>
      </trkpt>
      <trkpt lat="49.30128" lon="1.17696">
        <ele>19.2</ele>
        <time>2012-07-10T14:43:54Z</time>
      </trkpt>
      <trkpt lat="49.30135" lon="1.17702">
        <ele>18.1</ele>
        <time>2012-07-10T14:44:00Z</time>
      </trkpt>
      <trkpt lat="49.30143" lon="1.17706">
        <ele>16.7</ele>
        <time>2012-07-10T14:44:08Z</time>
      </trkpt>
      <trkpt lat="49.3015" lon="1.17711">
        <ele>15.8</ele>
        <time>2012-07-10T14:44:16Z</time>
      </trkpt>
      <trkpt lat="49.30159" lon="1.17714">
        <ele>16</ele>
        <time>2012-07-10T14:44:23Z</time>
      </trkpt>
      <trkpt lat="49.30167" lon="1.17716">
        <ele>16</ele>
        <time>2012-07-10T14:44:31Z</time>
      </trkpt>
      <trkpt lat="49.30176" lon="1.17718">
        <ele>15.3</ele>
        <time>2012-07-10T14:44:42Z</time>
      </trkpt>
      <trkpt lat="49.30184" lon="1.17721">
        <ele>15</ele>
        <time>2012-07-10T14:44:49Z</time>
      </trkpt>
      <trkpt lat="49.30186" lon="1.17722">
        <ele>14.6</ele>
        <time>2012-07-10T14:44:50Z</time>
      </trkpt>
      <trkpt lat="49.30199" lon="1.17733">
        <ele>15.1</ele>
        <time>2012-07-10T14:45:05Z</time>
      </trkpt>
      <trkpt lat="49.30206" lon="1.17741">
        <ele>14</ele>
        <time>2012-07-10T14:45:11Z</time>
      </trkpt>
      <trkpt lat="49.30213" lon="1.17748">
        <ele>12.6</ele>
        <time>2012-07-10T14:45:18Z</time>
      </trkpt>
      <trkpt lat="49.30219" lon="1.17756">
        <ele>12.8</ele>
        <time>2012-07-10T14:45:32Z</time>
      </trkpt>
      <trkpt lat="49.30224" lon="1.17766">
        <ele>12.6</ele>
        <time>2012-07-10T14:45:38Z</time>
      </trkpt>
      <trkpt lat="49.3023" lon="1.17775">
        <ele>14.1</ele>
        <time>2012-07-10T14:45:44Z</time>
      </trkpt>
      <trkpt lat="49.30238" lon="1.17782">
        <ele>13.3</ele>
        <time>2012-07-10T14:45:49Z</time>
      </trkpt>
      <trkpt lat="49.30246" lon="1.17788">
        <ele>14.1</ele>
        <time>2012-07-10T14:45:57Z</time>
      </trkpt>
      <trkpt lat="49.30246" lon="1.17789">
        <ele>14.3</ele>
        <time>2012-07-10T14:45:58Z</time>
      </trkpt>
      <trkpt lat="49.30259" lon="1.17803">
        <ele>13.6</ele>
        <time>2012-07-10T14:46:18Z</time>
      </trkpt>
      <trkpt lat="49.30267" lon="1.17807">
        <ele>13.8</ele>
        <time>2012-07-10T14:46:36Z</time>
      </trkpt>
      <trkpt lat="49.30276" lon="1.1781">
        <ele>13.1</ele>
        <time>2012-07-10T14:46:41Z</time>
      </trkpt>
      <trkpt lat="49.30284" lon="1.17813">
        <ele>11</ele>
        <time>2012-07-10T14:46:45Z</time>
      </trkpt>
      <trkpt lat="49.30291" lon="1.17817">
        <ele>9.6</ele>
        <time>2012-07-10T14:46:50Z</time>
      </trkpt>
      <trkpt lat="49.303" lon="1.17818">
        <ele>7.8</ele>
        <time>2012-07-10T14:46:55Z</time>
      </trkpt>
      <trkpt lat="49.30308" lon="1.17817">
        <ele>6.4</ele>
        <time>2012-07-10T14:47:15Z</time>
      </trkpt>
      <trkpt lat="49.30309" lon="1.17816">
        <ele>5.5</ele>
        <time>2012-07-10T14:47:16Z</time>
      </trkpt>
      <trkpt lat="49.30307" lon="1.17842">
        <ele>5.1</ele>
        <time>2012-07-10T14:48:11Z</time>
      </trkpt>
      <trkpt lat="49.30307" lon="1.17855">
        <ele>5.6</ele>
        <time>2012-07-10T14:48:18Z</time>
      </trkpt>
      <trkpt lat="49.30307" lon="1.17856">
        <ele>6</ele>
        <time>2012-07-10T14:48:19Z</time>
      </trkpt>
      <trkpt lat="49.30306" lon="1.1788">
        <ele>6</ele>
        <time>2012-07-10T14:48:32Z</time>
      </trkpt>
      <trkpt lat="49.30306" lon="1.17893">
        <ele>7</ele>
        <time>2012-07-10T14:48:40Z</time>
      </trkpt>
      <trkpt lat="49.30305" lon="1.17907">
        <ele>7.3</ele>
        <time>2012-07-10T14:48:48Z</time>
      </trkpt>
      <trkpt lat="49.30304" lon="1.1792">
        <ele>6.6</ele>
        <time>2012-07-10T14:48:56Z</time>
      </trkpt>
      <trkpt lat="49.30302" lon="1.17933">
        <ele>5.8</ele>
        <time>2012-07-10T14:49:03Z</time>
      </trkpt>
      <trkpt lat="49.303" lon="1.17946">
        <ele>5.8</ele>
        <time>2012-07-10T14:49:11Z</time>
      </trkpt>
      <trkpt lat="49.30299" lon="1.17958">
        <ele>5.5</ele>
        <time>2012-07-10T14:49:17Z</time>
      </trkpt>
      <trkpt lat="49.30298" lon="1.17971">
        <ele>5.3</ele>
        <time>2012-07-10T14:49:24Z</time>
      </trkpt>
      <trkpt lat="49.30297" lon="1.17972">
        <ele>5.3</ele>
        <time>2012-07-10T14:49:25Z</time>
      </trkpt>
      <trkpt lat="49.30295" lon="1.17996">
        <ele>5.3</ele>
        <time>2012-07-10T14:49:38Z</time>
      </trkpt>
      <trkpt lat="49.30292" lon="1.18008">
        <ele>4.9</ele>
        <time>2012-07-10T14:49:44Z</time>
      </trkpt>
      <trkpt lat="49.30291" lon="1.18021">
        <ele>4.1</ele>
        <time>2012-07-10T14:49:51Z</time>
      </trkpt>
      <trkpt lat="49.3029" lon="1.18034">
        <ele>3.7</ele>
        <time>2012-07-10T14:49:58Z</time>
      </trkpt>
      <trkpt lat="49.30289" lon="1.18047">
        <ele>3.9</ele>
        <time>2012-07-10T14:50:05Z</time>
      </trkpt>
      <trkpt lat="49.30289" lon="1.18059">
        <ele>4.6</ele>
        <time>2012-07-10T14:50:12Z</time>
      </trkpt>
      <trkpt lat="49.30288" lon="1.18073">
        <ele>4.9</ele>
        <time>2012-07-10T14:50:19Z</time>
      </trkpt>
      <trkpt lat="49.30289" lon="1.18086">
        <ele>4.1</ele>
        <time>2012-07-10T14:50:30Z</time>
      </trkpt>
      <trkpt lat="49.3029" lon="1.18088">
        <ele>4.3</ele>
        <time>2012-07-10T14:50:31Z</time>
      </trkpt>
      <trkpt lat="49.30301" lon="1.18105">
        <ele>3.7</ele>
        <time>2012-07-10T14:50:49Z</time>
      </trkpt>
      <trkpt lat="49.30308" lon="1.18114">
        <ele>3.5</ele>
        <time>2012-07-10T14:51:02Z</time>
      </trkpt>
      <trkpt lat="49.30315" lon="1.18122">
        <ele>3.2</ele>
        <time>2012-07-10T14:51:14Z</time>
      </trkpt>
      <trkpt lat="49.30322" lon="1.18129">
        <ele>2</ele>
        <time>2012-07-10T14:51:23Z</time>
      </trkpt>
      <trkpt lat="49.3033" lon="1.18133">
        <ele>1.5</ele>
        <time>2012-07-10T14:51:28Z</time>
      </trkpt>
      <trkpt lat="49.30338" lon="1.18136">
        <ele>0.6</ele>
        <time>2012-07-10T14:51:36Z</time>
      </trkpt>
      <trkpt lat="49.3034" lon="1.18136">
        <ele>0.8</ele>
        <time>2012-07-10T14:51:37Z</time>
      </trkpt>
      <trkpt lat="49.30353" lon="1.18133">
        <ele>0.8</ele>
        <time>2012-07-10T14:51:48Z</time>
      </trkpt>
      <trkpt lat="49.30361" lon="1.18132">
        <ele>0.8</ele>
        <time>2012-07-10T14:51:53Z</time>
      </trkpt>
      <trkpt lat="49.3037" lon="1.18131">
        <ele>0.1</ele>
        <time>2012-07-10T14:51:59Z</time>
      </trkpt>
      <trkpt lat="49.30378" lon="1.18131">
        <ele>0.6</ele>
        <time>2012-07-10T14:52:05Z</time>
      </trkpt>
      <trkpt lat="49.30387" lon="1.18128">
        <ele>1.5</ele>
        <time>2012-07-10T14:52:11Z</time>
      </trkpt>
      <trkpt lat="49.30395" lon="1.18128">
        <ele>1.8</ele>
        <time>2012-07-10T14:52:17Z</time>
      </trkpt>
      <trkpt lat="49.30403" lon="1.18128">
        <ele>1.7</ele>
        <time>2012-07-10T14:52:23Z</time>
      </trkpt>
      <trkpt lat="49.30411" lon="1.18127">
        <ele>1.6</ele>
        <time>2012-07-10T14:52:29Z</time>
      </trkpt>
      <trkpt lat="49.30419" lon="1.18128">
        <ele>1.8</ele>
        <time>2012-07-10T14:52:38Z</time>
      </trkpt>
      <trkpt lat="49.30421" lon="1.18128">
        <ele>1.7</ele>
        <time>2012-07-10T14:52:39Z</time>
      </trkpt>
      <trkpt lat="49.30436" lon="1.18127">
        <ele>2.9</ele>
        <time>2012-07-10T14:52:55Z</time>
      </trkpt>
      <trkpt lat="49.30444" lon="1.18128">
        <ele>2.9</ele>
        <time>2012-07-10T14:53:01Z</time>
      </trkpt>
      <trkpt lat="49.30453" lon="1.1813">
        <ele>3</ele>
        <time>2012-07-10T14:53:07Z</time>
      </trkpt>
      <trkpt lat="49.3046" lon="1.18132">
        <ele>2.2</ele>
        <time>2012-07-10T14:53:12Z</time>
      </trkpt>
      <trkpt lat="49.30469" lon="1.18136">
        <ele>1.7</ele>
        <time>2012-07-10T14:53:21Z</time>
      </trkpt>
      <trkpt lat="49.30477" lon="1.18139">
        <ele>2</ele>
        <time>2012-07-10T14:53:31Z</time>
      </trkpt>
      <trkpt lat="49.30485" lon="1.18141">
        <ele>2.2</ele>
        <time>2012-07-10T14:53:39Z</time>
      </trkpt>
      <trkpt lat="49.30486" lon="1.18142">
        <ele>2.2</ele>
        <time>2012-07-10T14:53:40Z</time>
      </trkpt>
      <trkpt lat="49.305" lon="1.1814">
        <ele>1.7</ele>
        <time>2012-07-10T14:53:51Z</time>
      </trkpt>
      <trkpt lat="49.30509" lon="1.1814">
        <ele>1.7</ele>
        <time>2012-07-10T14:53:57Z</time>
      </trkpt>
      <trkpt lat="49.30517" lon="1.18139">
        <ele>1.3</ele>
        <time>2012-07-10T14:54:02Z</time>
      </trkpt>
      <trkpt lat="49.30525" lon="1.1814">
        <ele>1.1</ele>
        <time>2012-07-10T14:54:08Z</time>
      </trkpt>
      <trkpt lat="49.30534" lon="1.18142">
        <ele>1.7</ele>
        <time>2012-07-10T14:54:15Z</time>
      </trkpt>
      <trkpt lat="49.30541" lon="1.18147">
        <ele>2.7</ele>
        <time>2012-07-10T14:54:22Z</time>
      </trkpt>
      <trkpt lat="49.30547" lon="1.18157">
        <ele>3.4</ele>
        <time>2012-07-10T14:54:29Z</time>
      </trkpt>
      <trkpt lat="49.30551" lon="1.18169">
        <ele>3.7</ele>
        <time>2012-07-10T14:54:37Z</time>
      </trkpt>
      <trkpt lat="49.30557" lon="1.1818">
        <ele>4</ele>
        <time>2012-07-10T14:54:44Z</time>
      </trkpt>
      <trkpt lat="49.30557" lon="1.18182">
        <ele>4.3</ele>
        <time>2012-07-10T14:54:45Z</time>
      </trkpt>
      <trkpt lat="49.30564" lon="1.18202">
        <ele>4.9</ele>
        <time>2012-07-10T14:54:58Z</time>
      </trkpt>
      <trkpt lat="49.30567" lon="1.18215">
        <ele>5.3</ele>
        <time>2012-07-10T14:55:07Z</time>
      </trkpt>
      <trkpt lat="49.30569" lon="1.18227">
        <ele>6</ele>
        <time>2012-07-10T14:55:15Z</time>
      </trkpt>
      <trkpt lat="49.3057" lon="1.18239">
        <ele>6.8</ele>
        <time>2012-07-10T14:55:22Z</time>
      </trkpt>
      <trkpt lat="49.30572" lon="1.18251">
        <ele>5.9</ele>
        <time>2012-07-10T14:55:28Z</time>
      </trkpt>
      <trkpt lat="49.30573" lon="1.18263">
        <ele>5</ele>
        <time>2012-07-10T14:55:34Z</time>
      </trkpt>
      <trkpt lat="49.30574" lon="1.18275">
        <ele>5.6</ele>
        <time>2012-07-10T14:55:41Z</time>
      </trkpt>
      <trkpt lat="49.30576" lon="1.18288">
        <ele>5.8</ele>
        <time>2012-07-10T14:55:49Z</time>
      </trkpt>
      <trkpt lat="49.30577" lon="1.18289">
        <ele>5.9</ele>
        <time>2012-07-10T14:55:50Z</time>
      </trkpt>
      <trkpt lat="49.30582" lon="1.18312">
        <ele>6.3</ele>
        <time>2012-07-10T14:56:07Z</time>
      </trkpt>
      <trkpt lat="49.30585" lon="1.18324">
        <ele>5.5</ele>
        <time>2012-07-10T14:56:13Z</time>
      </trkpt>
      <trkpt lat="49.30587" lon="1.18336">
        <ele>5.4</ele>
        <time>2012-07-10T14:56:19Z</time>
      </trkpt>
      <trkpt lat="49.30589" lon="1.18348">
        <ele>5.9</ele>
        <time>2012-07-10T14:56:25Z</time>
      </trkpt>
      <trkpt lat="49.30593" lon="1.18359">
        <ele>5</ele>
        <time>2012-07-10T14:56:31Z</time>
      </trkpt>
      <trkpt lat="49.30597" lon="1.18371">
        <ele>4.9</ele>
        <time>2012-07-10T14:56:38Z</time>
      </trkpt>
      <trkpt lat="49.30599" lon="1.18383">
        <ele>5.1</ele>
        <time>2012-07-10T14:56:46Z</time>
      </trkpt>
      <trkpt lat="49.30602" lon="1.18394">
        <ele>4</ele>
        <time>2012-07-10T14:56:52Z</time>
      </trkpt>
      <trkpt lat="49.30603" lon="1.18396">
        <ele>4</ele>
        <time>2012-07-10T14:56:53Z</time>
      </trkpt>
      <trkpt lat="49.3061" lon="1.18418">
        <ele>4</ele>
        <time>2012-07-10T14:57:06Z</time>
      </trkpt>
      <trkpt lat="49.30613" lon="1.18431">
        <ele>3.9</ele>
        <time>2012-07-10T14:57:14Z</time>
      </trkpt>
      <trkpt lat="49.30616" lon="1.18443">
        <ele>2.5</ele>
        <time>2012-07-10T14:57:21Z</time>
      </trkpt>
      <trkpt lat="49.30617" lon="1.18455">
        <ele>3.2</ele>
        <time>2012-07-10T14:57:28Z</time>
      </trkpt>
      <trkpt lat="49.3062" lon="1.18466">
        <ele>3</ele>
        <time>2012-07-10T14:57:35Z</time>
      </trkpt>
      <trkpt lat="49.30622" lon="1.18479">
        <ele>3.2</ele>
        <time>2012-07-10T14:57:42Z</time>
      </trkpt>
      <trkpt lat="49.30625" lon="1.18492">
        <ele>3</ele>
        <time>2012-07-10T14:57:49Z</time>
      </trkpt>
      <trkpt lat="49.30627" lon="1.18505">
        <ele>3.2</ele>
        <time>2012-07-10T14:57:56Z</time>
      </trkpt>
      <trkpt lat="49.30628" lon="1.18507">
        <ele>3.2</ele>
        <time>2012-07-10T14:57:57Z</time>
      </trkpt>
      <trkpt lat="49.30632" lon="1.1853">
        <ele>3</ele>
        <time>2012-07-10T14:58:12Z</time>
      </trkpt>
      <trkpt lat="49.30634" lon="1.18542">
        <ele>2.7</ele>
        <time>2012-07-10T14:58:19Z</time>
      </trkpt>
      <trkpt lat="49.30638" lon="1.18554">
        <ele>1.5</ele>
        <time>2012-07-10T14:58:26Z</time>
      </trkpt>
      <trkpt lat="49.30641" lon="1.18566">
        <ele>2.2</ele>
        <time>2012-07-10T14:58:32Z</time>
      </trkpt>
      <trkpt lat="49.30643" lon="1.18579">
        <ele>1.2</ele>
        <time>2012-07-10T14:58:38Z</time>
      </trkpt>
      <trkpt lat="49.30645" lon="1.18591">
        <ele>0.8</ele>
        <time>2012-07-10T14:58:44Z</time>
      </trkpt>
      <trkpt lat="49.30647" lon="1.18603">
        <ele>0.2</ele>
        <time>2012-07-10T14:58:50Z</time>
      </trkpt>
      <trkpt lat="49.30649" lon="1.18615">
        <ele>1.2</ele>
        <time>2012-07-10T14:58:58Z</time>
      </trkpt>
      <trkpt lat="49.30649" lon="1.18617">
        <ele>1.1</ele>
        <time>2012-07-10T14:58:59Z</time>
      </trkpt>
      <trkpt lat="49.30652" lon="1.18642">
        <ele>2.7</ele>
        <time>2012-07-10T14:59:12Z</time>
      </trkpt>
      <trkpt lat="49.30655" lon="1.18654">
        <ele>4</ele>
        <time>2012-07-10T14:59:19Z</time>
      </trkpt>
      <trkpt lat="49.30657" lon="1.18667">
        <ele>4.5</ele>
        <time>2012-07-10T14:59:25Z</time>
      </trkpt>
      <trkpt lat="49.30658" lon="1.1868">
        <ele>4.1</ele>
        <time>2012-07-10T14:59:31Z</time>
      </trkpt>
      <trkpt lat="49.30659" lon="1.18692">
        <ele>4</ele>
        <time>2012-07-10T14:59:38Z</time>
      </trkpt>
      <trkpt lat="49.30659" lon="1.18704">
        <ele>4.1</ele>
        <time>2012-07-10T14:59:44Z</time>
      </trkpt>
      <trkpt lat="49.3066" lon="1.18717">
        <ele>3.5</ele>
        <time>2012-07-10T14:59:51Z</time>
      </trkpt>
      <trkpt lat="49.3066" lon="1.18731">
        <ele>2.2</ele>
        <time>2012-07-10T14:59:58Z</time>
      </trkpt>
      <trkpt lat="49.3066" lon="1.18744">
        <ele>2.5</ele>
        <time>2012-07-10T15:00:05Z</time>
      </trkpt>
      <trkpt lat="49.3066" lon="1.18746">
        <ele>2.5</ele>
        <time>2012-07-10T15:00:06Z</time>
      </trkpt>
      <trkpt lat="49.30661" lon="1.18771">
        <ele>2.2</ele>
        <time>2012-07-10T15:00:19Z</time>
      </trkpt>
      <trkpt lat="49.30661" lon="1.18784">
        <ele>2.5</ele>
        <time>2012-07-10T15:00:27Z</time>
      </trkpt>
      <trkpt lat="49.30661" lon="1.18797">
        <ele>2.7</ele>
        <time>2012-07-10T15:00:33Z</time>
      </trkpt>
      <trkpt lat="49.30663" lon="1.18808">
        <ele>2.5</ele>
        <time>2012-07-10T15:00:39Z</time>
      </trkpt>
      <trkpt lat="49.30666" lon="1.1882">
        <ele>3.2</ele>
        <time>2012-07-10T15:00:46Z</time>
      </trkpt>
      <trkpt lat="49.30669" lon="1.18831">
        <ele>3.4</ele>
        <time>2012-07-10T15:00:52Z</time>
      </trkpt>
      <trkpt lat="49.30673" lon="1.18842">
        <ele>3.4</ele>
        <time>2012-07-10T15:00:58Z</time>
      </trkpt>
      <trkpt lat="49.30675" lon="1.18854">
        <ele>3.2</ele>
        <time>2012-07-10T15:01:04Z</time>
      </trkpt>
      <trkpt lat="49.30678" lon="1.18865">
        <ele>3</ele>
        <time>2012-07-10T15:01:10Z</time>
      </trkpt>
      <trkpt lat="49.30679" lon="1.18866">
        <ele>2.9</ele>
        <time>2012-07-10T15:01:11Z</time>
      </trkpt>
      <trkpt lat="49.30685" lon="1.18889">
        <ele>4</ele>
        <time>2012-07-10T15:01:24Z</time>
      </trkpt>
      <trkpt lat="49.30687" lon="1.18902">
        <ele>4.4</ele>
        <time>2012-07-10T15:01:31Z</time>
      </trkpt>
      <trkpt lat="49.30688" lon="1.18914">
        <ele>5.3</ele>
        <time>2012-07-10T15:01:38Z</time>
      </trkpt>
      <trkpt lat="49.30689" lon="1.18927">
        <ele>6.3</ele>
        <time>2012-07-10T15:01:45Z</time>
      </trkpt>
      <trkpt lat="49.3069" lon="1.18941">
        <ele>6.4</ele>
        <time>2012-07-10T15:01:52Z</time>
      </trkpt>
      <trkpt lat="49.30691" lon="1.18953">
        <ele>6.8</ele>
        <time>2012-07-10T15:02:00Z</time>
      </trkpt>
      <trkpt lat="49.30692" lon="1.18966">
        <ele>6.9</ele>
        <time>2012-07-10T15:02:06Z</time>
      </trkpt>
      <trkpt lat="49.30695" lon="1.18978">
        <ele>5.8</ele>
        <time>2012-07-10T15:02:13Z</time>
      </trkpt>
      <trkpt lat="49.30695" lon="1.1898">
        <ele>5.9</ele>
        <time>2012-07-10T15:02:14Z</time>
      </trkpt>
      <trkpt lat="49.30697" lon="1.19003">
        <ele>6.9</ele>
        <time>2012-07-10T15:02:25Z</time>
      </trkpt>
      <trkpt lat="49.30698" lon="1.19016">
        <ele>7.4</ele>
        <time>2012-07-10T15:02:32Z</time>
      </trkpt>
      <trkpt lat="49.307" lon="1.19029">
        <ele>7.5</ele>
        <time>2012-07-10T15:02:39Z</time>
      </trkpt>
      <trkpt lat="49.30701" lon="1.19042">
        <ele>8.3</ele>
        <time>2012-07-10T15:02:50Z</time>
      </trkpt>
      <trkpt lat="49.30703" lon="1.19054">
        <ele>8.6</ele>
        <time>2012-07-10T15:02:56Z</time>
      </trkpt>
      <trkpt lat="49.30705" lon="1.19066">
        <ele>8.5</ele>
        <time>2012-07-10T15:03:02Z</time>
      </trkpt>
      <trkpt lat="49.30706" lon="1.19078">
        <ele>8.5</ele>
        <time>2012-07-10T15:03:09Z</time>
      </trkpt>
      <trkpt lat="49.30708" lon="1.19091">
        <ele>8</ele>
        <time>2012-07-10T15:03:16Z</time>
      </trkpt>
      <trkpt lat="49.30708" lon="1.19093">
        <ele>7.9</ele>
        <time>2012-07-10T15:03:17Z</time>
      </trkpt>
      <trkpt lat="49.30711" lon="1.19116">
        <ele>6.1</ele>
        <time>2012-07-10T15:03:29Z</time>
      </trkpt>
      <trkpt lat="49.30712" lon="1.19127">
        <ele>5.6</ele>
        <time>2012-07-10T15:03:35Z</time>
      </trkpt>
      <trkpt lat="49.30713" lon="1.19141">
        <ele>5.5</ele>
        <time>2012-07-10T15:03:42Z</time>
      </trkpt>
      <trkpt lat="49.30714" lon="1.19154">
        <ele>5</ele>
        <time>2012-07-10T15:03:49Z</time>
      </trkpt>
      <trkpt lat="49.30715" lon="1.19167">
        <ele>5</ele>
        <time>2012-07-10T15:03:56Z</time>
      </trkpt>
      <trkpt lat="49.30717" lon="1.1918">
        <ele>5.4</ele>
        <time>2012-07-10T15:04:04Z</time>
      </trkpt>
      <trkpt lat="49.30718" lon="1.19193">
        <ele>5.4</ele>
        <time>2012-07-10T15:04:11Z</time>
      </trkpt>
      <trkpt lat="49.3072" lon="1.19204">
        <ele>6</ele>
        <time>2012-07-10T15:04:18Z</time>
      </trkpt>
      <trkpt lat="49.3072" lon="1.19206">
        <ele>6</ele>
        <time>2012-07-10T15:04:19Z</time>
      </trkpt>
      <trkpt lat="49.30725" lon="1.1923">
        <ele>6.9</ele>
        <time>2012-07-10T15:04:31Z</time>
      </trkpt>
      <trkpt lat="49.30727" lon="1.19243">
        <ele>6.8</ele>
        <time>2012-07-10T15:04:38Z</time>
      </trkpt>
      <trkpt lat="49.3073" lon="1.19254">
        <ele>6.8</ele>
        <time>2012-07-10T15:04:45Z</time>
      </trkpt>
      <trkpt lat="49.30732" lon="1.19268">
        <ele>6.8</ele>
        <time>2012-07-10T15:04:52Z</time>
      </trkpt>
      <trkpt lat="49.30734" lon="1.1928">
        <ele>7</ele>
        <time>2012-07-10T15:04:59Z</time>
      </trkpt>
      <trkpt lat="49.30737" lon="1.19293">
        <ele>6.9</ele>
        <time>2012-07-10T15:05:06Z</time>
      </trkpt>
      <trkpt lat="49.30742" lon="1.19304">
        <ele>7</ele>
        <time>2012-07-10T15:05:13Z</time>
      </trkpt>
      <trkpt lat="49.30748" lon="1.19313">
        <ele>7.4</ele>
        <time>2012-07-10T15:05:20Z</time>
      </trkpt>
      <trkpt lat="49.30748" lon="1.19314">
        <ele>7.3</ele>
        <time>2012-07-10T15:05:21Z</time>
      </trkpt>
      <trkpt lat="49.30756" lon="1.19336">
        <ele>8.1</ele>
        <time>2012-07-10T15:05:34Z</time>
      </trkpt>
      <trkpt lat="49.30757" lon="1.19348">
        <ele>8.6</ele>
        <time>2012-07-10T15:05:41Z</time>
      </trkpt>
      <trkpt lat="49.30759" lon="1.19361">
        <ele>8.8</ele>
        <time>2012-07-10T15:05:49Z</time>
      </trkpt>
      <trkpt lat="49.30761" lon="1.19374">
        <ele>9.3</ele>
        <time>2012-07-10T15:05:57Z</time>
      </trkpt>
      <trkpt lat="49.30764" lon="1.19388">
        <ele>9.3</ele>
        <time>2012-07-10T15:06:05Z</time>
      </trkpt>
      <trkpt lat="49.30766" lon="1.194">
        <ele>9.3</ele>
        <time>2012-07-10T15:06:12Z</time>
      </trkpt>
      <trkpt lat="49.30768" lon="1.19413">
        <ele>9.3</ele>
        <time>2012-07-10T15:06:20Z</time>
      </trkpt>
      <trkpt lat="49.30771" lon="1.19425">
        <ele>8.3</ele>
        <time>2012-07-10T15:06:27Z</time>
      </trkpt>
      <trkpt lat="49.30771" lon="1.19427">
        <ele>8.3</ele>
        <time>2012-07-10T15:06:28Z</time>
      </trkpt>
      <trkpt lat="49.30776" lon="1.19451">
        <ele>7.5</ele>
        <time>2012-07-10T15:06:41Z</time>
      </trkpt>
      <trkpt lat="49.30777" lon="1.19463">
        <ele>8.3</ele>
        <time>2012-07-10T15:06:48Z</time>
      </trkpt>
      <trkpt lat="49.30778" lon="1.19476">
        <ele>8.3</ele>
        <time>2012-07-10T15:06:55Z</time>
      </trkpt>
      <trkpt lat="49.3078" lon="1.19489">
        <ele>7.6</ele>
        <time>2012-07-10T15:07:02Z</time>
      </trkpt>
      <trkpt lat="49.30782" lon="1.19502">
        <ele>7.5</ele>
        <time>2012-07-10T15:07:09Z</time>
      </trkpt>
      <trkpt lat="49.30783" lon="1.19516">
        <ele>7.6</ele>
        <time>2012-07-10T15:07:17Z</time>
      </trkpt>
      <trkpt lat="49.30783" lon="1.19528">
        <ele>8</ele>
        <time>2012-07-10T15:07:25Z</time>
      </trkpt>
      <trkpt lat="49.30786" lon="1.19541">
        <ele>7.8</ele>
        <time>2012-07-10T15:07:32Z</time>
      </trkpt>
      <trkpt lat="49.30786" lon="1.19542">
        <ele>8.1</ele>
        <time>2012-07-10T15:07:33Z</time>
      </trkpt>
      <trkpt lat="49.30788" lon="1.19566">
        <ele>8.8</ele>
        <time>2012-07-10T15:07:44Z</time>
      </trkpt>
      <trkpt lat="49.30791" lon="1.19579">
        <ele>9.5</ele>
        <time>2012-07-10T15:07:52Z</time>
      </trkpt>
      <trkpt lat="49.30793" lon="1.1959">
        <ele>10.3</ele>
        <time>2012-07-10T15:07:58Z</time>
      </trkpt>
      <trkpt lat="49.30796" lon="1.19603">
        <ele>10.3</ele>
        <time>2012-07-10T15:08:06Z</time>
      </trkpt>
      <trkpt lat="49.30797" lon="1.19616">
        <ele>10</ele>
        <time>2012-07-10T15:08:13Z</time>
      </trkpt>
      <trkpt lat="49.30797" lon="1.19629">
        <ele>9.8</ele>
        <time>2012-07-10T15:08:19Z</time>
      </trkpt>
      <trkpt lat="49.30798" lon="1.19641">
        <ele>9.6</ele>
        <time>2012-07-10T15:08:25Z</time>
      </trkpt>
      <trkpt lat="49.308" lon="1.19654">
        <ele>8.3</ele>
        <time>2012-07-10T15:08:33Z</time>
      </trkpt>
      <trkpt lat="49.308" lon="1.19656">
        <ele>8.3</ele>
        <time>2012-07-10T15:08:34Z</time>
      </trkpt>
      <trkpt lat="49.30804" lon="1.1968">
        <ele>8</ele>
        <time>2012-07-10T15:08:47Z</time>
      </trkpt>
      <trkpt lat="49.30804" lon="1.19692">
        <ele>7.5</ele>
        <time>2012-07-10T15:08:53Z</time>
      </trkpt>
      <trkpt lat="49.30805" lon="1.19705">
        <ele>7</ele>
        <time>2012-07-10T15:09:00Z</time>
      </trkpt>
      <trkpt lat="49.30807" lon="1.19719">
        <ele>7.5</ele>
        <time>2012-07-10T15:09:08Z</time>
      </trkpt>
      <trkpt lat="49.30808" lon="1.19732">
        <ele>7.1</ele>
        <time>2012-07-10T15:09:15Z</time>
      </trkpt>
      <trkpt lat="49.3081" lon="1.19744">
        <ele>6.6</ele>
        <time>2012-07-10T15:09:22Z</time>
      </trkpt>
      <trkpt lat="49.30812" lon="1.19757">
        <ele>6.5</ele>
        <time>2012-07-10T15:09:29Z</time>
      </trkpt>
      <trkpt lat="49.30814" lon="1.19768">
        <ele>6.8</ele>
        <time>2012-07-10T15:09:36Z</time>
      </trkpt>
      <trkpt lat="49.30814" lon="1.19771">
        <ele>6.8</ele>
        <time>2012-07-10T15:09:37Z</time>
      </trkpt>
      <trkpt lat="49.30815" lon="1.19794">
        <ele>6.6</ele>
        <time>2012-07-10T15:09:50Z</time>
      </trkpt>
      <trkpt lat="49.30817" lon="1.19807">
        <ele>6.5</ele>
        <time>2012-07-10T15:09:57Z</time>
      </trkpt>
      <trkpt lat="49.3082" lon="1.19819">
        <ele>7</ele>
        <time>2012-07-10T15:10:04Z</time>
      </trkpt>
      <trkpt lat="49.30821" lon="1.19831">
        <ele>7.5</ele>
        <time>2012-07-10T15:10:10Z</time>
      </trkpt>
      <trkpt lat="49.30823" lon="1.19843">
        <ele>6.9</ele>
        <time>2012-07-10T15:10:16Z</time>
      </trkpt>
      <trkpt lat="49.30824" lon="1.19857">
        <ele>7</ele>
        <time>2012-07-10T15:10:23Z</time>
      </trkpt>
      <trkpt lat="49.30825" lon="1.19871">
        <ele>7.5</ele>
        <time>2012-07-10T15:10:31Z</time>
      </trkpt>
      <trkpt lat="49.30828" lon="1.19883">
        <ele>7.8</ele>
        <time>2012-07-10T15:10:38Z</time>
      </trkpt>
      <trkpt lat="49.30828" lon="1.19885">
        <ele>7.6</ele>
        <time>2012-07-10T15:10:39Z</time>
      </trkpt>
      <trkpt lat="49.3083" lon="1.19909">
        <ele>0.8</ele>
        <time>2012-07-10T15:12:08Z</time>
      </trkpt>
      <trkpt lat="49.3083" lon="1.1991">
        <ele>1.1</ele>
        <time>2012-07-10T15:12:09Z</time>
      </trkpt>
      <trkpt lat="49.30825" lon="1.19934">
        <ele>4.8</ele>
        <time>2012-07-10T15:12:48Z</time>
      </trkpt>
      <trkpt lat="49.30823" lon="1.19946">
        <ele>5.1</ele>
        <time>2012-07-10T15:12:55Z</time>
      </trkpt>
      <trkpt lat="49.30818" lon="1.19957">
        <ele>6.5</ele>
        <time>2012-07-10T15:13:04Z</time>
      </trkpt>
      <trkpt lat="49.30812" lon="1.19966">
        <ele>7.9</ele>
        <time>2012-07-10T15:13:32Z</time>
      </trkpt>
      <trkpt lat="49.30811" lon="1.19966">
        <ele>8.3</ele>
        <time>2012-07-10T15:13:33Z</time>
      </trkpt>
      <trkpt lat="49.30803" lon="1.19952">
        <ele>10.6</ele>
        <time>2012-07-10T15:14:49Z</time>
      </trkpt>
      <trkpt lat="49.30803" lon="1.1995">
        <ele>10.6</ele>
        <time>2012-07-10T15:14:50Z</time>
      </trkpt>
      <trkpt lat="49.30812" lon="1.19933">
        <ele>13.5</ele>
        <time>2012-07-10T15:15:22Z</time>
      </trkpt>
      <trkpt lat="49.30819" lon="1.19925">
        <ele>15.1</ele>
        <time>2012-07-10T15:15:39Z</time>
      </trkpt>
      <trkpt lat="49.30826" lon="1.19918">
        <ele>16.2</ele>
        <time>2012-07-10T15:15:47Z</time>
      </trkpt>
      <trkpt lat="49.30832" lon="1.19913">
        <ele>15.5</ele>
        <time>2012-07-10T15:15:54Z</time>
      </trkpt>
      <trkpt lat="49.30834" lon="1.19912">
        <ele>15.3</ele>
        <time>2012-07-10T15:15:55Z</time>
      </trkpt>
      <trkpt lat="49.30848" lon="1.19903">
        <ele>14.6</ele>
        <time>2012-07-10T15:16:09Z</time>
      </trkpt>
      <trkpt lat="49.30855" lon="1.19898">
        <ele>14.6</ele>
        <time>2012-07-10T15:16:16Z</time>
      </trkpt>
      <trkpt lat="49.30863" lon="1.19894">
        <ele>15.3</ele>
        <time>2012-07-10T15:16:23Z</time>
      </trkpt>
      <trkpt lat="49.3087" lon="1.19888">
        <ele>15.3</ele>
        <time>2012-07-10T15:16:31Z</time>
      </trkpt>
      <trkpt lat="49.30877" lon="1.19883">
        <ele>16.1</ele>
        <time>2012-07-10T15:16:48Z</time>
      </trkpt>
      <trkpt lat="49.30885" lon="1.19878">
        <ele>16.1</ele>
        <time>2012-07-10T15:16:54Z</time>
      </trkpt>
      <trkpt lat="49.30891" lon="1.19871">
        <ele>16.2</ele>
        <time>2012-07-10T15:16:59Z</time>
      </trkpt>
      <trkpt lat="49.30892" lon="1.1987">
        <ele>16.2</ele>
        <time>2012-07-10T15:17:00Z</time>
      </trkpt>
      <trkpt lat="49.30906" lon="1.1986">
        <ele>16</ele>
        <time>2012-07-10T15:17:11Z</time>
      </trkpt>
      <trkpt lat="49.30913" lon="1.19854">
        <ele>15.1</ele>
        <time>2012-07-10T15:17:17Z</time>
      </trkpt>
      <trkpt lat="49.3092" lon="1.19848">
        <ele>16.2</ele>
        <time>2012-07-10T15:17:25Z</time>
      </trkpt>
      <trkpt lat="49.30927" lon="1.19842">
        <ele>15.3</ele>
        <time>2012-07-10T15:17:33Z</time>
      </trkpt>
      <trkpt lat="49.30934" lon="1.19836">
        <ele>15</ele>
        <time>2012-07-10T15:17:41Z</time>
      </trkpt>
      <trkpt lat="49.30942" lon="1.1983">
        <ele>15.6</ele>
        <time>2012-07-10T15:17:49Z</time>
      </trkpt>
      <trkpt lat="49.3095" lon="1.19825">
        <ele>15.6</ele>
        <time>2012-07-10T15:17:56Z</time>
      </trkpt>
      <trkpt lat="49.30957" lon="1.19817">
        <ele>14.8</ele>
        <time>2012-07-10T15:18:04Z</time>
      </trkpt>
      <trkpt lat="49.30957" lon="1.19816">
        <ele>14.8</ele>
        <time>2012-07-10T15:18:05Z</time>
      </trkpt>
      <trkpt lat="49.3097" lon="1.19803">
        <ele>16</ele>
        <time>2012-07-10T15:18:21Z</time>
      </trkpt>
      <trkpt lat="49.30978" lon="1.19799">
        <ele>15.8</ele>
        <time>2012-07-10T15:18:28Z</time>
      </trkpt>
      <trkpt lat="49.30986" lon="1.19795">
        <ele>16.3</ele>
        <time>2012-07-10T15:18:37Z</time>
      </trkpt>
      <trkpt lat="49.30993" lon="1.1979">
        <ele>15.1</ele>
        <time>2012-07-10T15:18:44Z</time>
      </trkpt>
      <trkpt lat="49.30999" lon="1.19799">
        <ele>12.8</ele>
        <time>2012-07-10T15:19:34Z</time>
      </trkpt>
      <trkpt lat="49.30999" lon="1.19801">
        <ele>12.8</ele>
        <time>2012-07-10T15:19:35Z</time>
      </trkpt>
      <trkpt lat="49.3099" lon="1.1982">
        <ele>11.5</ele>
        <time>2012-07-10T15:19:49Z</time>
      </trkpt>
      <trkpt lat="49.30987" lon="1.19831">
        <ele>11.3</ele>
        <time>2012-07-10T15:19:59Z</time>
      </trkpt>
      <trkpt lat="49.30984" lon="1.19844">
        <ele>11.8</ele>
        <time>2012-07-10T15:20:06Z</time>
      </trkpt>
      <trkpt lat="49.30983" lon="1.19855">
        <ele>10.6</ele>
        <time>2012-07-10T15:20:12Z</time>
      </trkpt>
      <trkpt lat="49.30984" lon="1.19868">
        <ele>10.1</ele>
        <time>2012-07-10T15:20:18Z</time>
      </trkpt>
      <trkpt lat="49.30983" lon="1.19881">
        <ele>9.1</ele>
        <time>2012-07-10T15:20:25Z</time>
      </trkpt>
      <trkpt lat="49.30983" lon="1.19895">
        <ele>9.6</ele>
        <time>2012-07-10T15:20:32Z</time>
      </trkpt>
      <trkpt lat="49.30984" lon="1.19909">
        <ele>9.1</ele>
        <time>2012-07-10T15:20:42Z</time>
      </trkpt>
      <trkpt lat="49.30984" lon="1.19911">
        <ele>9.1</ele>
        <time>2012-07-10T15:20:43Z</time>
      </trkpt>
      <trkpt lat="49.30985" lon="1.19934">
        <ele>10.1</ele>
        <time>2012-07-10T15:20:58Z</time>
      </trkpt>
      <trkpt lat="49.30987" lon="1.19948">
        <ele>10.3</ele>
        <time>2012-07-10T15:21:05Z</time>
      </trkpt>
      <trkpt lat="49.30989" lon="1.19959">
        <ele>9.8</ele>
        <time>2012-07-10T15:21:12Z</time>
      </trkpt>
      <trkpt lat="49.30991" lon="1.19972">
        <ele>9.3</ele>
        <time>2012-07-10T15:21:18Z</time>
      </trkpt>
      <trkpt lat="49.30992" lon="1.19984">
        <ele>6.9</ele>
        <time>2012-07-10T15:21:25Z</time>
      </trkpt>
      <trkpt lat="49.30993" lon="1.19997">
        <ele>6.9</ele>
        <time>2012-07-10T15:21:31Z</time>
      </trkpt>
      <trkpt lat="49.30995" lon="1.2001">
        <ele>7.5</ele>
        <time>2012-07-10T15:21:40Z</time>
      </trkpt>
      <trkpt lat="49.30996" lon="1.20024">
        <ele>7</ele>
        <time>2012-07-10T15:21:47Z</time>
      </trkpt>
      <trkpt lat="49.30996" lon="1.20025">
        <ele>7.3</ele>
        <time>2012-07-10T15:21:48Z</time>
      </trkpt>
      <trkpt lat="49.30997" lon="1.20048">
        <ele>8.1</ele>
        <time>2012-07-10T15:22:01Z</time>
      </trkpt>
      <trkpt lat="49.30998" lon="1.20061">
        <ele>7.8</ele>
        <time>2012-07-10T15:22:06Z</time>
      </trkpt>
      <trkpt lat="49.30999" lon="1.20072">
        <ele>7.3</ele>
        <time>2012-07-10T15:22:12Z</time>
      </trkpt>
      <trkpt lat="49.30999" lon="1.20085">
        <ele>5.6</ele>
        <time>2012-07-10T15:22:18Z</time>
      </trkpt>
      <trkpt lat="49.31002" lon="1.20098">
        <ele>4.4</ele>
        <time>2012-07-10T15:22:24Z</time>
      </trkpt>
      <trkpt lat="49.31003" lon="1.20111">
        <ele>2.7</ele>
        <time>2012-07-10T15:22:31Z</time>
      </trkpt>
      <trkpt lat="49.31005" lon="1.20123">
        <ele>1.8</ele>
        <time>2012-07-10T15:22:37Z</time>
      </trkpt>
      <trkpt lat="49.31006" lon="1.20135">
        <ele>2.4</ele>
        <time>2012-07-10T15:22:47Z</time>
      </trkpt>
      <trkpt lat="49.31008" lon="1.20148">
        <ele>2.2</ele>
        <time>2012-07-10T15:22:54Z</time>
      </trkpt>
      <trkpt lat="49.31008" lon="1.20149">
        <ele>2.2</ele>
        <time>2012-07-10T15:22:55Z</time>
      </trkpt>
      <trkpt lat="49.31014" lon="1.20171">
        <ele>2.2</ele>
        <time>2012-07-10T15:23:08Z</time>
      </trkpt>
      <trkpt lat="49.31017" lon="1.20183">
        <ele>3</ele>
        <time>2012-07-10T15:23:15Z</time>
      </trkpt>
      <trkpt lat="49.31019" lon="1.20195">
        <ele>3</ele>
        <time>2012-07-10T15:23:22Z</time>
      </trkpt>
      <trkpt lat="49.31022" lon="1.20208">
        <ele>3.5</ele>
        <time>2012-07-10T15:23:29Z</time>
      </trkpt>
      <trkpt lat="49.31025" lon="1.2022">
        <ele>3.7</ele>
        <time>2012-07-10T15:23:35Z</time>
      </trkpt>
      <trkpt lat="49.31028" lon="1.20232">
        <ele>4.4</ele>
        <time>2012-07-10T15:23:43Z</time>
      </trkpt>
      <trkpt lat="49.31029" lon="1.20245">
        <ele>4</ele>
        <time>2012-07-10T15:23:50Z</time>
      </trkpt>
      <trkpt lat="49.31031" lon="1.20258">
        <ele>4.3</ele>
        <time>2012-07-10T15:23:57Z</time>
      </trkpt>
      <trkpt lat="49.31032" lon="1.2026">
        <ele>4.3</ele>
        <time>2012-07-10T15:23:58Z</time>
      </trkpt>
      <trkpt lat="49.31035" lon="1.20282">
        <ele>5.1</ele>
        <time>2012-07-10T15:24:11Z</time>
      </trkpt>
      <trkpt lat="49.31037" lon="1.20293">
        <ele>5.5</ele>
        <time>2012-07-10T15:24:17Z</time>
      </trkpt>
      <trkpt lat="49.31039" lon="1.20306">
        <ele>6</ele>
        <time>2012-07-10T15:24:24Z</time>
      </trkpt>
      <trkpt lat="49.31041" lon="1.20319">
        <ele>6.3</ele>
        <time>2012-07-10T15:24:32Z</time>
      </trkpt>
      <trkpt lat="49.31042" lon="1.20332">
        <ele>6.3</ele>
        <time>2012-07-10T15:24:39Z</time>
      </trkpt>
      <trkpt lat="49.31043" lon="1.20345">
        <ele>6.6</ele>
        <time>2012-07-10T15:24:46Z</time>
      </trkpt>
      <trkpt lat="49.31045" lon="1.20357">
        <ele>6.3</ele>
        <time>2012-07-10T15:24:57Z</time>
      </trkpt>
      <trkpt lat="49.31046" lon="1.2037">
        <ele>5.5</ele>
        <time>2012-07-10T15:25:14Z</time>
      </trkpt>
      <trkpt lat="49.31046" lon="1.20372">
        <ele>5.5</ele>
        <time>2012-07-10T15:25:15Z</time>
      </trkpt>
      <trkpt lat="49.3105" lon="1.20396">
        <ele>4.8</ele>
        <time>2012-07-10T15:25:27Z</time>
      </trkpt>
      <trkpt lat="49.31054" lon="1.20407">
        <ele>3.4</ele>
        <time>2012-07-10T15:25:34Z</time>
      </trkpt>
      <trkpt lat="49.31057" lon="1.20419">
        <ele>4.5</ele>
        <time>2012-07-10T15:25:40Z</time>
      </trkpt>
      <trkpt lat="49.31059" lon="1.20433">
        <ele>4.5</ele>
        <time>2012-07-10T15:25:46Z</time>
      </trkpt>
      <trkpt lat="49.3106" lon="1.20446">
        <ele>4</ele>
        <time>2012-07-10T15:25:53Z</time>
      </trkpt>
      <trkpt lat="49.31061" lon="1.20458">
        <ele>4.3</ele>
        <time>2012-07-10T15:26:00Z</time>
      </trkpt>
      <trkpt lat="49.31065" lon="1.20469">
        <ele>4.4</ele>
        <time>2012-07-10T15:26:07Z</time>
      </trkpt>
      <trkpt lat="49.31068" lon="1.20481">
        <ele>6.4</ele>
        <time>2012-07-10T15:26:15Z</time>
      </trkpt>
      <trkpt lat="49.31068" lon="1.20482">
        <ele>6.5</ele>
        <time>2012-07-10T15:26:16Z</time>
      </trkpt>
      <trkpt lat="49.31072" lon="1.20505">
        <ele>5.9</ele>
        <time>2012-07-10T15:26:27Z</time>
      </trkpt>
      <trkpt lat="49.31074" lon="1.20517">
        <ele>6.5</ele>
        <time>2012-07-10T15:26:33Z</time>
      </trkpt>
      <trkpt lat="49.31075" lon="1.20529">
        <ele>6.5</ele>
        <time>2012-07-10T15:26:40Z</time>
      </trkpt>
      <trkpt lat="49.31077" lon="1.20542">
        <ele>6.6</ele>
        <time>2012-07-10T15:26:47Z</time>
      </trkpt>
      <trkpt lat="49.31079" lon="1.20553">
        <ele>5.6</ele>
        <time>2012-07-10T15:26:54Z</time>
      </trkpt>
      <trkpt lat="49.31081" lon="1.20566">
        <ele>5.4</ele>
        <time>2012-07-10T15:27:01Z</time>
      </trkpt>
      <trkpt lat="49.31083" lon="1.20579">
        <ele>5.5</ele>
        <time>2012-07-10T15:27:09Z</time>
      </trkpt>
      <trkpt lat="49.31084" lon="1.20592">
        <ele>6.3</ele>
        <time>2012-07-10T15:27:16Z</time>
      </trkpt>
      <trkpt lat="49.31084" lon="1.20594">
        <ele>6</ele>
        <time>2012-07-10T15:27:17Z</time>
      </trkpt>
      <trkpt lat="49.31085" lon="1.20619">
        <ele>4.8</ele>
        <time>2012-07-10T15:27:30Z</time>
      </trkpt>
      <trkpt lat="49.31087" lon="1.20631">
        <ele>4.6</ele>
        <time>2012-07-10T15:27:37Z</time>
      </trkpt>
      <trkpt lat="49.31088" lon="1.20644">
        <ele>4.5</ele>
        <time>2012-07-10T15:27:44Z</time>
      </trkpt>
      <trkpt lat="49.31089" lon="1.20657">
        <ele>5.6</ele>
        <time>2012-07-10T15:27:52Z</time>
      </trkpt>
      <trkpt lat="49.31089" lon="1.20669">
        <ele>6.5</ele>
        <time>2012-07-10T15:28:09Z</time>
      </trkpt>
      <trkpt lat="49.3109" lon="1.20682">
        <ele>7.5</ele>
        <time>2012-07-10T15:28:15Z</time>
      </trkpt>
      <trkpt lat="49.31089" lon="1.20694">
        <ele>8.3</ele>
        <time>2012-07-10T15:28:21Z</time>
      </trkpt>
      <trkpt lat="49.31089" lon="1.20696">
        <ele>8.1</ele>
        <time>2012-07-10T15:28:22Z</time>
      </trkpt>
      <trkpt lat="49.31095" lon="1.20719">
        <ele>9.1</ele>
        <time>2012-07-10T15:28:35Z</time>
      </trkpt>
      <trkpt lat="49.31093" lon="1.20731">
        <ele>8.5</ele>
        <time>2012-07-10T15:28:44Z</time>
      </trkpt>
      <trkpt lat="49.31097" lon="1.20742">
        <ele>8.3</ele>
        <time>2012-07-10T15:28:51Z</time>
      </trkpt>
      <trkpt lat="49.311" lon="1.20751">
        <ele>8.5</ele>
        <time>2012-07-10T15:28:57Z</time>
      </trkpt>
      <trkpt lat="49.31103" lon="1.20764">
        <ele>7.5</ele>
        <time>2012-07-10T15:29:03Z</time>
      </trkpt>
      <trkpt lat="49.31105" lon="1.20776">
        <ele>8.3</ele>
        <time>2012-07-10T15:29:10Z</time>
      </trkpt>
      <trkpt lat="49.31105" lon="1.20788">
        <ele>7.4</ele>
        <time>2012-07-10T15:29:23Z</time>
      </trkpt>
      <trkpt lat="49.31105" lon="1.2079">
        <ele>7.3</ele>
        <time>2012-07-10T15:29:24Z</time>
      </trkpt>
      <trkpt lat="49.31107" lon="1.20811">
        <ele>5.4</ele>
        <time>2012-07-10T15:29:33Z</time>
      </trkpt>
      <trkpt lat="49.31108" lon="1.20825">
        <ele>5.5</ele>
        <time>2012-07-10T15:29:39Z</time>
      </trkpt>
      <trkpt lat="49.3111" lon="1.20836">
        <ele>4.9</ele>
        <time>2012-07-10T15:29:45Z</time>
      </trkpt>
      <trkpt lat="49.31113" lon="1.20849">
        <ele>6</ele>
        <time>2012-07-10T15:29:52Z</time>
      </trkpt>
      <trkpt lat="49.31116" lon="1.2086">
        <ele>5.5</ele>
        <time>2012-07-10T15:29:58Z</time>
      </trkpt>
      <trkpt lat="49.31119" lon="1.20873">
        <ele>6.1</ele>
        <time>2012-07-10T15:30:06Z</time>
      </trkpt>
      <trkpt lat="49.3112" lon="1.20885">
        <ele>7.3</ele>
        <time>2012-07-10T15:30:15Z</time>
      </trkpt>
      <trkpt lat="49.31124" lon="1.20897">
        <ele>7.4</ele>
        <time>2012-07-10T15:30:25Z</time>
      </trkpt>
      <trkpt lat="49.31124" lon="1.20899">
        <ele>7.5</ele>
        <time>2012-07-10T15:30:26Z</time>
      </trkpt>
      <trkpt lat="49.31126" lon="1.20922">
        <ele>8.6</ele>
        <time>2012-07-10T15:30:38Z</time>
      </trkpt>
      <trkpt lat="49.31126" lon="1.20935">
        <ele>8.6</ele>
        <time>2012-07-10T15:30:44Z</time>
      </trkpt>
      <trkpt lat="49.31127" lon="1.20948">
        <ele>7.1</ele>
        <time>2012-07-10T15:30:51Z</time>
      </trkpt>
      <trkpt lat="49.31128" lon="1.2096">
        <ele>7.5</ele>
        <time>2012-07-10T15:30:57Z</time>
      </trkpt>
      <trkpt lat="49.3113" lon="1.20974">
        <ele>7.5</ele>
        <time>2012-07-10T15:31:04Z</time>
      </trkpt>
      <trkpt lat="49.31132" lon="1.20986">
        <ele>7</ele>
        <time>2012-07-10T15:31:11Z</time>
      </trkpt>
      <trkpt lat="49.31135" lon="1.20998">
        <ele>6.9</ele>
        <time>2012-07-10T15:31:18Z</time>
      </trkpt>
      <trkpt lat="49.31139" lon="1.2101">
        <ele>6.8</ele>
        <time>2012-07-10T15:31:26Z</time>
      </trkpt>
      <trkpt lat="49.3114" lon="1.21012">
        <ele>6.5</ele>
        <time>2012-07-10T15:31:27Z</time>
      </trkpt>
      <trkpt lat="49.31147" lon="1.21031">
        <ele>4.6</ele>
        <time>2012-07-10T15:31:38Z</time>
      </trkpt>
      <trkpt lat="49.31149" lon="1.21043">
        <ele>4.5</ele>
        <time>2012-07-10T15:31:44Z</time>
      </trkpt>
      <trkpt lat="49.3115" lon="1.21056">
        <ele>4.5</ele>
        <time>2012-07-10T15:31:52Z</time>
      </trkpt>
      <trkpt lat="49.3115" lon="1.21069">
        <ele>3.9</ele>
        <time>2012-07-10T15:31:59Z</time>
      </trkpt>
      <trkpt lat="49.31151" lon="1.21082">
        <ele>3.7</ele>
        <time>2012-07-10T15:32:21Z</time>
      </trkpt>
      <trkpt lat="49.31154" lon="1.21095">
        <ele>4</ele>
        <time>2012-07-10T15:32:28Z</time>
      </trkpt>
      <trkpt lat="49.31155" lon="1.21097">
        <ele>4.1</ele>
        <time>2012-07-10T15:32:29Z</time>
      </trkpt>
      <trkpt lat="49.31158" lon="1.21119">
        <ele>4.1</ele>
        <time>2012-07-10T15:32:41Z</time>
      </trkpt>
      <trkpt lat="49.31162" lon="1.21131">
        <ele>3.9</ele>
        <time>2012-07-10T15:32:47Z</time>
      </trkpt>
      <trkpt lat="49.31164" lon="1.21144">
        <ele>3.2</ele>
        <time>2012-07-10T15:32:54Z</time>
      </trkpt>
      <trkpt lat="49.31167" lon="1.21156">
        <ele>2.9</ele>
        <time>2012-07-10T15:33:01Z</time>
      </trkpt>
      <trkpt lat="49.3117" lon="1.21168">
        <ele>2</ele>
        <time>2012-07-10T15:33:09Z</time>
      </trkpt>
      <trkpt lat="49.31172" lon="1.2118">
        <ele>2</ele>
        <time>2012-07-10T15:33:15Z</time>
      </trkpt>
      <trkpt lat="49.31175" lon="1.21192">
        <ele>2.5</ele>
        <time>2012-07-10T15:33:21Z</time>
      </trkpt>
      <trkpt lat="49.31178" lon="1.21203">
        <ele>2.9</ele>
        <time>2012-07-10T15:33:28Z</time>
      </trkpt>
      <trkpt lat="49.31177" lon="1.21215">
        <ele>0.6</ele>
        <time>2012-07-10T15:33:38Z</time>
      </trkpt>
      <trkpt lat="49.31177" lon="1.21217">
        <ele>1</ele>
        <time>2012-07-10T15:33:39Z</time>
      </trkpt>
      <trkpt lat="49.31175" lon="1.21242">
        <ele>0.4</ele>
        <time>2012-07-10T15:33:54Z</time>
      </trkpt>
      <trkpt lat="49.31175" lon="1.21256">
        <ele>1.3</ele>
        <time>2012-07-10T15:34:02Z</time>
      </trkpt>
      <trkpt lat="49.31173" lon="1.21269">
        <ele>2</ele>
        <time>2012-07-10T15:34:09Z</time>
      </trkpt>
      <trkpt lat="49.3117" lon="1.2128">
        <ele>1.3</ele>
        <time>2012-07-10T15:34:18Z</time>
      </trkpt>
      <trkpt lat="49.31168" lon="1.21291">
        <ele>1.7</ele>
        <time>2012-07-10T15:34:30Z</time>
      </trkpt>
      <trkpt lat="49.31166" lon="1.21303">
        <ele>1.7</ele>
        <time>2012-07-10T15:34:36Z</time>
      </trkpt>
      <trkpt lat="49.31165" lon="1.21316">
        <ele>2.2</ele>
        <time>2012-07-10T15:34:43Z</time>
      </trkpt>
      <trkpt lat="49.31165" lon="1.21318">
        <ele>2.4</ele>
        <time>2012-07-10T15:34:44Z</time>
      </trkpt>
      <trkpt lat="49.31162" lon="1.21341">
        <ele>2.7</ele>
        <time>2012-07-10T15:34:57Z</time>
      </trkpt>
      <trkpt lat="49.3116" lon="1.21354">
        <ele>3</ele>
        <time>2012-07-10T15:35:04Z</time>
      </trkpt>
      <trkpt lat="49.31158" lon="1.21367">
        <ele>3.9</ele>
        <time>2012-07-10T15:35:12Z</time>
      </trkpt>
      <trkpt lat="49.31157" lon="1.2138">
        <ele>5.6</ele>
        <time>2012-07-10T15:35:24Z</time>
      </trkpt>
      <trkpt lat="49.31156" lon="1.21393">
        <ele>7.3</ele>
        <time>2012-07-10T15:35:31Z</time>
      </trkpt>
      <trkpt lat="49.31154" lon="1.21406">
        <ele>9.1</ele>
        <time>2012-07-10T15:35:38Z</time>
      </trkpt>
      <trkpt lat="49.31154" lon="1.21419">
        <ele>10.6</ele>
        <time>2012-07-10T15:35:45Z</time>
      </trkpt>
      <trkpt lat="49.31154" lon="1.21421">
        <ele>11</ele>
        <time>2012-07-10T15:35:46Z</time>
      </trkpt>
      <trkpt lat="49.31151" lon="1.21444">
        <ele>11.3</ele>
        <time>2012-07-10T15:35:58Z</time>
      </trkpt>
      <trkpt lat="49.31148" lon="1.21455">
        <ele>11.3</ele>
        <time>2012-07-10T15:36:04Z</time>
      </trkpt>
      <trkpt lat="49.31145" lon="1.21467">
        <ele>10.6</ele>
        <time>2012-07-10T15:36:11Z</time>
      </trkpt>
      <trkpt lat="49.31143" lon="1.2148">
        <ele>10.6</ele>
        <time>2012-07-10T15:36:18Z</time>
      </trkpt>
      <trkpt lat="49.31139" lon="1.21491">
        <ele>10.8</ele>
        <time>2012-07-10T15:36:25Z</time>
      </trkpt>
      <trkpt lat="49.31135" lon="1.21502">
        <ele>9.6</ele>
        <time>2012-07-10T15:36:38Z</time>
      </trkpt>
      <trkpt lat="49.31131" lon="1.21514">
        <ele>9.3</ele>
        <time>2012-07-10T15:36:45Z</time>
      </trkpt>
      <trkpt lat="49.31129" lon="1.21526">
        <ele>9.6</ele>
        <time>2012-07-10T15:36:52Z</time>
      </trkpt>
      <trkpt lat="49.31129" lon="1.21527">
        <ele>9.5</ele>
        <time>2012-07-10T15:36:53Z</time>
      </trkpt>
      <trkpt lat="49.31125" lon="1.21551">
        <ele>13</ele>
        <time>2012-07-10T15:37:10Z</time>
      </trkpt>
      <trkpt lat="49.3112" lon="1.2156">
        <ele>13.3</ele>
        <time>2012-07-10T15:37:17Z</time>
      </trkpt>
      <trkpt lat="49.31116" lon="1.21572">
        <ele>14.6</ele>
        <time>2012-07-10T15:37:29Z</time>
      </trkpt>
      <trkpt lat="49.31113" lon="1.21584">
        <ele>14</ele>
        <time>2012-07-10T15:37:36Z</time>
      </trkpt>
      <trkpt lat="49.3111" lon="1.21595">
        <ele>12.8</ele>
        <time>2012-07-10T15:37:44Z</time>
      </trkpt>
      <trkpt lat="49.31107" lon="1.21608">
        <ele>11.5</ele>
        <time>2012-07-10T15:37:51Z</time>
      </trkpt>
      <trkpt lat="49.31106" lon="1.2162">
        <ele>10.5</ele>
        <time>2012-07-10T15:37:58Z</time>
      </trkpt>
      <trkpt lat="49.31106" lon="1.21622">
        <ele>10.8</ele>
        <time>2012-07-10T15:37:59Z</time>
      </trkpt>
      <trkpt lat="49.31104" lon="1.21646">
        <ele>9.8</ele>
        <time>2012-07-10T15:38:13Z</time>
      </trkpt>
      <trkpt lat="49.31103" lon="1.21658">
        <ele>9.3</ele>
        <time>2012-07-10T15:38:27Z</time>
      </trkpt>
      <trkpt lat="49.31101" lon="1.21671">
        <ele>9.5</ele>
        <time>2012-07-10T15:38:34Z</time>
      </trkpt>
      <trkpt lat="49.31099" lon="1.21683">
        <ele>9.6</ele>
        <time>2012-07-10T15:38:41Z</time>
      </trkpt>
      <trkpt lat="49.31098" lon="1.21696">
        <ele>9.1</ele>
        <time>2012-07-10T15:38:51Z</time>
      </trkpt>
      <trkpt lat="49.31099" lon="1.21709">
        <ele>8.1</ele>
        <time>2012-07-10T15:38:59Z</time>
      </trkpt>
      <trkpt lat="49.31099" lon="1.21711">
        <ele>8.1</ele>
        <time>2012-07-10T15:39:00Z</time>
      </trkpt>
      <trkpt lat="49.31098" lon="1.21736">
        <ele>7.1</ele>
        <time>2012-07-10T15:39:20Z</time>
      </trkpt>
      <trkpt lat="49.31097" lon="1.21749">
        <ele>6.1</ele>
        <time>2012-07-10T15:39:35Z</time>
      </trkpt>
      <trkpt lat="49.31097" lon="1.21762">
        <ele>5.3</ele>
        <time>2012-07-10T15:39:49Z</time>
      </trkpt>
      <trkpt lat="49.31099" lon="1.21775">
        <ele>5.1</ele>
        <time>2012-07-10T15:40:05Z</time>
      </trkpt>
      <trkpt lat="49.31098" lon="1.21776">
        <ele>5.3</ele>
        <time>2012-07-10T15:40:06Z</time>
      </trkpt>
      <trkpt lat="49.311" lon="1.21802">
        <ele>7</ele>
        <time>2012-07-10T15:40:26Z</time>
      </trkpt>
      <trkpt lat="49.311" lon="1.21815">
        <ele>7.4</ele>
        <time>2012-07-10T15:40:34Z</time>
      </trkpt>
      <trkpt lat="49.31101" lon="1.21828">
        <ele>7.8</ele>
        <time>2012-07-10T15:40:42Z</time>
      </trkpt>
      <trkpt lat="49.31101" lon="1.21842">
        <ele>7.9</ele>
        <time>2012-07-10T15:40:54Z</time>
      </trkpt>
      <trkpt lat="49.311" lon="1.21855">
        <ele>6.6</ele>
        <time>2012-07-10T15:41:10Z</time>
      </trkpt>
      <trkpt lat="49.311" lon="1.21857">
        <ele>6.5</ele>
        <time>2012-07-10T15:41:11Z</time>
      </trkpt>
      <trkpt lat="49.31099" lon="1.2188">
        <ele>5.8</ele>
        <time>2012-07-10T15:41:24Z</time>
      </trkpt>
      <trkpt lat="49.31099" lon="1.21891">
        <ele>5.8</ele>
        <time>2012-07-10T15:41:30Z</time>
      </trkpt>
      <trkpt lat="49.31099" lon="1.21905">
        <ele>6.3</ele>
        <time>2012-07-10T15:41:37Z</time>
      </trkpt>
      <trkpt lat="49.311" lon="1.21918">
        <ele>6.4</ele>
        <time>2012-07-10T15:41:44Z</time>
      </trkpt>
      <trkpt lat="49.311" lon="1.2193">
        <ele>6.8</ele>
        <time>2012-07-10T15:41:51Z</time>
      </trkpt>
      <trkpt lat="49.31101" lon="1.21943">
        <ele>7</ele>
        <time>2012-07-10T15:41:58Z</time>
      </trkpt>
      <trkpt lat="49.31102" lon="1.21956">
        <ele>7</ele>
        <time>2012-07-10T15:42:05Z</time>
      </trkpt>
      <trkpt lat="49.31102" lon="1.21969">
        <ele>6.5</ele>
        <time>2012-07-10T15:42:13Z</time>
      </trkpt>
      <trkpt lat="49.31102" lon="1.21971">
        <ele>6.1</ele>
        <time>2012-07-10T15:42:14Z</time>
      </trkpt>
      <trkpt lat="49.31103" lon="1.21995">
        <ele>6</ele>
        <time>2012-07-10T15:42:28Z</time>
      </trkpt>
      <trkpt lat="49.31104" lon="1.22008">
        <ele>6.4</ele>
        <time>2012-07-10T15:42:37Z</time>
      </trkpt>
      <trkpt lat="49.31105" lon="1.22021">
        <ele>6.3</ele>
        <time>2012-07-10T15:42:45Z</time>
      </trkpt>
      <trkpt lat="49.31106" lon="1.22034">
        <ele>7</ele>
        <time>2012-07-10T15:42:54Z</time>
      </trkpt>
      <trkpt lat="49.31107" lon="1.22046">
        <ele>7</ele>
        <time>2012-07-10T15:43:03Z</time>
      </trkpt>
      <trkpt lat="49.3111" lon="1.22058">
        <ele>6.9</ele>
        <time>2012-07-10T15:43:10Z</time>
      </trkpt>
      <trkpt lat="49.31112" lon="1.22071">
        <ele>7</ele>
        <time>2012-07-10T15:43:18Z</time>
      </trkpt>
      <trkpt lat="49.31112" lon="1.22073">
        <ele>7</ele>
        <time>2012-07-10T15:43:19Z</time>
      </trkpt>
      <trkpt lat="49.31111" lon="1.22098">
        <ele>6.8</ele>
        <time>2012-07-10T15:44:08Z</time>
      </trkpt>
      <trkpt lat="49.31112" lon="1.22111">
        <ele>7</ele>
        <time>2012-07-10T15:44:52Z</time>
      </trkpt>
      <trkpt lat="49.31112" lon="1.22112">
        <ele>6.5</ele>
        <time>2012-07-10T15:44:53Z</time>
      </trkpt>
      <trkpt lat="49.31112" lon="1.22137">
        <ele>6.4</ele>
        <time>2012-07-10T15:45:33Z</time>
      </trkpt>
      <trkpt lat="49.31113" lon="1.22151">
        <ele>6.6</ele>
        <time>2012-07-10T15:45:40Z</time>
      </trkpt>
      <trkpt lat="49.31113" lon="1.22164">
        <ele>6.4</ele>
        <time>2012-07-10T15:45:53Z</time>
      </trkpt>
      <trkpt lat="49.31113" lon="1.22166">
        <ele>6.1</ele>
        <time>2012-07-10T15:45:54Z</time>
      </trkpt>
      <trkpt lat="49.31115" lon="1.22189">
        <ele>6.5</ele>
        <time>2012-07-10T15:46:06Z</time>
      </trkpt>
      <trkpt lat="49.31117" lon="1.22203">
        <ele>6.8</ele>
        <time>2012-07-10T15:46:13Z</time>
      </trkpt>
      <trkpt lat="49.31118" lon="1.22216">
        <ele>6.9</ele>
        <time>2012-07-10T15:46:20Z</time>
      </trkpt>
      <trkpt lat="49.31119" lon="1.2223">
        <ele>6.1</ele>
        <time>2012-07-10T15:46:27Z</time>
      </trkpt>
      <trkpt lat="49.31121" lon="1.22243">
        <ele>6.5</ele>
        <time>2012-07-10T15:46:34Z</time>
      </trkpt>
      <trkpt lat="49.31122" lon="1.22254">
        <ele>6.1</ele>
        <time>2012-07-10T15:46:41Z</time>
      </trkpt>
      <trkpt lat="49.31124" lon="1.22267">
        <ele>6.4</ele>
        <time>2012-07-10T15:46:48Z</time>
      </trkpt>
      <trkpt lat="49.31125" lon="1.22279">
        <ele>6.3</ele>
        <time>2012-07-10T15:46:55Z</time>
      </trkpt>
      <trkpt lat="49.31125" lon="1.22281">
        <ele>6.5</ele>
        <time>2012-07-10T15:46:56Z</time>
      </trkpt>
      <trkpt lat="49.31127" lon="1.22305">
        <ele>6</ele>
        <time>2012-07-10T15:47:10Z</time>
      </trkpt>
      <trkpt lat="49.31129" lon="1.22319">
        <ele>6.3</ele>
        <time>2012-07-10T15:47:17Z</time>
      </trkpt>
      <trkpt lat="49.31131" lon="1.2233">
        <ele>6.1</ele>
        <time>2012-07-10T15:47:24Z</time>
      </trkpt>
      <trkpt lat="49.31133" lon="1.22343">
        <ele>6.4</ele>
        <time>2012-07-10T15:47:32Z</time>
      </trkpt>
      <trkpt lat="49.31135" lon="1.22355">
        <ele>6.4</ele>
        <time>2012-07-10T15:47:39Z</time>
      </trkpt>
      <trkpt lat="49.31137" lon="1.22367">
        <ele>6.5</ele>
        <time>2012-07-10T15:47:46Z</time>
      </trkpt>
      <trkpt lat="49.31142" lon="1.22377">
        <ele>6.4</ele>
        <time>2012-07-10T15:47:53Z</time>
      </trkpt>
      <trkpt lat="49.31147" lon="1.22386">
        <ele>6.9</ele>
        <time>2012-07-10T15:48:01Z</time>
      </trkpt>
      <trkpt lat="49.31148" lon="1.22388">
        <ele>6.9</ele>
        <time>2012-07-10T15:48:02Z</time>
      </trkpt>
      <trkpt lat="49.31159" lon="1.22405">
        <ele>5.9</ele>
        <time>2012-07-10T15:48:30Z</time>
      </trkpt>
      <trkpt lat="49.31166" lon="1.22411">
        <ele>5.3</ele>
        <time>2012-07-10T15:48:37Z</time>
      </trkpt>
      <trkpt lat="49.31172" lon="1.22419">
        <ele>4.3</ele>
        <time>2012-07-10T15:48:45Z</time>
      </trkpt>
      <trkpt lat="49.31179" lon="1.22425">
        <ele>3.7</ele>
        <time>2012-07-10T15:48:51Z</time>
      </trkpt>
      <trkpt lat="49.31186" lon="1.22432">
        <ele>4</ele>
        <time>2012-07-10T15:48:57Z</time>
      </trkpt>
      <trkpt lat="49.31194" lon="1.22439">
        <ele>3.5</ele>
        <time>2012-07-10T15:49:04Z</time>
      </trkpt>
      <trkpt lat="49.31195" lon="1.2244">
        <ele>3.5</ele>
        <time>2012-07-10T15:49:05Z</time>
      </trkpt>
      <trkpt lat="49.31208" lon="1.22454">
        <ele>4.5</ele>
        <time>2012-07-10T15:49:22Z</time>
      </trkpt>
      <trkpt lat="49.31215" lon="1.22461">
        <ele>4.4</ele>
        <time>2012-07-10T15:49:29Z</time>
      </trkpt>
      <trkpt lat="49.31222" lon="1.22468">
        <ele>4.3</ele>
        <time>2012-07-10T15:49:37Z</time>
      </trkpt>
      <trkpt lat="49.31228" lon="1.22475">
        <ele>4</ele>
        <time>2012-07-10T15:49:43Z</time>
      </trkpt>
      <trkpt lat="49.31235" lon="1.22481">
        <ele>4</ele>
        <time>2012-07-10T15:49:49Z</time>
      </trkpt>
      <trkpt lat="49.31243" lon="1.22487">
        <ele>3.2</ele>
        <time>2012-07-10T15:49:57Z</time>
      </trkpt>
      <trkpt lat="49.3125" lon="1.22493">
        <ele>3</ele>
        <time>2012-07-10T15:50:04Z</time>
      </trkpt>
      <trkpt lat="49.31257" lon="1.22499">
        <ele>2.5</ele>
        <time>2012-07-10T15:50:12Z</time>
      </trkpt>
      <trkpt lat="49.31258" lon="1.225">
        <ele>2.2</ele>
        <time>2012-07-10T15:50:13Z</time>
      </trkpt>
      <trkpt lat="49.31271" lon="1.22511">
        <ele>1.6</ele>
        <time>2012-07-10T15:50:24Z</time>
      </trkpt>
      <trkpt lat="49.31278" lon="1.22519">
        <ele>1.1</ele>
        <time>2012-07-10T15:50:31Z</time>
      </trkpt>
      <trkpt lat="49.31286" lon="1.22526">
        <ele>0.4</ele>
        <time>2012-07-10T15:50:38Z</time>
      </trkpt>
      <trkpt lat="49.31293" lon="1.22533">
        <ele>0.1</ele>
        <time>2012-07-10T15:50:46Z</time>
      </trkpt>
      <trkpt lat="49.31301" lon="1.22538">
        <ele>0.3</ele>
        <time>2012-07-10T15:50:53Z</time>
      </trkpt>
      <trkpt lat="49.31308" lon="1.22543">
        <ele>0.5</ele>
        <time>2012-07-10T15:50:59Z</time>
      </trkpt>
      <trkpt lat="49.31316" lon="1.22551">
        <ele>1.3</ele>
        <time>2012-07-10T15:51:07Z</time>
      </trkpt>
      <trkpt lat="49.31323" lon="1.22558">
        <ele>1.7</ele>
        <time>2012-07-10T15:51:14Z</time>
      </trkpt>
      <trkpt lat="49.31324" lon="1.22559">
        <ele>1.8</ele>
        <time>2012-07-10T15:51:15Z</time>
      </trkpt>
      <trkpt lat="49.31336" lon="1.22572">
        <ele>3</ele>
        <time>2012-07-10T15:51:28Z</time>
      </trkpt>
      <trkpt lat="49.31343" lon="1.22579">
        <ele>3.2</ele>
        <time>2012-07-10T15:51:35Z</time>
      </trkpt>
      <trkpt lat="49.31351" lon="1.22586">
        <ele>3</ele>
        <time>2012-07-10T15:51:42Z</time>
      </trkpt>
      <trkpt lat="49.31358" lon="1.22593">
        <ele>3.2</ele>
        <time>2012-07-10T15:51:48Z</time>
      </trkpt>
      <trkpt lat="49.31365" lon="1.22601">
        <ele>3.4</ele>
        <time>2012-07-10T15:51:55Z</time>
      </trkpt>
      <trkpt lat="49.31373" lon="1.22608">
        <ele>3.2</ele>
        <time>2012-07-10T15:52:02Z</time>
      </trkpt>
      <trkpt lat="49.3138" lon="1.22615">
        <ele>3.2</ele>
        <time>2012-07-10T15:52:09Z</time>
      </trkpt>
      <trkpt lat="49.31387" lon="1.22622">
        <ele>3.5</ele>
        <time>2012-07-10T15:52:16Z</time>
      </trkpt>
      <trkpt lat="49.31388" lon="1.22623">
        <ele>3.2</ele>
        <time>2012-07-10T15:52:17Z</time>
      </trkpt>
      <trkpt lat="49.31401" lon="1.22637">
        <ele>3.5</ele>
        <time>2012-07-10T15:52:31Z</time>
      </trkpt>
      <trkpt lat="49.31408" lon="1.22643">
        <ele>3.5</ele>
        <time>2012-07-10T15:52:37Z</time>
      </trkpt>
      <trkpt lat="49.31415" lon="1.22649">
        <ele>3.2</ele>
        <time>2012-07-10T15:52:43Z</time>
      </trkpt>
      <trkpt lat="49.31422" lon="1.22657">
        <ele>2</ele>
        <time>2012-07-10T15:52:50Z</time>
      </trkpt>
      <trkpt lat="49.3143" lon="1.22663">
        <ele>2</ele>
        <time>2012-07-10T15:52:58Z</time>
      </trkpt>
      <trkpt lat="49.31437" lon="1.22671">
        <ele>2.2</ele>
        <time>2012-07-10T15:53:04Z</time>
      </trkpt>
      <trkpt lat="49.31444" lon="1.2268">
        <ele>2.9</ele>
        <time>2012-07-10T15:53:12Z</time>
      </trkpt>
      <trkpt lat="49.31451" lon="1.22686">
        <ele>3.5</ele>
        <time>2012-07-10T15:53:20Z</time>
      </trkpt>
      <trkpt lat="49.31452" lon="1.22687">
        <ele>4</ele>
        <time>2012-07-10T15:53:21Z</time>
      </trkpt>
      <trkpt lat="49.31464" lon="1.22703">
        <ele>4.5</ele>
        <time>2012-07-10T15:53:35Z</time>
      </trkpt>
      <trkpt lat="49.31471" lon="1.22711">
        <ele>4.6</ele>
        <time>2012-07-10T15:53:41Z</time>
      </trkpt>
      <trkpt lat="49.31478" lon="1.22719">
        <ele>3.7</ele>
        <time>2012-07-10T15:53:48Z</time>
      </trkpt>
      <trkpt lat="49.31484" lon="1.22729">
        <ele>3.2</ele>
        <time>2012-07-10T15:53:57Z</time>
      </trkpt>
      <trkpt lat="49.3149" lon="1.22736">
        <ele>3</ele>
        <time>2012-07-10T15:54:11Z</time>
      </trkpt>
      <trkpt lat="49.31497" lon="1.22744">
        <ele>3</ele>
        <time>2012-07-10T15:54:20Z</time>
      </trkpt>
      <trkpt lat="49.31503" lon="1.22753">
        <ele>3.5</ele>
        <time>2012-07-10T15:54:27Z</time>
      </trkpt>
      <trkpt lat="49.31504" lon="1.22754">
        <ele>3.7</ele>
        <time>2012-07-10T15:54:28Z</time>
      </trkpt>
      <trkpt lat="49.31507" lon="1.22774">
        <ele>4.9</ele>
        <time>2012-07-10T15:54:56Z</time>
      </trkpt>
      <trkpt lat="49.31503" lon="1.22785">
        <ele>5.3</ele>
        <time>2012-07-10T15:55:02Z</time>
      </trkpt>
      <trkpt lat="49.315" lon="1.22797">
        <ele>5.8</ele>
        <time>2012-07-10T15:55:09Z</time>
      </trkpt>
      <trkpt lat="49.31496" lon="1.22808">
        <ele>6</ele>
        <time>2012-07-10T15:55:16Z</time>
      </trkpt>
      <trkpt lat="49.31491" lon="1.22818">
        <ele>5.3</ele>
        <time>2012-07-10T15:55:23Z</time>
      </trkpt>
      <trkpt lat="49.31486" lon="1.22829">
        <ele>4.4</ele>
        <time>2012-07-10T15:55:29Z</time>
      </trkpt>
      <trkpt lat="49.31485" lon="1.22831">
        <ele>4.3</ele>
        <time>2012-07-10T15:55:30Z</time>
      </trkpt>
      <trkpt lat="49.31476" lon="1.22849">
        <ele>2.9</ele>
        <time>2012-07-10T15:55:41Z</time>
      </trkpt>
      <trkpt lat="49.31472" lon="1.22859">
        <ele>2.7</ele>
        <time>2012-07-10T15:55:47Z</time>
      </trkpt>
      <trkpt lat="49.31467" lon="1.22869">
        <ele>2.2</ele>
        <time>2012-07-10T15:55:53Z</time>
      </trkpt>
      <trkpt lat="49.31461" lon="1.22879">
        <ele>1.7</ele>
        <time>2012-07-10T15:56:00Z</time>
      </trkpt>
      <trkpt lat="49.31457" lon="1.22889">
        <ele>1.8</ele>
        <time>2012-07-10T15:56:06Z</time>
      </trkpt>
      <trkpt lat="49.31452" lon="1.22899">
        <ele>1.8</ele>
        <time>2012-07-10T15:56:12Z</time>
      </trkpt>
      <trkpt lat="49.31448" lon="1.22909">
        <ele>0.3</ele>
        <time>2012-07-10T15:56:18Z</time>
      </trkpt>
      <trkpt lat="49.31443" lon="1.2292">
        <ele>-1.2</ele>
        <time>2012-07-10T15:56:25Z</time>
      </trkpt>
      <trkpt lat="49.31438" lon="1.2293">
        <ele>-1.5</ele>
        <time>2012-07-10T15:56:31Z</time>
      </trkpt>
      <trkpt lat="49.31437" lon="1.22931">
        <ele>-1</ele>
        <time>2012-07-10T15:56:32Z</time>
      </trkpt>
      <trkpt lat="49.31427" lon="1.22949">
        <ele>-2.7</ele>
        <time>2012-07-10T15:56:44Z</time>
      </trkpt>
      <trkpt lat="49.31422" lon="1.22959">
        <ele>-2.4</ele>
        <time>2012-07-10T15:56:50Z</time>
      </trkpt>
      <trkpt lat="49.31417" lon="1.2297">
        <ele>-2.4</ele>
        <time>2012-07-10T15:56:57Z</time>
      </trkpt>
      <trkpt lat="49.31413" lon="1.2298">
        <ele>-2.5</ele>
        <time>2012-07-10T15:57:03Z</time>
      </trkpt>
      <trkpt lat="49.31409" lon="1.22991">
        <ele>-1.2</ele>
        <time>2012-07-10T15:57:10Z</time>
      </trkpt>
      <trkpt lat="49.31404" lon="1.23002">
        <ele>-1.6</ele>
        <time>2012-07-10T15:57:19Z</time>
      </trkpt>
      <trkpt lat="49.314" lon="1.23013">
        <ele>-2.2</ele>
        <time>2012-07-10T15:57:26Z</time>
      </trkpt>
      <trkpt lat="49.31397" lon="1.23024">
        <ele>-2.7</ele>
        <time>2012-07-10T15:57:32Z</time>
      </trkpt>
      <trkpt lat="49.31396" lon="1.23025">
        <ele>-2.9</ele>
        <time>2012-07-10T15:57:33Z</time>
      </trkpt>
      <trkpt lat="49.31389" lon="1.23046">
        <ele>-2.5</ele>
        <time>2012-07-10T15:57:45Z</time>
      </trkpt>
      <trkpt lat="49.31384" lon="1.23057">
        <ele>-2.2</ele>
        <time>2012-07-10T15:57:52Z</time>
      </trkpt>
      <trkpt lat="49.3138" lon="1.23068">
        <ele>-2</ele>
        <time>2012-07-10T15:57:59Z</time>
      </trkpt>
      <trkpt lat="49.31375" lon="1.23078">
        <ele>-1.1</ele>
        <time>2012-07-10T15:58:05Z</time>
      </trkpt>
      <trkpt lat="49.31368" lon="1.23088">
        <ele>0.4</ele>
        <time>2012-07-10T15:58:12Z</time>
      </trkpt>
      <trkpt lat="49.31363" lon="1.23098">
        <ele>1.7</ele>
        <time>2012-07-10T15:58:19Z</time>
      </trkpt>
      <trkpt lat="49.31356" lon="1.23106">
        <ele>2.2</ele>
        <time>2012-07-10T15:58:26Z</time>
      </trkpt>
      <trkpt lat="49.31349" lon="1.23114">
        <ele>2.4</ele>
        <time>2012-07-10T15:58:32Z</time>
      </trkpt>
      <trkpt lat="49.31343" lon="1.23123">
        <ele>1.7</ele>
        <time>2012-07-10T15:58:39Z</time>
      </trkpt>
      <trkpt lat="49.31342" lon="1.23124">
        <ele>1.7</ele>
        <time>2012-07-10T15:58:40Z</time>
      </trkpt>
      <trkpt lat="49.31331" lon="1.23142">
        <ele>3</ele>
        <time>2012-07-10T15:58:53Z</time>
      </trkpt>
      <trkpt lat="49.31324" lon="1.23149">
        <ele>2.7</ele>
        <time>2012-07-10T15:58:59Z</time>
      </trkpt>
      <trkpt lat="49.31318" lon="1.23155">
        <ele>3.4</ele>
        <time>2012-07-10T15:59:05Z</time>
      </trkpt>
      <trkpt lat="49.31311" lon="1.23163">
        <ele>4.1</ele>
        <time>2012-07-10T15:59:12Z</time>
      </trkpt>
      <trkpt lat="49.31304" lon="1.23171">
        <ele>4.5</ele>
        <time>2012-07-10T15:59:19Z</time>
      </trkpt>
      <trkpt lat="49.31296" lon="1.23178">
        <ele>5.4</ele>
        <time>2012-07-10T15:59:26Z</time>
      </trkpt>
      <trkpt lat="49.3129" lon="1.23186">
        <ele>5.5</ele>
        <time>2012-07-10T15:59:33Z</time>
      </trkpt>
      <trkpt lat="49.31285" lon="1.23196">
        <ele>5.5</ele>
        <time>2012-07-10T15:59:39Z</time>
      </trkpt>
      <trkpt lat="49.3128" lon="1.23206">
        <ele>5.8</ele>
        <time>2012-07-10T15:59:45Z</time>
      </trkpt>
      <trkpt lat="49.3128" lon="1.23207">
        <ele>5.5</ele>
        <time>2012-07-10T15:59:46Z</time>
      </trkpt>
      <trkpt lat="49.31275" lon="1.23231">
        <ele>5.4</ele>
        <time>2012-07-10T15:59:59Z</time>
      </trkpt>
      <trkpt lat="49.31273" lon="1.23244">
        <ele>6.1</ele>
        <time>2012-07-10T16:00:06Z</time>
      </trkpt>
      <trkpt lat="49.31271" lon="1.23257">
        <ele>6.1</ele>
        <time>2012-07-10T16:00:13Z</time>
      </trkpt>
      <trkpt lat="49.3127" lon="1.2327">
        <ele>6.6</ele>
        <time>2012-07-10T16:00:20Z</time>
      </trkpt>
      <trkpt lat="49.3127" lon="1.23282">
        <ele>7.5</ele>
        <time>2012-07-10T16:00:27Z</time>
      </trkpt>
      <trkpt lat="49.31271" lon="1.23294">
        <ele>7</ele>
        <time>2012-07-10T16:00:33Z</time>
      </trkpt>
      <trkpt lat="49.31273" lon="1.23307">
        <ele>7</ele>
        <time>2012-07-10T16:00:40Z</time>
      </trkpt>
      <trkpt lat="49.31273" lon="1.23319">
        <ele>7.1</ele>
        <time>2012-07-10T16:00:47Z</time>
      </trkpt>
      <trkpt lat="49.31273" lon="1.23321">
        <ele>7</ele>
        <time>2012-07-10T16:00:48Z</time>
      </trkpt>
      <trkpt lat="49.31276" lon="1.23344">
        <ele>6.4</ele>
        <time>2012-07-10T16:01:06Z</time>
      </trkpt>
      <trkpt lat="49.31277" lon="1.23356">
        <ele>6.4</ele>
        <time>2012-07-10T16:01:12Z</time>
      </trkpt>
      <trkpt lat="49.31278" lon="1.23368">
        <ele>5.9</ele>
        <time>2012-07-10T16:01:18Z</time>
      </trkpt>
      <trkpt lat="49.31279" lon="1.2338">
        <ele>6.6</ele>
        <time>2012-07-10T16:01:24Z</time>
      </trkpt>
      <trkpt lat="49.3128" lon="1.23393">
        <ele>6.9</ele>
        <time>2012-07-10T16:01:30Z</time>
      </trkpt>
      <trkpt lat="49.31281" lon="1.23405">
        <ele>7</ele>
        <time>2012-07-10T16:01:36Z</time>
      </trkpt>
      <trkpt lat="49.31281" lon="1.23418">
        <ele>7</ele>
        <time>2012-07-10T16:01:43Z</time>
      </trkpt>
      <trkpt lat="49.31283" lon="1.23431">
        <ele>6.4</ele>
        <time>2012-07-10T16:01:50Z</time>
      </trkpt>
      <trkpt lat="49.31283" lon="1.23433">
        <ele>6.3</ele>
        <time>2012-07-10T16:01:51Z</time>
      </trkpt>
      <trkpt lat="49.31283" lon="1.23456">
        <ele>5.6</ele>
        <time>2012-07-10T16:02:03Z</time>
      </trkpt>
      <trkpt lat="49.31284" lon="1.23468">
        <ele>5</ele>
        <time>2012-07-10T16:02:09Z</time>
      </trkpt>
      <trkpt lat="49.31284" lon="1.23481">
        <ele>5.5</ele>
        <time>2012-07-10T16:02:16Z</time>
      </trkpt>
      <trkpt lat="49.31284" lon="1.23494">
        <ele>5.5</ele>
        <time>2012-07-10T16:02:23Z</time>
      </trkpt>
      <trkpt lat="49.31284" lon="1.23507">
        <ele>5.1</ele>
        <time>2012-07-10T16:02:30Z</time>
      </trkpt>
      <trkpt lat="49.31283" lon="1.2352">
        <ele>4.8</ele>
        <time>2012-07-10T16:02:38Z</time>
      </trkpt>
      <trkpt lat="49.31282" lon="1.23532">
        <ele>4.9</ele>
        <time>2012-07-10T16:02:45Z</time>
      </trkpt>
      <trkpt lat="49.31282" lon="1.23544">
        <ele>4.5</ele>
        <time>2012-07-10T16:02:51Z</time>
      </trkpt>
      <trkpt lat="49.31282" lon="1.23546">
        <ele>4.3</ele>
        <time>2012-07-10T16:02:52Z</time>
      </trkpt>
      <trkpt lat="49.31279" lon="1.23569">
        <ele>4.5</ele>
        <time>2012-07-10T16:03:04Z</time>
      </trkpt>
      <trkpt lat="49.31277" lon="1.23582">
        <ele>5.1</ele>
        <time>2012-07-10T16:03:11Z</time>
      </trkpt>
      <trkpt lat="49.31274" lon="1.23595">
        <ele>5.1</ele>
        <time>2012-07-10T16:03:18Z</time>
      </trkpt>
      <trkpt lat="49.31272" lon="1.23607">
        <ele>4.4</ele>
        <time>2012-07-10T16:03:24Z</time>
      </trkpt>
      <trkpt lat="49.31271" lon="1.2362">
        <ele>5.4</ele>
        <time>2012-07-10T16:03:31Z</time>
      </trkpt>
      <trkpt lat="49.31269" lon="1.23632">
        <ele>6.3</ele>
        <time>2012-07-10T16:03:38Z</time>
      </trkpt>
      <trkpt lat="49.31268" lon="1.23644">
        <ele>5.9</ele>
        <time>2012-07-10T16:03:45Z</time>
      </trkpt>
      <trkpt lat="49.31267" lon="1.23657">
        <ele>4.5</ele>
        <time>2012-07-10T16:03:52Z</time>
      </trkpt>
      <trkpt lat="49.31267" lon="1.23659">
        <ele>4.5</ele>
        <time>2012-07-10T16:03:53Z</time>
      </trkpt>
      <trkpt lat="49.31265" lon="1.23682">
        <ele>4</ele>
        <time>2012-07-10T16:04:06Z</time>
      </trkpt>
      <trkpt lat="49.31265" lon="1.23694">
        <ele>2.7</ele>
        <time>2012-07-10T16:04:12Z</time>
      </trkpt>
      <trkpt lat="49.31265" lon="1.23707">
        <ele>3.5</ele>
        <time>2012-07-10T16:04:19Z</time>
      </trkpt>
      <trkpt lat="49.31264" lon="1.2372">
        <ele>3.4</ele>
        <time>2012-07-10T16:04:27Z</time>
      </trkpt>
      <trkpt lat="49.31264" lon="1.23733">
        <ele>4.1</ele>
        <time>2012-07-10T16:04:34Z</time>
      </trkpt>
      <trkpt lat="49.31264" lon="1.23746">
        <ele>5.3</ele>
        <time>2012-07-10T16:04:42Z</time>
      </trkpt>
      <trkpt lat="49.31263" lon="1.23759">
        <ele>5.4</ele>
        <time>2012-07-10T16:05:11Z</time>
      </trkpt>
      <trkpt lat="49.31262" lon="1.2376">
        <ele>5.8</ele>
        <time>2012-07-10T16:05:12Z</time>
      </trkpt>
      <trkpt lat="49.31262" lon="1.23784">
        <ele>4.3</ele>
        <time>2012-07-10T16:05:23Z</time>
      </trkpt>
      <trkpt lat="49.31263" lon="1.23796">
        <ele>4.5</ele>
        <time>2012-07-10T16:05:29Z</time>
      </trkpt>
      <trkpt lat="49.31264" lon="1.23809">
        <ele>5</ele>
        <time>2012-07-10T16:05:37Z</time>
      </trkpt>
      <trkpt lat="49.31267" lon="1.23809">
        <ele>5.5</ele>
        <time>2012-07-10T16:06:05Z</time>
      </trkpt>
      <trkpt lat="49.31267" lon="1.23809">
        <ele>5.5</ele>
        <time>2012-07-10T16:06:05Z</time>
      </trkpt>
    </trkseg>
  </trk>
</gpx>